GFSGBSN_250_rhum_000.txt.gz
RH
81 80 40 39 76 80 71 76 71 60 84 68 56 76 72 100 71 88 100 100 56 14 4 4 5 6 6 7 11 12 16 21 24 21 21 23 26 30 27 33 35 30 26 21 19 20 19
81 78 42 37 78 86 77 77 84 81 86 64 66 85 81 89 82 100 100 89 36 5 3 3 3 5 6 8 12 10 14 21 16 22 23 23 26 29 24 25 28 26 21 22 23 18 15
81 74 37 35 79 92 87 85 87 90 90 70 56 87 79 89 92 100 98 70 18 4 2 3 3 4 5 11 8 10 14 18 14 23 22 27 26 30 25 24 24 23 19 26 20 17 17
79 76 42 32 78 99 98 89 83 92 97 66 83 73 73 68 77 94 82 49 11 3 2 3 3 3 5 8 7 11 12 16 16 22 21 25 25 28 26 23 22 30 20 28 15 23 18
85 80 50 30 78 100 100 89 79 91 98 76 63 69 85 58 78 98 81 55 12 3 2 2 2 2 4 7 7 12 12 15 17 19 21 23 25 27 28 21 26 26 28 37 20 21 22
94 89 62 32 78 100 100 93 80 90 100 80 67 85 100 63 100 96 100 66 18 3 2 2 2 3 5 7 7 11 13 14 18 18 22 20 23 26 29 23 24 40 54 36 28 21 24
100 92 74 33 77 100 100 99 84 94 98 78 74 91 65 79 100 100 100 85 18 4 2 2 3 3 5 7 6 11 13 14 18 17 21 19 20 25 30 33 35 37 40 33 43 25 25
100 86 84 30 72 100 100 99 88 92 95 75 79 67 92 77 100 100 100 98 31 8 2 2 3 4 5 5 6 11 12 14 18 16 21 18 18 29 31 32 31 31 33 47 42 30 22
100 90 79 29 69 100 100 97 93 98 92 64 70 67 62 84 100 100 100 66 28 8 4 4 4 4 5 5 6 8 12 14 18 17 21 18 20 29 29 33 36 33 39 40 41 37 20
100 96 68 37 67 100 100 96 95 100 83 58 87 61 80 82 100 100 100 70 23 8 6 5 4 4 6 6 7 8 12 14 18 19 20 18 19 27 27 34 34 36 41 41 40 38 20
100 100 76 44 65 100 100 95 97 100 82 71 90 68 100 100 100 100 100 74 23 9 8 6 5 7 5 6 8 8 12 14 19 23 19 18 18 25 24 32 33 39 36 37 38 38 25
97 93 91 50 67 100 100 98 94 100 83 71 74 76 100 100 100 100 100 86 23 14 10 7 8 8 5 6 8 9 11 14 17 21 20 20 20 21 23 32 33 33 33 32 36 36 31
97 87 94 56 71 100 100 98 95 100 87 75 84 78 99 100 100 100 100 100 23 22 9 7 10 8 7 8 9 9 10 13 14 18 19 19 20 21 24 25 26 28 27 31 37 38 36
90 93 82 59 74 100 100 100 95 100 85 80 93 67 81 100 100 100 100 100 32 17 12 11 11 9 8 8 9 9 10 12 14 16 23 21 17 20 20 22 26 27 30 34 37 38 33
68 91 74 55 78 100 100 100 98 100 89 73 86 69 72 100 100 100 100 94 46 22 17 16 12 8 9 8 8 8 10 13 13 15 17 20 28 25 25 24 25 26 27 30 34 34 31
73 76 62 59 81 100 100 100 100 100 89 76 64 83 77 100 100 100 100 97 62 33 20 14 12 14 12 11 10 9 9 12 14 14 16 20 25 27 27 24 24 26 27 27 32 33 32
57 84 56 53 82 100 100 100 100 95 93 72 61 78 63 100 100 100 100 83 72 41 23 15 18 20 16 17 18 15 12 11 14 15 15 17 20 22 24 25 25 26 26 27 31 34 32
58 83 64 47 81 100 100 100 98 97 99 84 72 85 64 100 100 98 100 100 72 56 26 20 18 17 18 20 19 18 16 13 13 15 17 16 16 17 20 24 25 26 25 23 30 30 26
64 72 83 47 76 100 100 100 93 96 99 100 77 82 69 100 100 86 100 100 83 77 40 26 23 21 20 20 19 17 15 15 14 14 16 16 16 17 18 20 21 22 22 25 29 26 24
83 66 94 53 65 100 100 100 87 97 100 100 69 83 100 81 100 81 100 100 100 64 58 34 29 26 26 28 26 23 21 20 18 17 17 16 17 18 20 23 24 26 26 26 26 23 21
64 74 92 69 58 100 100 100 88 94 100 99 62 85 89 100 92 90 100 100 100 100 66 60 39 26 27 32 28 27 27 22 20 20 19 20 19 18 18 19 18 18 18 17 18 19 19
72 80 86 52 52 100 100 100 97 85 100 100 85 72 64 100 98 100 100 100 100 100 100 69 51 32 34 38 42 40 40 31 27 27 23 20 19 18 17 16 15 15 15 16 18 19 21
77 80 83 37 49 96 100 100 96 81 100 100 95 54 83 89 100 88 99 100 100 100 100 100 87 56 47 30 33 38 36 36 37 36 29 25 23 21 22 20 18 18 19 20 20 20 22
78 86 83 33 49 95 98 100 94 84 96 100 67 51 61 85 92 100 56 100 100 100 100 100 100 100 88 56 45 35 35 35 39 40 41 38 33 29 31 24 25 30 26 27 28 28 32
75 98 74 42 36 73 97 100 98 94 89 99 54 46 58 72 94 100 100 89 90 96 100 100 96 100 100 100 98 86 58 52 52 46 42 38 40 32 31 36 43 35 34 34 38 41 41
85 92 78 50 29 47 96 100 100 100 82 95 57 43 53 58 82 87 95 100 99 100 75 78 100 100 87 88 100 100 100 100 75 65 60 55 51 53 54 45 37 36 41 51 52 50 52
82 84 77 65 36 40 82 100 100 100 86 89 65 46 53 54 64 67 79 90 82 87 99 79 71 94 98 100 92 88 92 95 100 100 100 100 97 88 78 75 82 74 64 71 78 100 83
76 88 70 69 52 36 56 99 100 100 100 82 76 56 52 58 57 59 58 73 86 88 81 95 89 99 99 79 90 97 100 96 78 100 100 100 100 96 100 100 96 95 84 88 85 80 83
80 89 59 75 65 41 48 89 93 100 100 99 76 60 56 54 67 74 69 72 86 98 91 74 81 70 67 71 73 61 93 100 100 98 82 80 88 94 91 86 91 96 100 100 100 89 83

GFSGBSN_250_rhum_003.txt.gz
RH
99 79 52 44 52 60 50 30 53 68 64 70 83 74 74 66 53 78 91 64 76 96 97 90 70 40 22 17 14 13 12 13 12 12 20 24 23 28 36 50 51 50 43 41 48 43 37
86 96 54 60 53 59 60 29 56 75 78 72 86 78 82 68 70 81 54 63 100 98 100 87 63 30 11 7 8 8 9 10 11 11 18 22 24 26 38 46 46 48 39 34 33 37 34
74 99 57 64 59 74 63 33 57 82 83 70 83 81 85 62 74 59 59 82 82 98 87 69 34 12 4 2 4 5 10 8 12 11 19 21 26 25 34 42 46 45 32 31 36 35 28
90 99 91 54 69 97 70 38 55 87 88 74 85 83 86 65 77 82 78 92 100 100 82 39 14 3 2 2 3 4 10 8 11 10 18 18 23 24 30 36 40 44 24 32 33 29 23
93 94 99 55 67 97 78 50 50 89 88 85 89 90 81 69 92 58 70 99 98 88 58 24 9 2 2 2 3 4 9 7 11 11 17 18 20 24 27 34 34 29 26 28 25 24 38
79 89 92 66 75 99 77 60 42 89 92 90 91 90 63 85 62 62 91 96 100 86 48 15 6 2 2 2 4 6 9 7 10 11 15 17 18 22 24 31 25 25 28 28 23 39 31
87 99 100 66 82 100 81 66 38 94 94 97 92 84 57 88 69 69 100 100 100 75 33 9 5 3 2 2 3 7 10 7 10 10 14 16 18 20 24 29 25 34 31 24 21 46 43
97 100 97 69 100 100 87 76 38 98 94 100 94 75 58 89 50 71 100 100 99 52 50 10 4 2 2 2 3 7 9 7 10 11 13 16 17 21 26 29 27 30 33 21 28 53 45
99 98 73 84 100 100 89 99 46 100 91 100 97 74 76 66 57 95 100 100 99 63 43 9 5 2 2 3 4 7 9 8 12 11 13 17 18 22 25 29 30 34 40 26 36 58 41
99 94 84 100 100 97 99 100 56 100 86 99 100 75 71 56 80 100 100 100 90 54 24 13 6 4 4 4 5 8 8 8 13 12 13 17 22 22 25 27 33 40 43 25 35 50 34
92 88 79 100 100 100 100 100 72 100 86 99 99 72 66 60 100 100 100 100 77 44 16 10 6 5 5 4 7 9 7 9 14 12 13 16 22 22 25 30 36 47 38 26 31 42 34
94 90 96 100 100 100 100 100 88 96 91 100 100 74 62 65 100 100 100 100 81 37 17 10 8 5 5 5 8 8 8 10 14 12 14 18 24 22 25 29 33 36 30 34 36 37 38
83 98 95 100 100 100 100 100 90 96 98 100 100 68 60 76 100 100 100 100 80 41 19 11 7 5 6 6 8 8 8 12 13 12 13 20 28 23 24 26 32 32 31 32 37 38 42
89 99 100 86 100 99 97 100 92 98 100 100 96 65 59 90 100 100 99 69 65 36 19 13 7 6 6 6 8 7 8 13 14 12 14 18 22 27 23 22 29 35 35 37 40 44 47
82 100 99 88 98 89 96 95 99 97 100 100 93 60 63 99 100 100 92 69 74 37 21 14 10 10 7 7 7 7 9 14 15 14 14 20 25 28 23 21 24 30 29 36 42 40 42
75 100 98 93 79 75 92 97 95 100 100 98 92 61 60 100 100 100 91 90 77 45 29 22 13 13 10 8 8 8 10 15 15 15 16 20 27 31 25 19 20 24 29 26 34 37 39
68 100 89 76 86 77 86 94 91 100 100 96 98 65 56 100 88 100 88 86 88 49 28 24 19 18 17 14 13 11 11 12 16 16 17 19 26 31 24 20 22 23 24 28 31 33 36
70 100 96 89 96 99 82 92 92 100 100 92 100 66 58 100 99 100 100 73 71 55 32 26 25 22 19 22 19 18 15 14 16 16 18 19 25 32 26 24 24 22 23 24 28 28 30
70 89 85 93 82 95 83 91 91 100 100 96 100 76 80 98 66 100 100 88 66 57 38 27 28 30 26 23 19 13 11 12 13 16 17 18 20 28 29 24 20 22 24 25 27 29 30
62 76 90 89 70 92 86 92 87 100 100 98 100 82 70 100 66 100 100 100 77 62 40 32 32 33 30 27 22 19 14 12 13 15 15 16 18 21 28 34 36 35 33 30 26 25 28
47 78 85 80 70 92 85 90 86 100 100 100 100 85 72 100 100 99 99 100 99 67 49 41 34 32 26 23 23 21 19 17 13 13 15 16 16 17 20 27 28 30 30 27 26 26 25
38 69 92 91 86 85 79 92 89 100 98 99 100 100 69 93 100 100 100 92 100 98 58 50 45 32 31 28 21 18 18 18 16 16 14 15 17 16 16 18 21 23 22 22 24 25 28
35 64 95 86 91 86 84 78 89 100 97 100 100 100 67 99 94 94 100 100 100 100 88 59 64 40 32 30 27 26 22 20 16 14 14 14 14 17 19 18 18 18 18 18 20 21 26
29 66 92 95 91 90 83 63 99 100 91 100 100 100 99 81 100 84 100 100 94 100 100 100 68 63 55 32 31 32 34 29 26 25 23 19 16 15 16 16 19 21 19 20 22 22 22
29 62 90 91 89 98 90 60 96 100 92 100 98 100 100 64 100 76 100 100 99 100 100 100 100 86 71 68 57 46 34 31 31 29 28 27 26 25 22 23 24 22 22 21 20 20 20
26 55 87 83 92 94 91 58 92 100 96 100 99 100 100 61 85 95 71 100 100 100 100 100 100 100 94 92 86 78 78 73 52 38 39 36 29 24 26 29 30 26 23 23 22 27 27
21 45 80 87 90 96 81 58 95 100 97 100 100 87 97 55 69 91 86 93 97 95 94 98 98 100 100 100 100 100 89 67 60 62 61 57 60 54 43 43 46 32 27 24 24 35 31
23 43 69 84 93 100 69 56 88 100 98 100 99 75 97 54 64 68 94 84 76 89 83 83 95 100 100 100 96 100 100 98 84 71 67 67 62 60 58 56 56 49 41 42 49 46 49
21 42 65 83 95 100 62 46 72 99 99 100 100 78 88 56 54 68 76 91 93 78 84 95 91 82 95 100 100 100 100 100 98 88 100 100 98 84 86 75 73 70 70 62 69 74 87

GFSGBSN_250_rhum_006.txt.gz
RH
78 76 99 84 95 73 92 64 46 57 56 71 34 39 60 47 47 51 59 62 55 66 79 75 92 100 100 96 71 31 22 19 20 16 15 21 12 14 22 36 40 47 51 42 49 90 99
100 91 74 77 91 76 89 71 53 60 68 82 41 40 69 53 49 62 69 63 66 72 76 87 96 96 94 73 71 37 28 24 18 18 15 17 16 14 19 35 37 54 54 44 46 63 80
94 100 83 85 82 78 91 70 57 62 76 86 54 47 88 58 57 67 77 60 61 87 96 100 91 88 85 94 64 44 24 17 21 17 16 15 17 12 17 32 39 48 48 49 48 54 55
100 100 100 97 81 90 82 99 87 70 75 78 67 46 89 58 71 74 71 58 61 88 100 100 99 87 94 77 46 27 9 10 13 16 15 14 14 10 15 28 37 42 42 49 50 50 49
91 100 100 100 100 82 72 84 93 79 82 73 70 48 93 58 78 80 62 62 82 85 92 97 84 96 74 40 20 8 4 3 7 11 12 11 10 11 15 26 31 38 39 50 48 46 47
46 90 100 100 100 96 88 93 66 66 81 73 71 56 92 61 83 83 65 69 76 94 100 100 100 75 28 27 12 4 2 1 3 6 8 10 9 11 14 23 24 36 39 46 44 47 50
33 57 100 100 100 100 90 100 85 93 79 74 79 70 95 73 85 80 65 65 85 89 100 90 100 41 25 18 8 2 2 1 2 5 7 10 9 9 15 24 28 37 52 43 38 44 47
19 35 78 100 100 100 89 91 92 100 75 79 85 86 94 83 88 77 62 84 80 100 68 100 62 20 16 14 5 2 2 2 3 6 8 10 9 12 19 28 30 41 46 38 29 42 46
29 20 42 80 96 100 98 98 94 96 73 90 80 99 97 85 92 70 76 91 79 96 65 94 42 18 18 10 4 2 2 2 5 7 10 9 13 12 20 28 29 37 36 30 27 40 49
26 25 23 57 92 97 100 95 83 100 79 91 86 100 100 88 97 65 90 90 92 88 72 65 35 24 15 8 4 2 2 3 6 8 13 11 13 13 20 28 29 36 35 24 28 40 51
19 25 21 34 54 98 100 100 85 99 86 87 90 100 100 91 87 64 96 86 93 97 71 39 25 18 10 7 4 3 2 4 7 11 12 12 13 14 22 28 30 37 34 20 24 38 53
14 20 23 16 34 66 100 100 99 95 88 89 95 98 99 100 74 69 98 76 95 91 70 41 21 11 7 5 4 3 3 6 10 15 12 16 15 18 28 28 31 34 28 20 24 40 49
15 18 21 15 21 51 91 100 100 94 91 90 96 96 98 100 65 78 82 76 94 77 50 27 15 7 4 4 4 4 4 9 13 12 13 16 13 19 31 27 31 31 25 21 23 37 47
14 17 19 15 24 56 97 100 100 90 86 91 98 99 100 94 64 88 79 82 82 82 45 26 15 8 5 4 4 5 6 12 15 12 16 13 14 21 36 26 28 27 26 24 26 41 48
13 14 15 14 30 62 100 100 96 86 93 87 100 99 100 83 68 89 88 70 77 69 49 22 13 7 5 4 4 5 10 14 13 13 15 12 16 22 32 25 27 24 25 27 32 46 50
12 11 13 15 37 65 100 100 85 77 94 92 100 100 100 78 75 83 95 68 61 56 49 26 17 12 11 8 7 7 12 14 11 14 15 13 16 20 24 24 28 27 28 29 32 47 52
10 12 13 18 46 71 100 100 78 72 100 96 100 100 96 77 82 78 95 64 55 46 48 41 23 14 18 15 13 14 15 12 12 14 13 11 15 20 28 25 28 28 27 31 35 44 48
8 13 15 26 50 69 100 100 72 85 99 100 95 100 92 70 87 88 100 65 58 45 40 41 38 22 20 26 19 18 16 15 18 18 17 13 17 21 30 26 24 25 24 27 31 37 44
8 14 15 28 50 62 100 99 73 96 96 100 96 100 93 66 99 93 100 64 65 41 50 46 36 40 29 24 29 26 22 19 22 21 18 16 17 21 28 22 20 23 25 26 32 36 38
9 14 14 30 41 59 87 74 82 100 95 100 100 100 97 71 96 96 99 64 59 63 55 55 40 29 33 40 36 28 22 24 24 22 17 16 17 20 24 38 35 27 25 23 26 29 33
9 14 15 28 35 47 76 79 90 100 94 100 100 100 97 71 96 81 100 66 53 63 58 47 53 38 32 26 24 23 22 20 20 21 18 16 17 18 22 27 29 31 28 22 21 22 23
11 13 15 26 33 50 73 88 100 100 94 100 100 100 91 88 94 100 89 74 64 42 60 45 44 37 32 24 17 15 14 15 16 17 21 18 18 18 20 22 27 32 34 30 26 23 29
12 13 16 27 32 55 85 93 100 100 98 100 100 99 100 83 99 98 77 83 84 60 59 53 61 33 31 30 23 17 15 12 12 14 15 18 18 18 19 20 21 28 37 37 36 33 34
11 14 16 29 36 63 86 95 97 100 94 100 100 100 100 98 92 96 82 78 81 94 70 70 73 39 32 33 29 24 21 18 13 12 14 15 17 18 19 19 21 25 27 34 37 36 37
12 14 15 27 38 66 87 95 95 100 92 100 100 100 100 100 87 93 100 61 85 95 100 77 74 61 37 35 36 30 27 23 19 18 15 14 16 17 17 19 19 19 20 22 25 27 29
13 19 21 29 40 67 86 91 92 99 94 100 100 100 100 100 100 86 99 82 73 85 100 100 69 78 73 46 38 45 42 34 29 24 21 18 16 16 17 18 18 17 18 18 19 20 21
14 17 25 26 38 71 92 84 89 96 96 100 100 100 100 100 100 93 94 100 60 89 88 100 100 89 79 77 68 55 56 50 55 48 37 28 26 26 23 24 21 18 20 21 23 25 22
14 17 22 29 44 66 77 76 91 90 98 100 100 100 100 100 100 99 88 100 72 84 100 100 100 100 100 91 83 73 68 60 53 56 50 44 45 46 42 48 41 31 29 29 30 32 30
14 16 23 34 40 64 73 78 86 93 97 97 100 100 100 100 100 92 86 84 87 73 96 100 100 100 100 100 100 100 93 72 64 67 62 58 57 46 43 44 40 38 38 41 47 50 45

GFSGBSN_250_rhum_009.txt.gz
RH
83 76 82 84 98 100 79 91 92 90 74 73 69 54 45 45 94 72 38 46 57 50 46 59 58 49 51 66 80 65 82 74 47 36 25 24 21 19 18 15 17 21 38 43 34 24 29
38 100 94 81 86 88 89 74 96 81 75 77 80 63 50 45 80 88 46 51 70 57 53 60 56 50 63 83 91 93 99 99 81 50 28 25 26 20 18 17 15 22 33 40 37 26 29
36 51 88 100 100 99 98 97 93 96 81 68 83 82 75 45 65 94 58 57 72 61 59 63 56 53 85 100 100 100 100 81 88 73 49 31 25 24 22 18 18 20 23 39 31 30 32
41 25 42 93 100 100 100 100 96 82 79 85 97 100 94 60 51 87 68 62 74 66 70 64 54 62 99 100 100 100 92 95 97 93 72 35 26 23 18 19 19 18 22 33 34 34 35
79 67 39 28 59 100 100 100 100 100 88 84 76 98 84 69 50 86 77 69 79 72 74 61 64 88 97 100 94 91 88 90 98 100 74 31 20 24 20 19 20 20 19 30 31 37 39
99 90 80 44 38 44 86 100 100 100 100 84 86 86 81 79 62 92 84 82 87 70 79 61 91 96 97 94 83 84 90 99 89 80 46 13 10 21 20 16 15 21 21 25 32 37 43
90 99 90 67 43 36 36 68 87 100 100 100 98 89 80 88 75 94 84 84 84 78 77 75 99 89 88 92 96 91 78 68 40 22 10 9 7 14 21 16 20 23 22 25 35 41 46
90 93 88 77 69 42 31 41 64 93 100 94 100 81 89 79 100 97 92 82 75 83 66 80 97 82 96 100 99 67 50 36 20 7 5 3 4 12 20 17 19 23 22 25 35 46 44
87 85 83 75 65 52 34 26 57 89 100 95 94 88 99 79 100 93 96 82 77 82 54 80 80 93 100 94 57 38 27 19 8 4 3 2 4 11 11 15 15 22 23 28 39 44 40
71 71 62 57 55 49 33 33 39 89 100 93 93 100 96 74 100 98 93 87 81 69 47 78 84 95 94 51 33 14 15 10 5 3 2 2 2 4 10 14 15 23 21 30 45 39 47
50 41 45 42 37 32 30 33 32 75 88 92 89 91 95 92 99 100 94 84 84 65 56 56 82 87 64 34 27 14 10 4 2 2 2 2 2 4 11 13 17 25 26 35 42 36 47
22 24 29 21 17 21 26 31 30 51 82 97 98 90 95 100 100 98 94 81 79 61 67 65 94 73 52 33 14 10 6 3 3 3 3 2 5 11 19 16 21 23 31 38 41 30 49
8 7 10 10 11 16 27 30 30 49 80 100 99 99 94 98 100 95 85 77 62 70 62 84 89 54 35 18 10 7 4 3 4 3 4 5 12 19 19 18 27 27 38 41 29 32 50
6 6 8 8 10 14 25 28 30 46 81 100 93 100 94 86 100 97 81 78 61 61 67 96 58 34 16 9 6 6 3 3 3 5 8 13 19 18 19 23 23 28 37 32 22 37 48
5 6 7 8 10 16 21 26 25 42 75 96 77 100 100 94 100 92 89 69 61 55 74 84 43 22 11 6 5 5 3 4 8 11 11 22 22 21 20 22 20 34 35 30 27 48 44
5 6 7 8 10 15 23 26 24 43 88 71 75 100 99 100 100 86 85 63 62 57 77 60 35 15 9 6 5 4 6 13 19 22 26 28 24 21 19 22 26 34 30 28 35 53 40
5 5 7 7 10 17 22 25 22 46 84 54 98 100 96 100 100 97 82 58 68 63 68 59 41 17 12 6 6 5 12 18 21 19 25 35 30 29 28 25 38 32 29 27 40 43 34
4 6 7 8 12 15 22 19 31 65 65 61 100 99 100 100 97 99 83 54 71 72 59 57 45 28 16 12 13 19 18 17 23 23 23 25 31 26 22 24 34 31 34 30 42 39 35
4 6 6 9 12 16 21 21 56 65 59 79 100 100 100 100 94 95 86 62 79 67 47 55 54 40 25 21 21 20 24 23 20 17 18 17 19 21 23 25 29 23 25 24 36 40 36
4 4 4 8 12 18 17 40 62 59 55 90 100 100 100 100 91 88 91 69 76 69 51 49 57 50 35 31 33 32 30 24 20 20 21 20 16 16 23 32 39 31 34 33 36 40 37
4 3 3 8 13 16 21 50 53 55 65 91 100 100 100 100 87 90 93 81 70 88 53 59 48 62 44 37 37 37 32 31 40 31 26 23 19 20 23 30 36 29 28 24 25 32 32
5 1 4 9 13 16 33 40 46 47 77 100 100 100 100 100 92 99 87 75 68 94 58 65 49 40 50 44 30 30 37 35 37 45 42 32 27 22 26 29 38 28 27 28 31 31 33
5 1 6 10 15 21 40 41 42 54 87 94 100 100 100 100 89 100 89 72 63 98 79 61 53 40 37 40 35 32 23 23 24 26 28 27 27 22 23 24 33 33 28 28 30 31 32
4 2 8 12 18 29 42 38 41 66 94 89 100 100 100 100 88 100 94 70 69 85 91 66 46 42 31 32 34 28 25 24 23 23 23 22 20 18 22 22 24 35 36 32 26 26 26
3 2 8 14 19 31 43 36 47 71 90 99 100 98 95 100 93 100 100 68 81 70 91 81 46 42 40 31 30 29 27 21 20 20 21 22 22 21 19 20 21 22 28 32 35 36 37
3 4 8 15 17 32 39 40 52 81 90 100 100 100 93 100 94 98 100 91 81 71 86 93 58 46 44 36 32 30 26 24 24 21 19 18 20 20 19 20 20 21 21 22 24 29 33
3 6 9 15 17 34 39 45 71 90 90 97 100 100 100 99 94 100 100 100 81 92 76 89 86 63 54 44 42 38 32 26 23 21 19 18 19 19 20 20 19 19 20 20 21 22 22
4 8 10 14 17 33 40 54 79 93 94 98 100 100 100 99 100 100 100 99 88 94 85 88 88 83 68 67 45 46 45 42 37 34 32 24 20 20 20 21 20 20 20 21 21 21 21
6 8 10 16 18 39 46 58 86 95 95 99 100 100 100 98 100 100 100 97 95 81 94 99 100 99 92 90 82 68 53 55 52 48 49 50 43 31 27 27 24 24 24 26 26 26 28

GFSGBSN_250_rhum_012.txt.gz
RH
72 23 31 12 34 100 100 100 100 100 100 93 99 96 77 60 69 81 65 57 43 52 55 48 41 48 51 47 46 42 42 39 34 36 38 37 28 24 25 25 17 14 16 19 25 29 24
77 77 34 35 17 89 100 100 100 100 93 87 100 87 80 75 67 87 76 63 53 52 55 58 55 52 57 56 54 50 44 42 45 51 52 60 46 31 25 25 20 20 16 18 21 26 24
100 94 82 49 38 30 100 100 100 100 100 99 96 82 80 68 69 77 74 70 81 69 55 60 64 55 64 68 58 52 46 59 78 100 100 100 95 56 33 25 25 22 17 17 16 22 25
87 96 90 92 81 43 41 88 100 100 100 100 100 100 88 93 85 76 97 98 100 75 64 53 72 63 76 71 67 58 50 65 66 79 100 100 66 50 39 27 26 24 18 18 18 18 24
80 96 97 84 91 91 78 43 56 98 100 100 100 100 100 100 96 89 86 100 86 66 64 57 74 74 83 87 72 64 61 74 90 95 84 58 55 60 52 36 25 23 18 18 19 16 21
90 93 96 99 98 92 91 89 70 41 68 100 100 100 100 100 100 99 83 92 80 61 67 68 72 81 85 97 86 82 88 86 77 76 92 98 97 92 77 50 27 26 24 22 21 17 19
91 99 86 98 94 100 92 100 90 95 75 50 43 98 100 100 100 99 85 96 90 69 70 76 76 92 89 97 88 71 73 82 92 100 100 100 85 73 94 83 50 22 22 17 21 20 18
84 94 94 95 94 90 94 97 98 100 97 88 64 40 68 100 100 100 100 99 72 71 69 80 92 100 88 82 70 68 76 97 100 100 97 80 62 95 70 58 22 16 18 18 19 21 16
99 97 99 81 91 85 88 94 97 100 100 99 90 48 40 77 100 96 100 98 74 82 60 73 100 99 87 68 63 80 96 98 98 97 88 44 52 23 17 16 11 14 17 20 18 23 21
76 82 82 78 70 73 70 85 92 96 89 89 81 55 40 64 81 82 100 100 84 88 54 80 100 100 76 59 72 92 94 78 57 56 37 14 26 19 15 12 9 17 20 20 20 22 21
72 67 57 58 52 55 54 62 69 72 79 73 73 51 43 65 87 97 100 92 92 92 63 80 88 66 54 63 79 89 67 39 24 21 14 17 14 7 4 7 6 21 23 21 21 21 27
36 34 39 41 39 34 32 46 53 52 64 66 56 50 44 52 82 100 100 79 98 75 84 79 64 44 50 72 69 52 36 24 16 13 11 8 5 5 5 4 6 30 21 21 32 25 24
10 10 11 10 10 10 13 25 34 36 51 52 40 52 40 52 92 100 99 97 91 92 86 71 54 48 60 53 37 24 16 14 12 8 6 3 4 2 2 3 10 8 17 23 21 25 22
5 5 6 6 7 7 10 11 14 21 35 31 37 49 34 68 100 94 97 100 90 92 88 67 47 61 49 30 20 12 9 8 7 5 4 4 2 2 3 6 8 14 21 23 18 21 22
4 4 5 5 6 7 8 9 11 14 24 27 41 44 38 83 100 100 100 100 96 94 77 52 58 53 32 20 9 7 7 7 4 3 4 3 2 4 12 14 17 26 28 36 50 30 45
3 4 4 4 5 6 7 9 10 14 19 25 43 35 51 82 100 100 99 100 99 90 62 64 65 43 28 10 7 6 6 4 4 5 5 4 7 12 19 27 39 36 81 99 61 36 34
3 3 4 4 5 6 7 9 11 13 16 32 38 41 80 74 98 100 100 100 88 82 61 76 71 40 28 9 8 5 4 5 7 12 10 14 19 30 35 37 42 64 70 45 48 44 43
2 3 3 4 5 6 8 9 10 14 19 33 28 57 81 71 98 100 100 100 95 67 71 81 66 43 32 23 8 8 7 10 22 29 34 51 38 44 56 56 48 75 69 34 37 32 40
2 2 3 4 6 7 8 9 12 17 26 32 35 81 74 86 100 100 100 96 80 68 84 78 59 58 42 43 28 14 14 31 43 56 54 68 67 59 61 76 50 65 52 36 40 41 44
2 2 3 4 6 7 8 10 14 20 31 29 55 76 84 100 100 100 100 96 70 67 94 72 63 69 56 52 41 19 24 57 54 59 74 94 71 100 98 80 72 44 31 36 32 44 43
3 3 4 6 6 7 8 12 16 25 27 36 62 82 96 100 100 100 100 87 71 68 100 66 65 69 76 49 57 28 22 40 71 74 69 94 71 67 42 44 34 34 24 26 41 52 45
3 3 4 6 7 7 11 14 20 22 29 54 69 81 100 100 100 100 100 72 72 94 100 59 66 64 90 59 62 38 25 23 34 45 53 57 54 36 38 28 30 28 22 31 36 32 33
4 4 5 6 7 10 10 13 19 23 39 69 80 95 93 100 100 100 98 68 70 80 99 71 57 64 58 64 54 44 57 44 26 21 22 20 20 17 20 24 25 22 32 35 36 38 44
4 4 5 5 6 10 13 18 20 34 64 71 79 98 99 100 100 100 100 84 83 94 98 79 59 57 47 49 43 59 52 46 43 40 38 30 25 23 25 25 24 28 37 39 39 38 45
4 4 5 4 7 11 14 15 23 54 72 68 92 98 100 100 100 100 100 94 78 80 100 96 60 53 41 41 45 42 42 44 45 47 45 41 37 34 31 26 26 28 34 36 33 35 40
4 5 5 4 9 13 15 17 34 55 61 72 90 94 99 100 100 98 100 99 82 64 100 99 70 52 51 36 33 37 40 44 42 43 43 43 36 34 34 30 28 29 36 44 42 32 36
4 5 4 6 11 14 16 18 46 63 66 78 94 93 100 100 100 96 100 100 93 77 94 99 88 68 62 45 34 30 30 31 30 29 29 30 30 28 27 27 28 28 29 36 47 46 40
4 6 3 7 11 16 18 21 60 62 61 83 84 97 100 100 99 94 100 100 100 80 88 94 98 74 66 58 49 36 32 27 27 27 26 24 25 26 24 23 22 24 26 27 28 32 38
4 6 3 7 12 18 19 31 60 62 67 83 88 97 100 100 99 96 100 96 100 94 90 87 94 89 84 82 55 50 41 35 32 31 28 28 26 26 25 26 25 23 22 23 24 24 25

GFSGBSN_250_rhum_015.txt.gz
RH
32 62 74 71 63 59 30 16 44 79 97 100 100 100 100 100 100 90 93 83 100 63 66 59 65 56 50 39 54 44 38 38 42 41 37 36 31 26 27 24 22 22 19 19 16 14 16
29 44 84 81 66 89 62 30 30 62 100 100 100 100 100 100 100 100 100 100 94 74 70 68 68 72 58 51 43 49 52 50 50 47 44 44 35 31 31 29 26 26 22 20 21 17 15
32 46 67 84 76 84 100 72 33 33 66 95 100 100 100 100 100 100 97 100 99 86 79 68 65 79 70 52 54 49 55 57 56 58 55 47 37 36 37 38 32 32 27 24 23 22 19
33 45 65 89 90 74 85 100 82 41 41 85 100 100 100 100 100 100 100 98 100 98 86 85 73 98 100 70 54 47 52 62 60 55 60 52 39 38 46 59 67 51 31 29 34 29 23
30 36 65 74 89 86 89 87 94 98 74 51 98 100 100 100 100 100 100 100 100 88 88 76 86 98 100 83 60 53 55 67 66 61 61 58 48 51 55 50 54 43 34 31 33 32 22
26 34 46 72 82 88 82 96 83 92 87 91 51 60 87 100 100 100 97 96 100 100 100 83 81 99 100 92 82 70 74 77 76 72 70 74 62 61 59 64 74 83 55 31 35 36 23
30 40 47 51 55 71 83 85 86 82 87 88 77 83 60 46 50 71 100 100 100 100 100 86 100 100 89 80 75 68 69 75 71 80 88 71 61 65 80 88 83 72 55 43 38 35 21
40 42 56 60 60 68 69 88 98 90 96 92 89 99 83 91 84 77 68 68 100 100 100 99 94 100 98 92 81 67 65 70 79 85 82 76 77 92 86 72 65 55 47 49 45 35 24
44 46 48 53 51 63 64 70 78 83 86 92 98 88 90 92 90 95 87 73 52 83 96 100 100 100 100 78 68 76 65 77 85 71 74 72 76 91 74 68 67 66 50 61 55 38 28
64 67 65 54 48 50 49 57 64 71 70 76 77 78 81 80 92 98 88 76 49 43 80 97 100 100 100 87 83 67 72 75 75 64 66 63 88 88 72 65 66 45 61 57 50 44 26
53 50 45 53 56 49 44 45 50 63 72 66 70 78 74 84 91 88 86 80 50 37 65 100 96 100 100 100 88 81 81 77 63 70 58 63 75 61 46 63 31 33 32 42 38 42 31
29 25 18 17 22 32 45 46 43 45 75 70 66 70 67 80 82 92 85 73 51 46 80 71 91 100 98 81 66 70 75 57 53 42 36 35 27 25 24 25 18 30 24 29 27 41 20
10 6 5 5 6 9 16 28 33 37 42 54 65 68 61 69 71 82 78 59 46 87 82 84 98 87 73 65 68 67 43 37 36 27 18 14 13 15 15 14 15 12 17 21 21 26 30
4 4 4 4 5 5 6 8 14 28 35 46 48 60 57 57 66 71 65 51 51 91 76 92 83 78 64 71 68 39 34 26 17 11 8 9 9 8 7 7 7 9 15 16 24 49 43
4 3 3 3 3 4 5 7 8 10 16 26 35 33 35 36 59 64 49 48 80 73 99 94 97 79 88 69 34 30 20 10 8 8 8 7 7 5 3 2 3 7 9 24 55 73 42
3 3 2 2 3 3 4 5 7 8 10 12 14 16 23 43 51 46 51 72 81 96 100 100 89 92 77 38 29 25 10 8 9 8 6 5 5 3 3 3 4 8 18 23 51 66 59
2 2 2 2 3 4 4 5 7 9 10 12 13 15 26 39 38 43 70 80 96 100 100 94 97 81 59 32 32 16 6 9 7 4 4 4 5 4 3 5 11 12 22 52 97 100 52
2 2 2 2 3 4 4 5 6 8 9 11 13 18 28 30 38 72 85 94 100 99 100 100 79 83 40 35 17 12 12 10 6 5 8 14 12 8 21 26 41 54 97 100 100 100 40
2 2 2 2 3 4 5 5 7 8 9 11 13 20 24 33 53 88 85 100 99 100 100 85 96 65 33 43 37 26 17 11 18 45 85 98 94 100 100 92 94 87 94 100 100 100 38
2 2 2 3 3 4 6 6 7 8 10 12 16 22 28 44 89 83 100 100 100 100 100 66 99 54 62 63 55 29 22 31 67 74 100 100 100 100 100 100 100 100 100 100 100 100 43
2 2 3 3 4 5 6 6 7 8 11 15 19 27 47 87 76 100 100 100 100 100 88 84 97 49 99 98 78 49 34 43 50 98 100 100 100 100 100 100 100 99 100 100 100 100 41
2 2 3 4 4 5 7 7 8 10 15 22 34 31 68 70 100 100 100 100 100 100 73 98 93 60 100 100 97 81 61 49 59 75 98 100 100 100 100 100 100 100 100 93 53 28 28
2 2 4 5 5 6 7 9 9 12 21 34 36 49 68 96 100 100 100 84 100 97 84 97 93 75 92 100 100 100 67 49 47 54 51 93 98 100 85 100 94 86 65 50 31 26 22
2 2 4 5 6 7 8 8 11 17 24 34 40 63 77 96 100 100 99 85 100 100 91 92 85 93 95 95 96 95 99 63 41 40 36 42 59 67 70 76 79 66 32 28 25 22 22
2 3 4 5 6 7 6 10 16 28 31 35 54 67 100 100 100 100 96 100 100 100 100 99 87 70 96 94 99 73 100 100 77 42 41 29 35 68 65 55 45 37 30 23 21 19 35
2 3 4 5 5 6 8 15 25 29 28 41 61 89 99 100 100 100 100 100 97 100 100 98 99 67 57 60 78 80 73 73 96 86 73 56 51 63 64 68 51 40 31 28 23 32 44
3 3 4 5 6 6 12 19 24 25 23 51 77 91 100 100 100 100 100 100 99 95 100 100 100 84 55 41 42 56 54 56 54 53 55 61 54 47 44 43 46 39 27 24 28 43 53
3 3 4 6 5 6 14 20 28 21 38 56 80 93 100 100 100 99 100 100 100 97 98 99 99 93 68 56 45 36 41 43 50 55 54 51 50 43 40 32 35 29 27 25 30 41 52
3 3 5 6 4 8 15 23 21 26 53 62 81 98 100 100 100 100 100 100 100 100 87 96 100 100 94 60 61 42 33 33 32 34 38 40 38 39 36 33 31 31 28 26 27 33 41

GFSGBSN_250_rhum_018.txt.gz
RH
12 14 16 23 25 34 44 78 70 60 24 14 31 56 84 100 100 100 100 100 100 100 100 99 100 100 78 60 59 72 61 49 45 41 54 47 35 29 30 32 30 28 28 27 28 24 23
10 13 15 20 28 35 52 76 75 70 29 18 31 56 99 100 100 100 100 100 100 100 100 100 100 100 91 56 67 74 69 63 48 49 42 48 46 38 34 34 31 30 26 22 23 26 24
10 12 13 20 28 38 59 76 79 79 61 29 29 51 87 100 100 100 100 100 100 100 100 100 100 100 100 99 82 86 89 72 72 58 45 38 40 38 38 38 37 35 29 25 23 25 25
9 11 13 18 27 47 66 75 86 77 81 49 30 40 67 100 100 100 100 100 100 100 100 100 100 100 100 85 94 78 85 72 70 81 70 42 40 41 43 44 44 39 30 30 31 30 28
11 15 16 19 27 37 60 82 88 86 79 85 57 35 53 88 99 100 100 100 100 100 100 100 100 100 100 100 89 79 100 81 86 74 77 52 46 42 46 48 52 46 38 40 43 51 35
14 18 23 27 30 33 52 63 75 95 88 80 92 86 49 46 74 98 100 100 100 100 100 100 100 100 100 100 77 61 84 98 93 91 67 55 48 45 49 63 74 54 42 43 53 65 40
23 29 38 35 38 37 47 54 67 76 83 84 83 86 98 70 50 61 98 100 93 100 100 100 100 100 100 100 100 59 88 95 83 87 81 52 58 63 69 58 62 52 48 54 54 54 56
27 29 33 36 38 38 43 51 54 57 70 82 80 82 79 93 96 63 64 89 88 93 100 100 100 100 100 100 100 98 67 80 70 83 75 54 50 62 59 64 79 60 53 67 71 74 74
39 40 37 36 32 36 41 40 48 60 63 61 77 82 78 79 82 93 90 85 71 60 58 67 87 100 100 100 100 100 91 79 79 68 69 56 59 71 62 69 82 69 60 74 81 82 59
28 31 31 33 36 36 30 34 38 46 55 61 68 72 75 78 83 89 90 83 84 86 90 100 100 97 82 76 90 100 96 84 77 76 65 59 90 78 64 74 83 66 69 71 71 77 49
22 20 22 21 20 24 28 37 33 38 50 60 60 69 69 80 80 81 78 85 81 82 76 100 98 90 81 58 67 93 73 66 66 62 54 60 66 59 55 94 60 58 57 53 56 57 50
16 14 8 7 7 7 8 12 28 38 38 43 52 61 65 67 85 76 78 84 77 79 89 100 97 81 64 66 82 89 85 76 64 54 51 56 58 57 61 65 49 46 55 42 41 45 31
10 6 4 4 4 4 5 5 8 23 40 49 38 55 64 69 66 68 67 74 76 79 98 98 85 69 61 78 92 93 88 81 64 52 49 48 52 47 44 39 38 36 43 39 41 36 20
6 4 4 3 3 3 4 5 6 8 17 20 51 48 55 61 71 72 71 82 72 95 98 83 75 66 87 91 94 79 61 51 50 49 41 29 22 26 28 22 21 19 17 16 16 15 22
4 4 3 2 2 2 3 4 5 6 9 12 19 36 54 72 72 61 75 82 96 100 92 79 60 60 93 91 73 57 50 51 39 26 24 27 17 11 10 10 8 9 8 15 12 16 24
4 3 2 2 2 2 2 3 4 5 7 10 13 31 41 65 72 65 69 80 100 96 71 70 58 97 81 67 55 52 41 28 29 24 16 11 11 10 9 8 8 9 9 6 12 18 25
4 2 2 2 2 2 2 2 3 4 6 9 12 16 30 45 60 56 68 88 94 66 74 61 100 74 86 63 50 40 36 33 23 11 9 8 8 7 6 4 5 6 10 12 16 28 65
3 2 2 2 2 2 2 3 3 5 5 9 11 9 13 28 34 53 65 81 62 73 74 100 78 94 81 62 43 42 20 18 12 9 7 12 10 6 7 7 7 14 15 23 62 89 64
3 2 2 2 2 2 3 3 4 6 7 10 11 14 11 19 30 45 47 52 70 88 100 85 100 100 79 51 45 50 35 22 25 50 52 42 26 56 38 44 26 29 28 27 68 100 100
3 2 2 2 2 3 3 4 5 6 6 9 11 13 14 18 26 30 41 66 88 99 93 100 100 96 53 37 81 60 39 62 84 100 100 100 100 100 100 100 100 83 63 65 87 100 100
3 2 2 2 3 3 3 4 6 7 8 10 12 16 25 41 41 37 72 85 85 99 98 100 98 85 58 100 96 96 55 88 100 100 100 100 100 100 100 100 100 100 100 100 100 100 100
3 2 2 2 3 4 4 5 6 7 9 11 15 21 31 28 37 82 87 72 89 100 100 100 91 90 73 98 100 79 78 80 91 100 100 100 100 100 100 100 100 100 100 100 100 100 100
3 3 2 2 4 5 5 5 6 8 10 12 19 26 24 39 72 81 72 91 100 100 100 97 100 83 79 100 100 98 83 84 80 100 100 100 100 100 100 100 100 100 100 100 100 100 79
3 3 2 3 5 5 6 7 8 10 12 15 20 25 38 74 79 66 81 91 100 98 100 100 99 86 82 100 100 100 90 79 81 97 100 100 100 100 100 100 100 100 100 100 99 79 100
3 3 3 3 5 5 7 8 10 10 13 17 29 38 66 90 66 68 73 100 100 100 100 100 97 85 86 100 100 100 100 94 72 72 80 96 100 100 100 100 100 100 100 81 82 75 57
3 4 3 3 5 5 8 9 12 11 13 23 39 56 98 90 65 64 98 100 100 95 98 100 100 99 77 87 95 100 100 100 95 66 72 87 98 84 82 83 86 75 68 63 49 45 41
3 4 3 3 5 6 9 11 11 12 17 27 49 85 97 82 67 82 100 100 100 100 85 100 100 100 85 68 79 97 89 97 92 82 77 76 73 98 91 69 65 50 42 50 42 35 36
3 4 3 3 5 7 11 10 12 16 20 32 68 90 91 76 70 94 100 100 100 100 83 94 99 100 99 79 68 78 78 91 79 74 71 74 76 81 76 87 79 60 60 57 53 60 62
3 3 3 3 6 8 11 10 15 22 26 44 77 88 80 72 74 99 100 100 100 100 87 84 95 100 100 78 53 56 70 72 64 74 82 73 59 57 61 67 65 59 56 54 52 50 34

GFSGBSN_250_rhum_021.txt.gz
RH
8 8 9 9 10 12 14 16 22 28 33 42 71 87 63 57 35 16 15 54 100 100 100 100 100 100 100 98 80 100 100 78 60 54 55 52 46 43 40 43 39 24 22 23 31 29 25
7 7 7 8 9 11 14 16 22 30 40 67 88 85 62 51 19 17 50 99 100 100 100 100 100 100 100 99 99 100 100 96 78 62 56 60 53 47 47 45 42 40 32 29 28 32 31
7 7 7 8 9 11 14 15 19 30 48 75 100 92 69 41 16 26 75 100 100 100 100 100 100 100 100 99 100 100 100 100 93 84 76 78 70 51 51 50 41 39 40 35 33 34 30
8 9 12 13 12 17 17 18 25 30 46 76 100 94 75 44 23 42 83 100 100 100 100 100 100 100 100 100 100 100 100 100 100 100 91 89 65 54 53 47 48 38 37 37 41 35 32
13 21 24 25 29 24 28 29 24 35 52 74 100 100 87 64 28 51 78 100 100 100 100 100 100 100 100 100 100 100 100 100 100 100 99 86 65 62 62 64 54 53 43 39 40 32 30
13 19 25 31 32 36 42 45 41 32 43 69 82 100 98 72 44 34 80 93 100 100 100 100 100 100 100 100 100 100 100 100 99 100 100 78 64 62 76 86 61 47 40 41 41 40 34
18 22 27 27 31 40 33 39 55 52 39 51 82 90 100 96 73 33 37 87 98 100 100 100 100 100 100 100 100 100 100 100 92 90 78 68 56 70 66 59 48 51 47 48 50 48 46
17 28 34 44 45 34 30 35 34 47 57 46 58 85 100 100 95 76 45 47 77 78 99 100 100 100 100 100 99 96 91 83 100 100 96 74 64 76 63 60 60 62 57 51 52 50 44
16 26 29 35 39 46 48 43 31 34 41 55 53 56 88 100 100 91 85 69 46 61 86 99 97 94 82 78 93 90 73 80 82 94 98 86 95 97 79 64 48 55 55 52 56 52 43
12 25 24 24 21 17 17 19 27 26 32 40 62 56 64 82 95 100 99 86 78 62 47 59 59 74 73 74 87 93 88 96 98 96 85 76 100 82 64 58 57 54 56 46 52 51 45
12 20 18 12 8 6 6 7 10 15 20 30 40 61 62 62 99 100 98 89 94 87 70 78 81 80 89 93 92 89 85 82 81 70 59 63 83 71 59 69 52 52 53 44 51 50 46
12 14 10 5 4 4 4 5 5 6 10 21 37 41 57 66 80 89 85 96 96 83 78 85 98 98 95 95 91 89 92 90 78 59 51 49 52 52 60 67 50 48 55 52 52 50 30
11 10 5 4 4 3 3 4 4 5 6 13 27 38 45 63 93 96 78 87 89 86 98 100 100 100 100 96 90 88 84 71 59 39 34 39 47 53 57 61 56 51 50 44 39 33 19
9 8 4 3 2 2 2 2 3 4 5 7 16 32 45 52 81 84 97 91 85 97 100 100 96 92 100 99 100 94 77 74 48 28 28 40 47 52 54 43 37 36 39 36 34 28 22
9 6 3 2 2 2 2 2 2 3 4 6 9 24 46 43 59 68 78 94 97 100 100 98 90 94 92 94 90 75 72 45 40 52 50 41 41 42 38 38 35 34 33 37 23 20 22
9 4 3 2 2 2 2 2 2 2 3 5 8 14 36 34 56 63 72 78 89 100 98 84 99 100 100 93 80 69 43 50 58 49 42 39 32 28 25 16 13 12 13 10 7 6 7
9 4 3 2 2 2 2 2 2 2 3 5 7 8 24 24 52 65 86 83 89 96 81 96 100 100 96 85 67 59 55 48 40 42 30 22 19 12 10 7 6 7 7 8 6 8 10
9 4 3 2 2 2 2 3 3 3 4 6 6 11 19 15 27 60 88 92 95 85 78 100 100 100 80 69 61 55 53 52 49 40 27 19 14 11 9 8 6 5 4 6 8 9 8
9 4 3 2 2 2 2 3 3 4 5 5 8 11 14 10 19 55 76 99 84 76 87 100 100 80 73 58 60 65 60 63 73 63 39 28 19 14 21 12 10 8 9 8 8 8 8
9 4 3 2 2 2 3 3 3 4 6 8 8 7 7 11 16 26 46 62 79 76 99 100 84 81 59 64 73 100 100 77 96 91 76 89 100 88 87 99 81 49 28 20 23 21 23
8 4 3 2 2 3 3 4 4 5 7 8 8 10 21 33 31 31 37 51 60 83 100 87 84 69 76 75 79 98 96 85 100 100 100 100 100 100 100 100 100 100 97 62 57 58 78
7 4 3 2 2 3 4 5 5 6 7 9 14 19 21 13 13 23 37 51 66 88 82 87 77 76 90 72 100 95 73 61 96 100 100 100 100 100 100 100 100 100 100 100 100 100 100
7 5 4 3 2 4 4 5 6 7 8 10 13 14 13 13 21 27 36 49 76 80 92 81 66 86 93 86 99 91 82 91 97 100 100 100 100 100 100 100 100 100 100 100 100 100 100
6 5 4 3 2 5 5 7 7 9 10 9 9 10 13 18 23 24 50 87 80 90 68 85 80 93 98 100 100 100 90 80 79 100 100 100 100 100 100 100 100 100 100 99 85 100 99
6 5 4 3 3 5 6 8 9 10 9 9 11 13 16 25 30 63 92 85 77 90 75 99 87 94 83 100 100 100 98 74 91 84 100 100 100 100 100 100 100 100 100 100 100 100 100
6 6 4 3 3 5 6 8 10 10 10 11 12 18 29 41 67 84 89 73 95 100 76 100 95 99 68 88 100 100 100 100 94 76 85 99 87 90 100 100 100 100 100 100 100 100 100
5 6 4 4 4 4 7 9 12 11 11 14 15 26 38 60 85 88 100 86 100 100 77 97 93 98 99 89 97 100 100 100 100 80 84 73 82 82 98 95 100 97 97 100 100 100 96
5 5 4 4 4 4 7 10 12 13 12 15 19 30 50 76 77 95 97 98 100 100 91 95 98 98 100 100 80 87 94 100 100 100 100 89 95 86 78 75 72 74 72 68 65 70 69
5 5 3 4 4 4 7 9 11 13 13 15 17 40 55 76 81 100 96 94 98 100 100 89 96 97 96 96 97 82 78 83 88 100 100 100 92 100 100 99 89 84 79 73 71 71 72

GFSGBSN_250_rhum_024.txt.gz
RH
8 8 6 6 8 8 11 12 12 13 16 17 17 20 25 32 34 45 45 68 100 84 74 72 73 75 86 96 97 98 82 73 74 88 94 80 76 53 44 44 43 36 36 33 40 32 23
8 8 7 8 11 11 12 12 12 13 15 15 16 19 25 32 35 45 52 74 97 87 83 80 75 67 53 78 100 100 100 80 83 91 99 100 93 79 61 47 42 45 44 42 40 49 34
9 8 8 10 15 18 18 21 19 16 16 17 18 22 30 36 42 63 79 83 92 88 74 68 43 29 64 100 100 100 100 99 80 86 88 100 100 97 76 64 55 54 48 45 46 42 42
10 10 11 14 18 20 24 24 31 31 32 25 21 26 30 38 62 82 90 95 84 67 49 26 25 64 100 100 100 100 100 100 99 87 84 100 100 100 95 78 64 62 53 47 48 44 40
10 10 9 16 24 30 27 28 33 40 45 44 38 28 44 50 87 99 100 89 65 40 18 30 66 100 100 100 100 100 100 100 100 92 65 88 100 100 100 100 84 84 62 49 44 44 40
11 12 10 12 23 28 37 36 31 40 48 53 58 45 38 56 88 100 99 84 57 27 24 64 100 100 100 100 100 100 100 100 100 100 98 87 91 100 100 100 98 80 57 51 49 56 44
12 12 11 20 28 36 35 31 37 31 37 47 61 63 55 49 77 100 100 94 66 30 41 65 100 100 100 100 100 100 100 100 100 100 100 100 82 100 100 100 91 63 58 59 52 56 48
10 12 12 17 28 39 38 34 36 32 31 31 45 60 71 61 59 99 100 100 78 40 48 68 100 100 100 100 100 100 100 100 100 100 99 100 100 100 100 90 79 70 77 66 52 54 46
9 11 10 9 18 26 22 16 16 20 23 28 27 43 60 75 72 70 100 99 84 54 41 76 98 96 100 100 100 100 100 100 100 100 100 100 97 82 66 70 71 61 54 47 41 49 52
8 9 8 7 14 17 8 6 6 6 9 14 23 33 43 61 73 72 92 100 92 81 40 59 80 100 93 94 96 98 100 100 100 97 65 57 73 72 70 59 71 75 76 69 56 44 46
7 7 6 6 13 8 5 4 4 4 5 7 8 21 35 46 58 80 94 100 100 100 78 53 48 92 89 96 97 85 78 72 70 70 67 71 73 68 55 66 56 59 80 63 52 49 38
6 6 5 8 11 5 3 2 2 2 3 5 6 10 26 36 50 82 88 85 100 98 94 87 77 64 67 76 82 87 92 81 78 70 66 70 61 62 70 74 65 58 61 64 50 40 26
6 6 4 8 6 3 2 2 2 2 2 4 5 7 14 30 40 78 83 93 86 94 100 100 100 96 82 72 76 77 76 76 75 75 80 91 100 92 87 78 52 32 25 25 22 20 20
6 6 4 9 4 2 2 2 2 2 2 3 4 7 10 26 37 63 78 72 74 100 100 100 100 100 100 99 100 100 100 95 96 100 98 86 76 68 58 36 24 26 27 24 24 24 23
6 6 5 9 4 2 2 1 1 2 2 3 4 6 8 22 34 46 86 76 92 100 100 100 100 100 100 100 100 97 99 100 97 90 74 64 54 37 36 45 45 41 30 32 19 19 19
6 6 6 9 4 2 2 1 2 2 2 3 4 6 8 16 29 46 84 88 94 100 100 100 100 100 100 100 100 100 100 100 87 67 53 41 44 44 37 32 29 24 26 25 20 14 12
6 6 7 8 4 2 2 2 2 3 3 3 4 7 9 16 27 37 87 87 100 100 100 100 100 100 100 100 100 100 99 74 60 48 43 41 39 35 30 26 17 11 9 8 7 8 6
6 6 9 7 4 2 2 3 3 3 3 3 5 7 11 15 20 32 93 93 100 100 100 94 100 100 100 100 100 94 71 63 50 52 66 58 54 61 34 25 16 10 5 4 4 4 4
6 6 8 7 4 2 2 3 3 4 3 4 5 7 10 12 15 42 85 80 92 91 91 100 100 100 100 100 93 71 65 56 63 91 100 100 100 90 64 62 39 20 8 5 4 4 4
6 6 8 7 4 2 3 3 2 4 3 4 7 8 9 10 15 34 61 78 92 88 90 100 100 100 100 97 71 70 63 72 88 100 99 100 100 100 91 92 64 31 20 11 9 9 8
6 6 8 7 4 2 3 3 3 4 4 5 8 8 10 12 17 22 50 72 82 78 92 95 100 100 100 65 74 74 96 98 89 93 100 100 100 100 100 100 100 86 55 40 29 22 13
7 6 9 6 4 3 3 3 5 6 5 5 8 11 12 12 14 26 39 60 94 100 100 100 100 99 68 76 74 100 90 99 80 81 97 100 100 100 100 100 100 100 99 97 83 67 47
7 6 10 6 4 3 3 4 6 6 7 7 10 12 12 13 18 23 38 54 82 97 100 100 99 76 68 79 90 84 99 100 74 70 100 100 100 100 100 100 100 100 100 99 91 86 61
8 6 11 6 4 3 4 5 6 7 8 9 10 12 13 16 19 21 24 26 36 62 99 98 84 66 70 83 94 93 100 93 69 100 100 100 100 100 100 100 100 100 100 100 95 100 92
8 6 12 6 4 3 4 5 7 8 8 10 11 12 11 12 17 26 34 31 38 59 96 86 66 68 86 83 82 92 100 85 80 89 100 100 100 100 100 100 100 89 100 100 100 89 100
9 7 12 6 4 4 4 5 7 9 10 11 12 13 17 23 24 28 40 41 56 83 82 67 70 73 83 76 100 100 98 84 81 99 100 90 96 100 100 100 100 100 100 100 100 100 94
9 8 13 6 4 4 4 5 7 9 11 15 16 17 23 26 28 38 48 64 69 70 73 72 76 74 77 83 100 100 100 100 94 88 84 80 98 100 100 100 100 100 96 100 100 100 99
9 8 14 6 4 4 4 5 8 9 12 15 19 19 23 24 31 38 57 71 74 72 84 92 93 91 78 80 95 99 100 100 100 100 89 76 87 100 100 100 100 100 100 100 92 95 94
9 11 13 6 5 5 5 5 8 11 13 16 20 24 25 32 40 56 73 82 67 78 95 100 94 91 86 90 84 78 78 85 90 97 100 89 82 99 92 96 100 100 100 94 85 85 83

GFSGBSN_250_rhum_027.txt.gz
RH
7 7 7 8 8 8 9 11 16 17 17 16 23 30 45 56 50 55 58 55 50 49 54 72 100 92 82 80 83 83 83 87 92 97 89 62 55 75 82 53 52 53 47 46 43 38 32
7 8 9 10 10 9 12 15 24 27 26 24 20 17 18 26 26 32 31 43 42 31 35 49 69 100 100 90 84 89 85 86 88 79 87 90 70 58 79 78 62 69 58 50 48 46 40
7 9 9 11 11 11 12 17 21 27 34 37 31 27 18 17 19 21 23 30 27 25 33 46 60 82 100 100 88 92 91 84 85 89 86 89 77 60 64 84 86 92 91 63 53 48 44
6 8 9 10 11 12 14 18 24 29 29 37 40 38 29 22 18 17 21 20 25 29 41 48 71 88 100 100 100 100 99 94 98 99 100 100 96 65 64 83 96 90 86 85 68 55 45
6 8 10 10 11 10 13 18 31 31 33 35 44 46 45 38 24 22 22 24 28 40 46 59 76 90 97 100 97 100 100 100 100 100 100 100 97 75 70 74 85 100 100 97 90 72 66
7 8 10 11 12 11 12 17 24 35 37 34 37 48 54 56 43 31 27 33 37 55 70 92 100 89 96 100 100 100 97 95 100 100 98 96 96 98 92 80 85 95 100 100 100 100 83
7 7 10 11 12 12 20 28 32 30 30 31 34 34 52 52 59 37 34 39 56 85 100 100 100 98 96 95 95 88 86 90 97 98 100 99 99 100 100 94 83 66 75 100 100 100 98
6 6 8 9 9 8 15 17 16 11 11 14 19 27 37 55 52 54 34 55 66 100 94 88 99 85 59 50 50 46 69 92 100 100 100 100 100 100 100 100 88 75 70 84 91 100 87
6 6 7 8 8 10 12 9 6 5 4 5 7 8 27 42 44 50 55 71 73 98 78 87 99 72 38 27 44 70 87 100 100 100 100 100 100 99 93 93 86 86 73 74 67 74 58
6 5 6 7 6 10 7 4 4 3 2 3 4 5 8 32 41 49 58 60 88 88 82 88 87 61 33 30 62 91 94 100 100 100 100 99 93 82 80 88 94 87 97 80 58 55 57
6 5 6 7 5 8 4 3 2 2 2 2 2 3 6 13 30 43 59 72 74 84 78 83 80 59 50 47 95 84 88 95 100 100 100 100 100 100 100 100 82 74 66 61 50 45 39
6 5 6 7 5 6 3 3 2 2 2 2 2 3 5 8 20 44 53 80 60 68 88 92 79 61 53 76 94 82 89 90 90 93 96 93 90 96 87 77 62 54 53 53 53 50 34
6 5 7 7 5 6 3 2 2 2 2 2 2 2 5 8 16 38 50 64 47 64 100 100 93 74 61 61 92 95 98 99 93 86 86 83 78 67 67 60 58 59 64 60 52 44 32
6 5 6 7 5 6 3 2 2 2 2 2 2 3 5 8 12 25 47 50 59 95 98 100 100 92 79 76 74 79 92 94 91 92 84 81 84 77 75 77 84 67 54 53 43 40 34
7 5 7 7 6 4 3 2 2 3 2 2 2 3 5 8 10 17 44 53 83 98 97 100 100 100 94 99 100 98 97 94 95 95 97 100 98 99 79 83 71 72 63 49 26 20 18
7 5 7 6 6 4 3 2 2 3 3 2 2 3 5 7 10 20 38 60 100 92 100 98 100 100 100 100 100 100 100 100 100 100 99 100 99 77 70 60 46 39 32 28 23 15 12
7 5 7 6 6 4 3 2 3 3 3 2 3 3 6 8 11 17 36 68 93 92 94 96 97 100 100 100 100 100 100 100 100 100 100 84 64 55 48 42 32 26 25 17 12 12 9
7 5 6 6 6 4 3 2 3 3 2 3 3 4 6 8 10 14 42 68 91 98 95 100 100 100 100 100 100 100 100 100 100 96 85 59 50 65 64 70 75 63 44 23 9 5 4
7 5 6 6 6 4 3 2 4 3 3 3 3 4 6 8 9 17 44 77 87 100 98 95 100 100 100 100 100 100 100 100 90 79 64 68 80 83 84 84 86 53 43 22 12 7 4
7 5 7 6 7 4 3 2 4 3 3 3 3 5 6 9 13 26 50 73 92 100 100 99 100 100 100 100 100 100 100 83 75 66 73 75 98 90 80 79 62 76 68 36 21 13 9
7 5 7 7 7 4 3 3 4 4 4 4 4 6 8 11 16 27 45 66 81 100 100 100 100 100 100 100 100 99 86 74 68 72 92 99 84 70 82 71 90 94 87 66 39 16 10
7 6 7 7 8 5 3 3 4 4 5 5 5 7 9 10 12 20 44 89 91 100 100 98 100 100 100 100 99 87 78 66 76 99 100 92 71 89 100 100 99 99 99 91 64 50 33
8 6 7 8 10 5 3 4 5 5 6 6 7 9 10 11 13 21 42 66 93 100 100 100 100 100 100 95 88 82 72 74 96 100 97 93 71 100 100 94 100 100 100 100 77 66 66
8 7 7 8 14 7 4 4 6 7 6 8 7 8 10 13 18 21 36 68 96 99 100 100 100 100 100 88 91 74 68 89 99 100 90 95 90 100 100 100 100 100 100 100 100 94 100
9 8 7 8 14 8 5 5 6 8 7 8 8 8 10 13 19 25 33 56 88 95 100 100 100 100 84 91 78 80 66 95 100 100 82 96 80 100 100 100 100 100 98 100 89 98 100
9 9 9 8 13 10 6 5 5 8 9 9 10 10 12 14 16 22 31 39 58 90 96 100 100 90 76 81 85 73 66 93 100 85 66 77 98 100 96 100 95 100 100 100 100 100 100
10 10 10 9 11 12 7 5 6 8 10 10 12 13 14 18 19 19 22 32 45 60 79 100 88 77 77 74 85 68 63 100 100 86 70 81 97 100 92 100 100 100 100 100 100 94 100
10 11 11 10 12 11 7 5 6 9 11 11 12 13 17 18 19 21 24 27 35 48 65 75 79 79 67 91 70 74 86 99 100 91 88 89 97 100 81 100 100 93 100 100 100 100 98
11 11 11 10 16 10 6 5 6 9 12 12 15 16 15 18 26 32 33 37 42 47 57 73 68 68 92 74 64 74 84 100 100 100 100 99 98 100 93 78 84 100 90 100 100 100 100

GFSGBSN_250_rhum_030.txt.gz
RH
9 8 8 8 8 9 10 9 8 9 12 14 16 16 17 30 54 67 63 70 84 94 100 96 95 100 100 96 98 90 75 80 94 100 100 100 100 98 81 62 59 71 80 57 57 55 42
10 9 8 8 8 10 10 10 9 9 13 16 19 24 22 21 40 69 79 81 69 66 78 94 92 93 100 100 100 98 86 79 77 89 99 100 100 100 100 81 61 66 76 74 58 64 62
11 9 9 8 9 10 10 9 9 11 12 19 19 27 28 29 26 31 50 76 59 73 69 89 78 74 83 95 100 100 96 86 81 80 83 100 100 100 100 89 67 64 62 73 76 63 79
12 10 9 9 9 9 10 10 10 12 16 17 21 23 32 35 42 32 23 27 34 52 57 60 74 76 59 69 78 100 100 97 93 92 92 97 97 97 91 88 83 62 62 66 75 82 76
12 10 9 9 10 11 11 10 11 20 24 24 25 32 27 34 37 41 36 28 22 30 45 78 69 82 55 58 63 86 100 100 100 100 99 98 100 97 93 91 85 80 67 56 64 71 87
11 10 9 8 9 10 12 13 15 22 30 24 30 27 35 34 37 37 40 34 24 21 25 41 61 46 46 44 36 66 83 100 100 100 100 100 95 95 97 89 87 80 73 71 57 62 82
11 9 8 8 8 7 9 9 15 18 20 16 9 12 20 34 42 44 41 30 29 24 38 44 38 36 39 44 46 48 77 97 100 100 100 100 100 100 97 95 90 88 89 85 84 71 72
11 9 8 8 7 7 8 8 11 8 6 6 5 6 8 14 36 46 40 39 68 36 32 24 32 38 42 50 55 65 89 99 100 100 100 100 100 100 100 100 96 94 94 88 95 90 70
11 9 8 7 6 6 7 7 7 4 4 3 3 3 4 6 14 38 37 62 71 52 54 47 54 63 68 73 74 83 91 97 92 98 100 100 100 100 100 99 100 100 85 100 89 82 78
11 9 8 7 5 6 6 6 4 3 2 2 2 2 2 4 8 20 49 68 71 54 50 54 74 72 79 94 88 92 96 99 96 100 100 100 100 100 100 100 96 81 83 87 86 83 79
12 9 7 6 5 6 5 6 3 2 2 2 2 2 2 3 6 13 47 69 76 50 40 46 65 82 100 100 99 100 97 96 100 100 100 100 100 100 100 91 77 88 87 83 70 66 63
11 8 7 6 5 5 5 4 2 2 2 2 2 2 2 3 6 10 40 60 65 36 43 50 84 90 100 100 97 88 66 49 56 71 79 79 77 85 85 82 86 86 80 74 69 60 45
10 8 7 6 6 5 5 3 2 2 2 2 2 2 2 3 4 9 31 54 42 42 63 68 99 100 100 99 84 71 48 51 64 60 67 66 84 91 99 94 84 76 71 64 56 50 42
10 8 6 6 6 5 5 2 2 2 2 2 2 2 2 3 4 8 26 50 36 69 73 85 98 97 100 96 73 50 62 59 61 74 86 97 100 100 90 76 66 63 66 63 52 56 54
10 8 6 6 5 5 4 2 2 2 2 2 2 2 2 3 5 10 24 39 45 95 84 92 95 98 92 84 54 49 50 58 77 94 100 100 100 83 82 75 77 81 91 76 60 51 38
10 7 6 6 5 6 4 2 2 2 2 2 2 2 2 3 6 9 19 42 59 81 79 85 88 90 96 82 66 61 66 74 90 99 99 98 100 93 82 99 88 73 62 61 53 38 32
10 8 6 6 6 6 4 2 2 2 2 3 2 2 3 4 6 10 18 48 74 66 76 87 86 96 100 96 85 89 95 96 100 100 100 100 100 100 93 82 70 67 56 49 54 48 24
10 8 6 6 6 6 4 2 2 3 3 2 2 3 4 6 8 11 24 60 72 60 86 95 98 100 100 100 100 96 99 100 100 100 100 100 98 80 76 62 56 62 65 58 40 24 14
10 8 6 5 6 6 4 2 2 3 3 2 3 4 4 6 10 18 44 74 64 74 96 100 100 100 100 100 95 98 99 96 98 100 96 92 75 64 55 70 71 71 76 79 80 45 11
10 8 6 5 7 6 5 2 3 4 3 3 4 5 6 8 10 19 43 58 64 81 100 100 100 100 100 100 100 100 99 100 96 98 95 75 57 65 96 73 68 93 100 100 94 52 29
10 8 6 5 7 7 6 3 3 4 4 4 5 5 7 9 10 17 41 56 76 94 100 100 100 100 100 100 100 99 99 97 96 88 65 59 62 100 76 69 71 94 100 96 99 69 36
10 8 6 6 7 7 7 3 3 5 6 5 6 6 8 10 12 18 36 57 91 95 100 96 96 100 100 100 99 97 91 98 83 64 70 64 99 81 64 72 93 100 96 95 78 65 58
10 9 6 7 8 7 8 5 3 5 7 7 7 9 9 10 13 23 47 64 96 100 100 100 100 100 95 100 100 91 99 81 67 74 86 89 96 80 96 66 71 100 96 100 100 82 79
10 9 7 8 9 8 9 6 4 4 7 8 8 10 10 12 16 24 50 64 96 100 100 100 100 100 100 100 93 88 84 71 74 67 100 100 100 80 96 83 100 99 100 100 100 100 96
10 9 8 9 11 10 11 7 5 4 7 8 10 11 12 13 17 29 45 65 88 100 100 100 100 100 100 92 84 78 76 61 73 69 100 100 100 82 90 100 90 88 100 92 100 100 100
10 10 8 11 12 11 13 9 6 5 7 9 10 12 12 13 15 28 45 64 81 100 100 100 100 100 94 85 76 78 70 71 68 90 99 100 98 81 100 90 100 100 91 100 100 100 100
9 10 9 13 11 12 14 9 6 5 6 10 10 12 14 14 17 20 38 59 96 98 100 100 100 100 90 84 77 79 68 72 83 93 100 100 90 77 100 81 100 97 96 90 100 100 100
8 11 9 13 12 11 16 8 6 6 5 9 10 12 14 16 16 21 30 44 71 95 95 97 100 100 96 86 81 75 76 65 79 93 100 96 74 80 100 100 100 93 100 97 100 92 100
8 10 10 12 12 10 16 7 6 6 5 8 11 12 14 16 19 19 27 37 58 86 92 100 99 100 93 92 92 72 80 71 81 100 98 97 77 100 90 84 99 100 98 82 96 100 93

GFSGBSN_250_rhum_033.txt.gz
RH
13 12 12 13 10 8 8 9 9 11 10 8 8 8 10 14 16 19 28 30 45 71 66 79 89 100 98 100 89 93 95 100 100 100 100 100 100 100 100 100 98 93 91 86 88 89 78
14 12 12 11 10 9 9 10 10 10 11 10 9 9 10 13 18 18 23 37 47 55 72 92 99 99 91 100 97 98 100 95 92 100 100 100 100 100 100 100 100 89 74 66 73 77 70
14 14 14 12 12 10 8 9 11 11 11 11 12 13 12 14 17 20 24 36 47 49 79 100 100 95 100 96 96 100 100 100 98 94 98 100 100 100 100 99 91 88 87 78 74 73 66
12 13 14 12 12 11 10 10 10 10 11 12 14 15 18 17 19 21 24 29 33 49 68 100 98 99 100 98 100 100 100 100 100 100 98 99 99 99 100 100 100 94 93 91 87 86 71
12 12 14 11 11 9 8 8 10 11 13 12 14 18 19 22 23 28 30 29 28 31 58 95 90 78 94 99 98 100 100 100 100 100 100 100 96 96 94 100 99 97 100 100 100 93 66
12 11 15 11 10 8 7 6 8 9 12 16 18 15 16 22 22 29 36 40 32 29 33 52 80 83 90 94 100 100 88 92 96 100 100 100 100 100 96 87 99 95 93 96 91 89 77
11 12 15 10 10 8 6 6 6 7 7 7 8 9 9 8 18 25 32 43 34 26 29 41 60 56 100 93 97 100 92 88 94 100 100 100 100 100 100 98 98 95 90 88 92 88 80
10 12 15 10 10 7 6 5 5 5 4 3 3 3 4 5 7 22 26 34 39 58 100 64 44 34 40 71 78 95 98 96 87 99 89 98 100 100 100 100 100 100 96 87 83 78 65
10 12 14 10 10 6 5 5 5 4 3 2 2 2 2 3 4 9 34 44 47 75 90 56 44 33 25 25 44 66 78 63 77 74 88 97 100 100 100 100 100 100 98 94 86 78 76
10 12 14 10 9 6 5 4 5 3 2 2 2 2 2 2 3 6 18 49 52 64 82 56 56 36 24 22 27 32 50 46 59 55 50 54 96 100 100 100 100 100 100 99 94 87 86
11 12 13 10 8 6 4 5 5 2 2 2 3 3 3 2 3 4 9 36 54 76 63 56 46 36 25 28 39 37 40 44 61 60 58 66 93 100 100 100 100 100 96 93 87 86 84
13 12 13 10 8 6 4 5 4 2 2 2 2 3 3 3 3 4 7 17 53 74 47 57 53 44 42 56 59 70 63 68 77 78 82 96 98 100 100 100 100 100 100 100 96 93 86
14 12 12 9 8 6 5 5 3 2 3 2 2 2 2 2 2 4 6 11 47 54 55 69 63 59 67 83 89 89 96 98 93 91 91 97 100 100 99 96 99 100 100 100 100 95 81
15 12 10 9 7 5 5 5 2 2 3 2 2 2 2 2 3 4 6 11 32 50 65 74 72 61 79 92 92 99 100 100 100 100 97 99 100 100 100 100 100 100 90 78 54 46 45
15 11 9 8 7 5 5 5 2 2 2 2 2 2 2 2 3 4 7 11 24 58 66 85 74 72 90 96 100 100 100 94 92 87 72 57 60 65 68 62 56 50 52 62 56 55 47
14 11 9 8 7 5 5 5 2 3 2 2 2 2 2 3 3 4 7 9 32 47 78 83 72 82 100 100 98 100 96 92 78 61 45 55 69 82 78 56 52 65 77 76 77 68 71
13 12 8 7 7 5 5 5 2 3 3 2 2 2 2 3 4 6 10 21 48 66 73 75 70 93 96 95 88 88 95 64 51 59 74 84 79 74 59 71 86 85 78 84 81 69 62
13 11 8 6 7 6 6 5 2 3 3 2 2 2 3 3 5 8 15 41 56 65 88 78 86 90 98 100 97 93 62 59 61 69 73 84 90 83 85 76 92 100 80 72 80 74 70
13 11 8 6 6 6 7 6 3 4 3 3 3 3 4 5 7 11 25 44 60 59 84 90 92 97 100 100 100 82 76 74 72 76 84 91 87 80 84 98 75 71 70 68 71 86 99
13 10 8 6 6 5 7 7 3 4 4 4 5 5 5 7 10 13 34 47 56 72 87 92 88 96 100 100 100 96 85 78 78 83 94 96 88 80 100 72 78 69 91 82 77 93 100
13 10 9 6 6 4 7 8 4 3 5 5 6 7 7 8 10 16 37 52 61 87 89 94 97 93 100 100 99 91 81 81 83 88 90 86 81 73 71 78 70 90 78 70 91 100 100
12 10 9 7 6 5 6 9 5 4 6 6 7 9 9 10 10 16 31 55 70 92 96 98 96 88 91 95 99 84 91 83 86 88 86 78 69 66 84 69 81 78 100 100 100 100 97
11 11 10 8 6 7 6 9 8 6 6 7 8 9 11 12 13 16 38 54 69 93 100 100 95 87 93 100 100 98 92 88 92 87 82 76 72 90 78 70 78 99 100 98 100 100 97
10 11 11 9 8 8 9 8 12 7 7 9 9 11 12 12 17 32 58 66 85 99 100 96 91 96 100 100 95 92 93 95 85 90 75 61 90 99 91 90 82 99 100 92 100 100 100
10 10 11 10 10 10 11 10 13 8 7 9 10 12 13 14 17 28 60 71 88 100 100 98 96 98 99 100 94 87 93 79 90 76 76 81 89 98 92 100 96 98 95 79 100 92 100
10 10 11 10 9 13 12 12 15 7 7 8 9 11 14 15 18 25 52 69 94 100 99 100 100 100 99 94 92 92 82 87 87 71 77 99 99 92 93 63 87 78 82 83 100 100 100
9 11 10 10 8 12 13 12 16 7 7 7 10 11 13 15 18 27 47 67 88 99 100 100 99 100 100 91 94 85 85 90 75 75 80 100 100 91 86 69 81 83 96 94 100 99 93
10 10 10 10 8 11 13 12 16 7 6 7 8 12 13 16 18 26 41 60 77 93 100 100 100 100 100 98 94 79 85 88 70 68 81 94 98 94 94 63 95 100 89 83 79 100 100
10 10 10 10 9 10 13 12 16 6 6 6 8 12 14 15 18 23 40 51 65 84 94 97 100 100 100 97 88 86 91 83 74 64 95 93 94 86 82 77 94 100 96 100 99 97 100

GFSGBSN_250_rhum_036.txt.gz
RH
11 11 10 11 11 11 12 10 8 8 8 8 10 10 10 10 9 10 12 13 14 19 39 44 48 51 57 61 62 87 96 100 100 100 100 100 100 100 100 100 100 100 100 100 100 75 90
11 11 11 12 14 12 13 11 9 9 8 8 9 10 11 10 10 10 12 16 15 18 31 55 63 61 69 64 83 85 79 93 100 100 100 100 100 100 98 100 100 100 100 100 99 90 88
11 11 12 13 13 12 12 10 8 9 10 9 10 10 10 12 10 10 11 16 19 17 30 50 84 71 73 76 99 93 90 90 78 100 100 100 100 100 100 100 100 100 100 100 100 100 83
10 12 13 13 14 12 11 8 7 7 7 10 12 11 11 11 12 10 11 15 19 21 21 36 63 79 95 73 85 95 95 92 97 90 87 100 100 100 100 100 100 100 100 100 100 100 100
10 11 13 13 14 12 11 8 7 6 6 7 9 10 10 9 10 12 12 14 19 25 26 22 42 55 67 84 97 97 100 100 97 98 95 84 80 95 100 100 100 100 100 100 100 100 100
12 12 12 13 14 12 9 7 6 4 5 6 5 4 4 5 5 11 14 15 21 23 27 25 24 40 75 87 100 100 100 100 100 98 94 99 98 92 87 86 100 100 100 100 100 92 91
12 12 12 12 14 12 9 7 5 4 4 4 2 2 2 2 2 4 14 17 19 20 17 29 41 43 65 78 100 100 100 97 100 100 100 100 100 100 100 97 83 88 100 99 99 83 88
12 12 12 12 14 11 9 6 4 3 4 3 2 2 3 3 2 3 8 20 20 22 22 39 36 35 74 67 82 89 100 100 100 99 100 100 98 98 96 98 100 98 92 91 84 83 79
12 13 12 13 13 10 8 5 4 3 4 2 2 2 3 3 3 3 5 14 25 23 26 51 43 39 51 57 83 94 97 100 99 96 100 100 100 100 100 100 100 98 100 98 93 85 82
12 13 13 13 12 10 8 5 3 4 3 2 2 2 2 3 3 4 4 11 25 26 30 57 45 35 37 44 71 82 93 100 97 100 100 100 99 92 100 100 98 97 100 99 96 94 84
13 14 14 13 11 9 7 5 3 4 2 2 2 2 2 3 3 3 4 9 25 26 32 55 57 57 46 41 47 45 57 84 97 88 96 100 100 98 97 98 100 100 100 94 86 85 85
14 15 14 12 10 8 7 5 4 5 2 2 2 2 2 2 3 4 4 7 9 24 32 46 60 68 59 61 57 52 49 56 80 88 82 87 94 93 91 84 83 85 94 89 90 86 80
15 16 14 12 9 8 6 4 3 4 2 2 2 2 2 2 2 3 4 6 6 22 37 74 89 89 72 72 60 44 39 39 41 58 72 74 78 71 76 66 59 58 65 78 88 89 95
16 16 14 12 9 7 6 4 4 4 2 2 2 2 2 2 2 3 3 3 6 27 50 88 92 78 66 71 54 38 34 31 36 38 44 55 53 54 54 56 54 49 74 86 88 91 98
16 16 14 11 9 8 6 5 4 4 2 2 2 2 2 2 2 2 3 4 7 22 80 96 89 70 76 74 51 51 70 60 62 71 61 65 81 70 69 81 82 92 80 93 96 92 84
16 15 14 11 8 7 7 5 5 4 2 3 2 2 2 2 2 3 4 5 9 56 89 86 81 82 94 74 71 92 94 90 93 96 98 99 96 96 99 97 95 100 100 100 96 87 76
16 14 13 10 8 7 7 5 5 4 2 3 3 3 2 2 2 3 3 7 18 69 89 82 79 74 73 67 75 84 94 98 99 100 100 99 100 96 88 79 74 71 61 54 64 90 63
15 15 12 10 7 6 6 5 6 4 2 4 3 3 3 3 3 4 8 12 21 74 78 76 77 74 80 80 86 92 100 100 100 100 100 85 72 56 42 50 64 92 82 81 71 73 78
16 14 11 10 8 6 6 5 5 4 3 4 3 4 4 4 5 9 12 17 55 72 79 78 74 82 84 95 100 100 100 98 92 77 57 47 40 44 64 91 99 77 69 66 65 78 88
16 13 11 10 8 7 6 6 5 5 3 5 4 6 6 6 7 9 13 36 63 68 79 82 86 91 100 100 100 99 96 76 58 48 49 57 62 71 98 92 85 76 63 73 91 88 79
15 13 11 10 9 7 7 6 6 7 3 6 6 7 7 8 8 10 18 38 54 72 84 86 94 100 100 100 100 99 86 72 67 69 67 66 78 100 84 90 65 66 87 78 95 93 73
14 12 11 10 9 8 7 7 6 9 5 7 9 9 9 10 11 14 18 28 58 74 89 95 98 100 100 100 100 100 88 79 71 69 67 71 100 94 70 71 70 77 100 100 85 100 96
13 12 11 11 10 10 8 8 9 10 8 7 11 11 11 12 12 16 31 58 77 90 88 92 96 100 100 100 100 98 87 75 67 66 69 98 97 69 76 76 67 92 98 82 92 100 88
13 12 11 11 11 11 9 9 10 12 13 6 10 12 13 14 18 30 54 74 97 96 92 98 100 100 99 96 92 92 85 71 70 74 84 100 81 85 90 94 73 100 91 83 100 100 99
12 11 12 11 11 12 10 9 9 12 16 8 8 14 12 14 19 35 54 78 93 86 98 100 100 100 100 100 96 97 86 74 73 82 93 89 71 91 100 74 98 90 78 80 100 100 96
12 10 12 11 11 13 11 10 9 11 19 8 7 11 13 13 18 28 48 76 83 88 97 100 100 100 100 100 95 91 79 74 85 92 95 71 70 90 94 77 78 79 74 88 94 100 100
12 10 11 11 10 12 12 10 9 10 15 8 6 10 14 14 16 25 48 71 91 98 96 100 100 100 100 100 94 87 82 86 92 100 93 71 88 89 90 89 65 66 84 96 86 95 92
12 11 11 10 9 12 12 11 10 9 12 7 6 8 14 14 16 21 37 70 88 97 97 98 100 100 100 100 93 86 86 85 98 95 80 68 81 82 94 99 71 72 97 90 100 94 94
12 12 11 10 9 11 12 10 9 9 11 6 6 8 13 14 15 19 25 44 70 84 90 93 96 98 100 99 96 88 80 93 99 86 80 78 88 99 88 88 91 90 86 78 78 76 90

GFSGBSN_250_rhum_039.txt.gz
RH
13 12 11 13 12 13 12 12 11 8 8 8 6 6 6 8 8 8 9 10 10 11 13 14 15 16 24 32 75 83 100 100 100 100 100 100 100 100 100 99 95 94 94 97 98 90 91
13 13 12 13 11 12 12 11 9 7 7 8 7 7 7 8 9 8 9 9 10 10 12 13 14 15 18 52 62 86 72 100 100 100 100 100 100 100 100 96 100 99 90 100 100 100 100
13 13 11 13 11 12 12 10 8 6 6 6 6 7 10 8 6 9 9 9 10 11 11 13 14 15 19 32 89 95 84 84 100 100 100 100 100 100 100 99 100 100 100 100 100 98 96
12 13 12 13 12 12 12 9 7 5 5 5 5 6 6 6 4 4 7 9 10 11 11 12 13 17 27 34 65 84 100 89 91 99 100 100 100 100 100 100 96 100 100 100 100 100 100
12 14 12 13 12 11 10 9 7 5 4 4 5 4 3 3 2 2 4 6 11 11 12 12 12 17 27 36 53 61 92 100 98 90 80 100 100 100 100 100 100 100 100 100 100 100 100
10 15 12 13 13 11 10 8 5 4 4 4 4 2 2 3 3 3 3 4 8 13 12 12 12 14 20 51 60 67 78 100 100 100 92 80 96 100 100 100 100 100 100 100 100 99 100
11 15 13 13 12 11 9 8 5 4 4 4 3 2 3 3 3 3 3 4 6 12 12 12 18 21 25 24 74 72 82 94 100 100 100 84 82 90 100 100 100 100 100 100 100 100 100
12 14 14 13 12 10 9 8 4 4 4 4 2 2 2 2 2 3 3 4 4 9 15 15 20 21 29 21 56 65 86 97 100 100 99 100 91 99 86 83 95 100 100 100 100 100 100
14 14 14 14 11 10 9 7 4 4 4 5 2 3 2 2 2 2 3 4 4 8 17 20 25 27 42 26 40 68 83 100 100 90 98 95 100 96 81 86 88 80 84 90 98 98 99
15 15 14 14 11 10 8 6 4 4 3 4 2 2 2 2 2 2 3 4 4 6 20 21 26 25 29 28 29 43 71 90 95 100 97 100 100 100 100 100 88 82 77 84 80 69 69
14 15 14 13 12 10 8 6 4 4 3 4 2 2 2 2 2 3 3 4 4 5 17 25 32 36 38 39 42 48 68 90 89 100 100 100 100 100 100 91 91 87 89 82 74 68 68
15 14 14 12 11 10 8 6 5 4 3 4 2 2 2 1 1 2 3 4 4 5 20 25 34 40 48 56 52 68 76 76 96 95 97 100 100 100 100 100 95 85 86 75 78 74 72
16 15 15 12 11 9 8 6 6 4 4 3 2 2 2 2 1 2 3 4 4 6 20 33 46 64 64 62 49 67 87 81 80 99 95 99 100 100 96 98 99 96 100 93 91 98 100
16 16 15 13 11 8 8 7 6 4 4 3 3 2 2 2 1 2 3 4 4 6 28 48 57 71 74 63 53 48 47 57 64 75 86 97 89 85 94 90 96 97 84 82 77 76 81
17 16 15 12 10 8 8 7 6 4 4 3 2 2 2 2 2 2 3 4 4 22 45 56 51 62 71 65 64 66 70 72 60 52 53 70 73 78 79 79 80 89 79 77 70 61 56
16 16 14 12 9 8 7 7 6 5 4 3 3 3 2 2 2 2 3 4 8 25 40 68 89 94 76 75 74 72 61 46 44 41 44 52 60 74 84 71 72 67 79 73 63 63 67
16 15 13 12 10 8 7 7 7 5 4 3 3 3 3 3 2 3 4 5 12 35 54 67 76 68 73 78 79 65 51 36 34 34 39 37 38 37 38 51 62 80 85 82 88 97 100
16 15 13 11 10 9 7 6 7 5 4 4 3 4 4 3 3 3 4 8 18 44 65 66 78 87 80 76 68 58 61 64 71 78 76 87 87 75 90 93 100 95 93 100 94 84 79
16 16 13 11 10 10 8 6 7 6 5 5 4 5 5 6 4 5 6 12 31 50 73 82 93 96 86 88 99 100 94 92 99 100 99 95 95 95 100 96 83 78 80 76 74 76 73
15 15 13 11 10 10 8 6 6 6 6 7 3 6 6 7 7 7 9 14 45 76 78 94 98 92 94 91 86 88 95 97 100 94 92 93 91 81 73 87 94 80 72 74 89 70 84
14 14 12 11 10 11 10 8 7 6 7 9 4 6 8 9 10 9 10 25 67 87 86 96 98 99 100 100 98 96 98 94 84 85 72 65 77 94 99 81 72 66 77 70 73 84 73
13 13 12 11 11 11 11 9 9 8 7 9 8 7 9 11 12 14 12 33 67 79 96 99 100 100 100 98 94 89 83 83 61 58 74 88 86 78 73 67 63 66 65 69 75 74 67
13 11 11 11 11 11 11 11 10 9 9 10 13 6 11 12 15 27 35 49 71 93 96 99 100 98 95 97 97 99 87 75 78 79 78 79 70 68 71 69 67 66 84 74 93 87 92
12 11 11 11 11 12 11 12 11 9 10 10 14 8 10 12 17 23 49 60 73 84 91 100 100 99 97 100 100 100 96 88 77 74 80 74 69 75 72 68 66 74 90 78 94 90 98
11 11 12 11 11 11 11 11 11 10 11 11 12 9 8 13 16 24 36 64 84 95 100 100 100 100 100 100 100 100 97 86 78 77 86 78 84 77 75 77 79 96 85 79 100 100 100
10 11 12 11 11 11 11 12 11 10 10 11 13 11 7 11 15 30 43 63 79 97 98 97 97 99 100 100 100 100 97 87 79 72 96 94 83 74 90 81 98 99 85 82 100 100 92
11 12 12 11 11 10 11 11 11 10 9 11 12 12 6 7 14 22 45 51 73 86 90 90 99 94 98 100 100 100 100 87 77 86 100 94 77 72 79 82 100 97 77 92 97 98 100
11 12 12 11 10 10 10 10 10 9 9 10 11 11 6 6 11 16 26 50 68 75 80 87 95 92 93 100 100 100 100 84 79 90 100 97 73 72 75 86 91 79 69 83 81 84 99
12 12 12 12 11 10 10 9 8 8 8 9 10 8 5 6 10 15 22 37 57 82 82 85 90 86 88 97 98 94 97 90 86 96 99 100 80 78 83 70 86 89 83 73 79 77 67

GFSGBSN_250_rhum_042.txt.gz
RH
32 15 13 12 13 12 10 10 9 8 7 5 6 6 6 6 6 6 7 8 9 9 10 11 11 11 13 16 33 96 100 100 100 100 100 100 100 100 100 100 100 100 90 96 99 83 85
25 14 13 12 13 11 11 10 9 7 5 5 6 5 5 6 5 5 6 6 9 9 10 11 11 12 12 18 24 42 99 100 100 100 100 100 100 100 100 100 100 100 100 100 100 100 100
17 14 13 12 11 11 10 10 8 7 5 5 6 4 5 4 3 2 3 4 7 10 10 11 11 12 12 21 26 38 45 100 100 100 100 100 100 100 100 100 100 100 100 100 100 100 97
13 12 13 12 12 10 8 9 7 6 5 5 4 4 4 3 3 3 3 3 3 8 11 11 11 11 15 15 34 38 34 55 99 100 100 100 100 100 100 100 100 100 100 100 100 97 100
13 13 14 12 12 9 8 9 7 6 5 6 4 4 2 2 3 2 3 3 3 5 11 11 11 13 14 17 36 33 39 42 69 99 100 100 100 100 100 100 100 100 100 100 100 100 100
13 13 13 12 10 9 8 8 6 5 4 6 4 3 2 2 2 2 2 3 4 3 7 12 13 13 14 22 22 34 44 45 60 96 98 100 100 100 100 100 100 100 100 100 100 100 100
12 13 11 11 9 8 8 7 6 5 4 4 4 3 2 2 2 2 2 3 4 3 4 11 16 17 17 15 18 22 39 44 68 61 94 93 100 100 100 100 100 100 100 100 100 100 100
12 12 12 11 10 8 7 7 6 4 4 4 3 2 2 2 2 2 2 3 4 4 4 12 20 20 18 19 17 27 33 44 56 81 85 92 97 100 100 100 100 100 100 100 100 100 100
12 12 13 11 9 7 7 7 6 4 4 4 3 2 2 2 2 2 2 3 4 4 4 11 21 24 18 22 22 42 60 87 63 72 94 100 100 94 92 92 100 100 100 100 100 100 100
12 13 13 11 8 7 7 7 6 5 4 4 3 2 2 2 2 1 2 3 3 4 4 11 27 28 20 19 20 26 44 52 48 65 86 92 100 95 90 88 86 88 100 100 100 100 100
13 13 11 10 8 7 7 7 7 5 5 3 3 2 3 2 1 1 2 3 3 4 6 13 31 30 22 24 33 32 39 63 85 73 80 99 98 100 100 100 82 83 92 88 97 100 100
14 12 11 10 8 7 7 7 7 5 5 3 2 2 3 2 1 2 2 3 4 4 6 13 30 24 24 30 36 33 47 39 92 100 92 98 92 94 100 100 100 100 80 77 85 82 83
13 11 10 9 8 7 7 7 7 5 5 4 2 3 3 2 1 2 3 4 4 4 8 22 34 29 33 58 68 64 67 80 95 100 100 98 96 100 97 93 97 97 94 88 70 68 77
12 11 10 9 8 7 7 7 8 6 5 4 3 3 2 2 2 1 2 3 4 6 18 33 29 40 53 65 74 58 57 80 83 100 100 99 90 97 90 99 94 92 89 91 96 96 87
13 11 10 9 8 7 7 7 7 6 6 4 3 3 3 2 2 2 2 3 6 18 28 32 34 49 58 65 67 64 56 45 55 62 86 93 84 96 92 89 88 93 87 92 94 99 96
13 12 10 9 8 8 7 6 7 7 6 4 3 3 3 3 2 2 3 4 9 21 29 33 59 71 85 85 81 65 43 60 56 58 70 77 85 98 94 92 93 93 96 92 82 86 90
13 11 9 9 8 8 7 5 7 7 6 4 4 4 4 4 3 2 3 7 14 24 42 55 72 97 97 85 81 66 60 58 62 80 76 68 68 76 88 96 96 100 99 86 73 71 75
13 11 9 9 9 8 7 5 5 7 7 6 6 4 6 6 5 4 4 9 20 37 53 50 61 66 76 88 75 72 71 73 76 81 74 65 68 79 93 96 99 96 84 80 72 76 77
13 11 9 9 9 8 8 7 6 6 7 6 6 5 6 8 8 6 7 18 33 37 46 65 87 97 93 90 100 95 74 62 53 47 44 45 53 60 68 72 68 72 75 71 82 78 77
11 10 9 9 10 9 10 9 8 7 8 8 7 9 8 10 11 9 10 18 37 54 72 86 88 85 96 92 83 83 93 89 73 73 80 77 89 85 87 82 78 82 97 96 84 94 88
10 9 10 9 10 10 11 11 9 9 9 10 8 12 7 12 12 12 12 25 42 64 82 95 100 100 99 100 90 99 98 97 100 100 98 90 94 94 91 95 94 90 81 85 89 88 80
10 9 10 9 10 11 12 11 10 10 9 9 11 12 13 11 15 14 18 43 59 74 82 96 93 95 96 99 98 100 98 100 99 93 91 100 100 100 90 74 69 73 86 78 77 77 85
10 9 8 9 10 11 13 12 11 10 10 9 11 13 18 10 16 18 23 41 68 79 93 100 100 100 89 95 99 98 92 93 100 97 82 78 84 83 79 81 74 83 74 68 80 78 73
10 10 8 10 10 11 13 13 12 11 10 9 10 13 19 13 14 18 21 29 45 75 94 100 100 99 97 98 93 88 98 89 67 70 80 91 90 78 77 70 68 70 79 79 73 76 97
10 8 8 10 11 11 13 12 12 12 11 10 10 12 15 21 12 20 20 39 46 64 86 93 93 96 100 100 100 99 83 88 91 88 83 82 71 73 70 67 72 74 82 76 92 98 100
9 7 8 10 12 11 12 12 12 12 11 10 8 10 15 23 11 16 25 26 41 62 76 95 94 90 94 100 100 98 96 97 92 83 81 80 73 66 66 73 77 74 70 75 91 100 100
8 7 8 10 12 10 12 12 12 12 11 10 8 8 12 18 13 12 20 30 38 55 77 84 93 94 95 90 96 100 100 100 99 93 82 88 78 76 74 71 77 72 78 88 94 98 97
8 7 8 10 10 10 11 10 11 10 10 9 8 9 10 14 10 9 18 31 42 56 77 85 86 92 93 89 92 95 97 100 100 96 90 88 80 78 70 72 83 78 100 94 88 92 88
7 7 8 9 10 9 9 10 9 9 9 8 7 7 9 8 6 8 16 23 38 49 66 84 82 83 96 93 88 90 92 96 100 98 96 87 86 78 66 68 74 88 100 92 80 82 72

GFSGBSN_250_rhum_045.txt.gz
RH
24 13 10 9 9 8 9 8 8 8 7 7 6 6 6 5 5 5 4 5 5 7 7 7 8 9 10 12 13 23 72 100 100 100 100 100 100 100 100 100 100 100 100 100 100 100 92
16 12 11 8 9 9 8 7 7 8 7 6 6 6 5 4 4 3 3 3 4 5 7 8 7 8 12 12 12 15 31 64 100 100 100 100 100 100 100 100 99 100 100 100 100 100 98
14 10 9 9 10 9 8 7 7 7 6 6 5 5 4 4 3 3 3 3 3 3 6 8 7 8 10 13 13 13 18 33 100 100 100 100 100 100 100 100 100 100 100 100 100 100 100
12 9 9 10 10 10 8 6 7 6 5 5 4 4 3 3 2 2 3 2 3 3 4 8 7 9 12 13 14 14 15 26 75 100 100 100 100 100 100 100 100 100 100 100 100 100 100
10 8 9 10 10 9 8 6 7 6 5 5 4 4 3 2 2 2 2 2 2 3 3 6 8 10 13 12 15 15 17 20 45 94 100 100 100 100 100 100 100 100 100 100 100 100 100
9 9 10 11 10 9 7 6 6 6 5 4 4 3 3 2 2 2 2 2 2 3 4 4 9 12 14 14 15 16 20 18 25 69 100 100 100 100 100 100 100 100 100 100 100 100 100
10 11 12 12 11 9 7 6 6 6 5 4 4 3 2 2 2 2 2 2 2 3 4 4 10 18 16 14 14 16 20 28 26 36 98 100 100 100 100 100 100 100 100 100 100 100 100
12 12 13 12 11 9 7 6 6 6 5 4 3 3 2 2 2 2 1 1 2 3 4 5 11 18 15 15 15 17 20 30 32 31 57 98 100 100 100 100 100 100 100 100 100 100 100
14 13 14 12 10 8 8 6 6 6 5 4 3 3 2 2 2 2 1 2 2 3 4 6 12 19 15 15 17 21 23 30 40 50 41 77 100 100 100 100 100 100 100 100 100 100 100
14 13 13 10 10 8 8 6 6 6 5 4 3 3 2 2 2 1 1 2 2 3 5 7 11 19 18 19 20 22 20 29 38 48 52 52 72 96 100 100 100 100 100 100 100 100 100
14 12 12 10 10 8 7 7 5 6 6 5 4 3 2 2 2 1 2 2 3 4 4 6 13 22 21 21 22 25 24 30 29 47 69 84 66 74 86 100 100 100 100 100 100 96 96
13 12 12 10 10 8 6 7 5 7 7 6 4 3 2 2 2 2 2 3 3 4 5 7 13 18 23 24 22 26 34 37 48 41 48 69 64 68 92 93 100 100 100 99 100 100 100
13 13 11 10 9 9 7 8 5 7 6 5 4 2 2 2 2 2 2 3 4 5 6 7 15 26 28 34 36 38 35 37 53 56 73 95 100 100 88 88 88 94 90 91 88 86 96
13 13 11 9 9 8 7 7 5 7 7 5 4 3 3 3 2 2 2 3 4 4 7 13 23 30 35 36 44 47 40 51 60 75 88 91 87 80 90 87 92 76 75 90 94 80 80
14 12 11 9 9 8 7 7 5 6 7 5 4 4 3 3 3 2 3 3 4 5 9 21 31 36 39 59 65 56 42 58 58 75 78 71 83 93 100 100 97 99 100 99 100 100 89
16 11 11 9 9 8 8 7 6 7 8 7 5 5 4 4 4 3 3 3 5 10 19 32 42 47 67 92 71 61 64 68 55 63 61 79 75 85 80 94 96 98 100 100 100 94 92
16 11 11 9 9 9 9 7 6 7 10 8 7 5 4 6 6 5 7 11 15 28 40 46 52 75 62 70 78 70 58 51 65 66 63 60 83 100 89 93 100 100 95 92 85 89 98
15 12 11 10 10 9 9 8 6 8 10 9 8 7 6 8 8 9 12 21 26 28 37 45 52 54 77 78 76 69 62 70 62 75 89 83 97 100 100 99 97 98 95 87 86 89 96
14 12 11 11 10 11 9 8 7 8 11 10 10 9 9 11 11 11 19 26 30 35 47 62 67 72 89 99 100 99 93 81 74 67 68 76 96 99 98 98 92 93 92 90 92 92 78
13 13 11 11 10 10 9 9 8 8 11 11 11 10 12 9 15 20 19 28 43 61 75 87 98 100 100 100 100 100 100 94 84 78 85 90 98 99 93 86 85 88 91 81 87 88 97
12 12 11 11 11 10 9 10 10 9 11 11 13 12 12 16 16 15 29 36 54 66 72 89 97 89 74 78 88 89 87 80 70 68 72 79 91 88 79 76 73 75 82 90 84 91 68
12 11 11 10 10 10 8 10 9 11 11 12 13 14 15 17 15 19 22 42 59 66 77 88 95 94 99 99 98 80 78 75 76 70 67 67 61 58 57 53 63 75 80 78 85 96 100
11 10 9 10 9 10 8 9 10 10 10 12 10 15 16 20 22 17 25 30 53 68 81 84 85 90 98 92 82 78 77 85 96 99 94 96 99 99 94 95 100 99 100 98 94 95 100
10 9 8 9 8 9 9 9 10 9 10 11 10 13 17 19 22 25 21 29 34 46 68 76 81 87 95 91 89 90 95 93 89 96 100 100 100 89 84 93 80 71 73 88 100 97 85
9 8 8 8 8 8 8 8 10 8 9 11 9 11 14 20 20 24 21 24 35 36 49 64 72 77 85 84 90 95 97 98 100 100 96 88 78 61 66 65 75 82 84 77 82 82 100
8 8 7 7 7 8 8 8 9 8 9 10 9 9 12 16 21 23 27 18 30 35 48 58 72 77 78 84 87 95 96 95 78 59 56 57 62 71 81 89 77 77 74 85 87 88 100
7 7 7 6 7 7 7 7 8 8 8 11 10 10 10 12 17 20 21 20 26 42 41 53 66 72 78 83 90 94 90 73 71 74 74 72 79 83 78 74 74 78 90 94 92 100 100
7 6 6 6 7 6 6 6 6 7 6 9 9 9 9 10 12 14 15 15 27 44 52 61 68 76 77 84 94 100 89 88 84 80 77 74 84 75 71 68 75 76 82 82 95 96 100
7 7 6 6 6 6 6 6 6 6 6 8 8 7 7 8 9 8 9 10 19 32 52 56 71 77 79 81 97 99 100 90 87 85 80 79 81 73 68 74 78 81 83 81 88 97 88

GFSGBSN_250_rhum_048.txt.gz
RH
23 10 8 9 10 11 9 8 7 7 6 6 6 5 5 5 5 4 3 3 2 3 4 4 5 5 5 5 7 9 11 85 97 100 100 100 100 100 100 100 100 100 100 100 100 100 100
16 9 9 11 12 12 9 8 8 8 6 5 5 5 4 4 4 3 2 2 2 2 2 3 5 6 4 6 6 9 10 14 97 100 100 100 100 100 100 100 100 100 100 100 100 100 100
18 11 9 12 14 11 9 8 8 7 7 5 4 4 4 3 3 2 3 2 2 2 2 3 4 5 6 8 6 9 10 14 30 100 100 100 100 100 100 100 100 100 100 100 100 100 100
19 14 11 12 12 10 9 7 8 6 6 4 4 3 3 3 2 2 3 2 2 2 2 3 3 5 8 8 7 10 11 12 16 94 100 100 100 100 100 100 100 100 100 100 100 100 100
22 14 12 12 10 9 8 7 7 6 6 4 3 3 3 2 2 2 2 2 2 2 2 3 3 4 10 8 9 10 12 13 15 25 100 100 100 100 100 100 100 100 100 100 100 100 100
18 14 12 11 9 10 8 8 6 6 5 4 4 3 3 2 2 2 2 2 2 2 2 2 3 5 11 10 11 12 14 16 15 20 35 100 100 100 100 100 100 100 100 100 100 94 86
18 11 11 11 10 10 8 8 6 6 5 4 4 3 3 2 2 2 2 1 1 2 2 2 4 8 13 11 11 12 15 18 16 17 25 76 100 100 100 100 100 100 100 100 100 100 100
17 11 12 11 10 9 8 8 7 6 5 5 4 4 3 2 2 2 1 1 1 2 2 3 6 8 10 12 12 15 15 18 18 21 22 46 93 100 100 100 100 100 100 100 100 100 100
17 11 11 10 10 10 9 8 7 6 5 5 4 4 2 2 2 2 1 1 2 2 2 3 6 7 10 14 14 16 17 20 20 24 23 35 27 98 100 100 100 100 100 100 100 100 100
16 11 10 9 11 10 9 8 7 6 5 5 5 3 2 2 2 2 1 2 2 2 3 4 6 6 12 15 16 18 20 20 24 25 22 23 22 67 100 100 100 100 100 100 100 100 100
13 12 11 11 12 11 10 8 7 6 5 5 4 4 2 2 2 2 2 2 3 3 3 4 6 9 14 17 19 19 19 21 24 27 35 32 46 52 92 77 100 100 100 100 100 100 100
13 12 11 12 12 11 10 8 6 6 5 5 4 3 3 2 2 2 2 3 3 3 5 6 6 11 17 21 19 22 23 22 28 25 28 41 34 45 59 79 96 100 100 100 100 100 100
14 12 12 12 12 11 10 9 8 6 6 5 5 4 3 2 2 2 2 3 4 5 6 6 7 15 22 26 24 24 20 24 35 32 31 46 54 58 56 76 91 100 100 100 100 100 100
14 13 12 12 12 12 11 10 9 7 7 7 6 5 3 2 3 3 3 3 4 4 7 7 12 22 28 28 27 28 22 24 33 47 44 62 92 93 78 83 92 100 100 100 100 100 100
15 14 12 13 12 12 11 10 9 8 8 8 7 6 4 3 3 4 3 3 4 6 9 12 24 37 36 37 37 30 25 32 42 49 58 48 62 80 83 82 87 100 100 100 100 100 100
14 14 13 12 12 12 11 9 10 8 9 10 8 7 6 5 5 6 6 6 6 8 16 27 40 40 39 39 40 31 33 49 52 57 50 56 64 72 88 89 95 81 93 100 100 97 98
14 13 12 12 11 11 10 9 10 8 9 10 9 9 8 7 8 11 11 10 10 13 20 29 33 40 37 35 46 43 44 54 70 76 70 64 62 73 72 84 96 95 96 89 92 100 98
15 13 12 11 10 11 9 8 9 8 9 11 12 10 9 9 11 16 18 19 21 24 24 26 28 25 24 40 43 42 50 56 64 67 71 62 67 76 82 93 100 99 100 94 83 85 91
13 11 11 11 10 9 8 8 9 8 9 12 13 12 10 11 13 20 25 24 24 26 28 32 40 50 68 84 89 85 74 62 63 74 76 70 81 79 86 85 90 100 98 99 100 98 93
12 11 10 11 9 8 7 8 8 8 8 11 15 15 12 11 13 19 31 34 39 45 64 80 83 84 81 88 89 83 69 60 60 62 78 85 94 88 80 75 80 80 84 81 94 94 92
11 10 10 10 8 7 7 7 8 7 8 10 12 16 13 12 13 17 40 38 50 52 67 79 78 80 81 87 84 71 60 65 67 64 74 88 83 80 82 95 96 100 100 89 80 82 89
10 9 10 8 6 6 6 7 7 7 8 9 10 17 15 14 13 16 22 45 43 55 64 76 80 78 74 78 81 80 81 83 81 76 66 71 86 98 99 98 98 100 99 89 79 84 79
10 9 9 7 6 6 6 7 7 7 7 8 8 12 17 14 14 15 21 29 50 47 48 62 72 74 78 77 77 72 75 70 66 66 72 80 86 86 86 96 96 91 82 76 78 84 86
8 8 8 7 6 6 6 7 6 6 7 8 8 10 15 16 14 16 18 25 46 62 55 49 61 70 75 83 79 75 72 74 65 59 58 58 55 53 59 65 67 59 59 65 85 95 100
8 8 6 6 6 6 6 7 7 6 6 7 7 9 10 13 16 16 17 20 24 42 66 60 55 60 69 76 79 76 73 74 84 81 84 93 92 89 89 91 91 87 92 99 96 99 100
8 7 6 6 6 6 6 7 7 6 6 7 6 8 8 9 12 16 16 18 23 25 50 73 58 58 67 77 77 78 77 83 94 100 100 98 98 88 95 96 89 76 75 81 95 100 100
7 6 6 6 6 6 6 6 7 6 6 7 7 7 7 7 8 12 15 17 20 23 30 56 72 66 68 75 68 77 82 99 99 90 87 85 81 68 63 64 71 82 92 96 98 99 100
7 7 6 6 6 6 6 6 7 6 6 6 7 7 8 9 9 9 11 15 17 20 18 56 66 71 72 73 71 81 88 88 83 69 54 56 63 66 70 77 88 96 94 88 90 100 100
7 7 6 7 6 6 6 6 7 6 6 5 6 6 7 7 7 8 9 10 10 14 16 34 72 80 76 76 72 78 81 78 64 61 63 63 66 70 74 85 75 78 81 82 95 96 100

GFSGBSN_250_rhum_051.txt.gz
RH
27 21 16 18 9 8 7 7 7 6 6 6 5 4 4 4 4 3 3 3 2 2 2 2 3 5 5 5 6 7 7 7 7 24 75 100 100 100 100 100 100 100 100 100 100 100 100
22 17 19 20 8 7 7 7 7 6 6 6 5 4 3 3 3 2 2 2 2 2 2 2 2 4 4 5 7 7 6 6 7 15 50 99 100 100 100 100 100 100 100 100 100 100 100
23 22 21 18 8 7 7 7 6 6 6 5 4 3 3 2 2 2 2 2 2 2 2 2 2 3 4 6 6 7 6 7 7 9 28 86 100 100 100 100 100 100 100 100 100 100 100
22 22 18 16 8 7 7 7 6 5 6 5 4 3 3 3 2 2 2 2 2 2 2 2 2 3 4 6 6 7 6 7 8 9 14 57 96 100 100 100 100 100 100 100 100 100 100
23 18 17 13 9 7 8 7 6 5 6 5 4 4 3 2 2 2 2 2 2 1 1 2 2 3 4 6 8 7 7 8 9 10 12 32 98 100 100 100 100 100 100 100 100 100 100
21 16 14 11 9 8 8 7 5 4 5 4 4 4 3 2 2 2 2 2 1 1 1 2 2 3 4 5 8 8 7 10 11 11 12 14 54 100 100 100 100 100 100 100 100 100 100
22 18 11 10 9 8 8 7 5 4 5 4 3 3 3 2 2 2 1 1 1 1 1 2 3 4 4 5 8 9 10 13 12 13 13 17 16 95 100 100 100 100 100 100 100 100 100
23 15 11 10 9 8 8 7 5 4 4 4 4 3 3 2 2 2 1 1 1 1 1 2 3 4 4 5 8 10 12 14 15 14 14 15 16 50 100 100 100 100 100 100 100 100 100
21 11 10 10 9 9 8 7 5 4 4 4 4 3 3 2 2 2 1 2 2 2 2 2 3 3 5 7 11 12 16 17 16 16 20 18 21 26 98 100 100 100 100 100 100 100 99
18 10 10 10 11 8 8 7 6 4 4 4 4 3 3 3 2 2 1 2 2 2 2 2 3 5 7 8 10 11 16 19 17 19 26 21 20 24 27 100 100 100 100 100 100 100 100
13 10 9 10 10 9 9 8 6 4 4 4 3 3 3 3 2 2 2 2 2 2 3 3 4 6 8 9 14 18 22 20 17 18 26 22 17 18 23 36 100 100 100 100 100 100 100
14 11 10 10 10 10 10 8 7 5 5 5 4 3 3 4 3 2 2 2 3 3 4 4 5 7 8 14 18 19 22 22 20 20 26 30 21 18 20 22 78 100 100 100 100 100 100
10 10 9 9 10 10 10 9 7 6 5 5 5 4 3 4 3 3 3 2 4 5 5 6 7 9 16 22 21 24 22 24 26 23 24 35 29 18 18 25 32 95 100 100 100 100 100
10 10 8 9 10 11 10 9 8 6 6 5 5 5 4 4 4 4 5 4 3 5 8 8 8 11 17 22 24 25 21 24 26 27 29 32 25 20 18 19 35 47 100 100 100 100 100
10 10 9 9 10 11 9 9 8 7 6 6 6 6 6 5 5 4 6 8 6 4 8 12 15 20 30 31 30 24 22 26 26 28 32 34 35 32 25 24 30 36 68 99 100 100 100
13 10 10 9 10 10 8 9 8 7 7 6 5 6 6 7 7 6 8 12 12 9 9 15 21 26 25 27 27 23 30 29 31 29 31 31 36 37 37 34 44 47 65 77 78 97 100
14 10 10 9 9 10 8 8 8 8 8 7 6 7 8 8 7 8 12 15 18 20 15 16 16 16 22 22 25 26 26 31 34 39 34 42 43 54 57 60 62 78 68 97 98 94 92
14 12 11 9 9 9 7 7 7 8 8 8 7 7 8 10 9 10 12 19 20 23 29 27 29 32 28 28 28 27 30 32 39 36 36 44 53 61 69 77 81 87 89 96 99 100 92
14 12 11 10 9 8 7 7 7 8 8 9 7 7 8 10 10 10 13 20 24 22 24 26 28 32 32 36 40 42 37 38 36 40 48 51 57 67 71 81 82 79 89 98 100 97 78
14 12 11 10 9 8 7 7 7 8 8 8 8 7 9 10 12 12 13 20 32 31 27 31 35 38 48 47 54 50 45 45 49 54 57 65 63 59 66 75 84 83 84 95 100 96 97
13 11 10 10 9 8 6 7 7 8 7 8 8 8 8 9 12 13 14 21 37 46 44 40 48 52 54 50 56 60 54 52 59 63 73 71 66 58 63 72 78 94 98 96 87 89 84
13 11 10 9 9 7 6 6 7 8 7 8 8 8 9 9 10 13 15 17 36 61 56 52 55 61 64 70 67 66 64 67 72 75 70 79 84 82 78 83 83 87 97 98 98 94 95
13 13 11 10 8 7 7 7 7 8 7 7 8 7 8 10 11 12 14 16 22 51 76 72 64 57 62 65 68 68 65 68 66 61 66 75 77 81 79 85 82 83 87 84 84 84 85
13 15 11 10 8 8 7 7 7 7 7 7 7 7 7 8 13 12 12 14 18 26 62 91 82 68 64 58 58 66 66 63 65 64 65 65 65 70 77 78 79 82 77 80 87 92 94
14 19 13 10 8 7 7 7 7 6 7 7 7 7 6 7 9 13 13 12 15 20 27 52 86 84 61 71 70 68 72 76 68 66 60 58 67 76 86 92 96 100 98 100 100 100 100
15 18 13 10 8 7 6 6 6 6 6 6 7 6 6 7 7 8 12 13 14 16 23 26 51 83 83 72 77 77 80 81 80 88 84 75 69 65 62 59 58 69 80 92 96 100 100
14 17 11 9 8 7 6 6 6 5 5 6 7 6 6 6 6 7 8 11 13 15 19 26 28 53 81 83 74 83 86 83 90 95 98 100 99 95 99 98 98 100 100 100 99 97 95
14 13 9 8 8 7 6 5 5 4 4 5 7 6 6 6 6 7 7 8 12 14 17 21 26 37 66 85 83 87 88 90 99 99 100 97 93 93 100 100 96 91 82 80 84 95 98
11 10 8 7 7 6 6 5 4 4 4 6 6 6 6 7 7 7 7 7 9 11 12 17 23 27 48 76 88 89 89 94 99 88 80 83 80 72 68 70 73 81 90 93 99 100 100

GFSGBSN_250_rhum_054.txt.gz
RH
23 20 15 15 9 7 6 5 5 5 4 4 4 3 4 4 3 3 3 2 2 2 2 2 2 3 4 6 6 8 7 7 7 9 22 56 76 100 100 100 100 100 99 93 99 100 100
19 22 21 14 8 6 6 5 4 4 4 4 3 3 3 3 2 2 2 1 2 2 2 2 2 2 2 5 7 8 6 6 6 8 12 31 74 98 100 100 100 100 100 100 100 99 100
17 27 21 9 7 6 6 5 4 4 4 4 3 3 3 2 2 2 1 1 2 2 2 2 2 2 2 5 6 6 6 6 7 7 8 15 62 90 100 99 91 100 100 100 100 100 100
26 22 12 8 6 6 5 5 4 4 4 4 3 3 3 2 2 2 1 1 1 1 2 2 2 2 3 4 6 5 6 7 8 8 8 10 24 80 100 100 86 89 100 100 100 100 100
25 17 10 7 6 5 5 5 4 4 4 4 3 3 3 2 2 1 1 1 1 1 1 1 2 2 3 4 5 5 6 7 9 8 9 9 14 43 98 100 93 81 100 100 100 100 100
24 13 9 6 6 5 5 5 4 4 4 4 3 3 3 2 2 1 1 1 1 1 1 1 1 2 3 4 4 6 6 8 9 9 9 10 10 26 86 98 100 98 100 100 100 100 100
23 15 11 6 7 6 6 5 4 4 3 4 3 3 3 2 2 2 2 1 1 1 1 1 1 2 3 3 4 6 9 8 10 10 10 10 10 17 77 100 100 100 98 100 100 100 100
20 15 11 8 8 7 6 5 4 4 3 4 3 3 3 2 2 2 2 1 1 2 1 1 2 2 3 4 5 8 10 9 12 12 11 12 11 11 31 98 100 100 100 100 100 100 100
14 12 10 8 8 8 6 6 4 4 4 4 3 3 3 2 2 2 2 1 2 2 2 2 2 3 4 5 5 7 8 10 13 14 12 12 12 12 13 59 100 100 100 100 100 100 100
15 12 11 9 9 8 7 6 5 4 4 5 4 3 3 3 3 2 2 2 2 2 2 2 3 4 5 6 6 8 14 19 20 17 14 13 13 14 13 15 80 100 100 100 100 99 100
15 14 13 12 10 9 8 7 5 4 4 5 5 4 3 3 3 3 2 2 2 2 3 3 3 5 5 7 9 12 23 20 18 18 17 15 16 15 15 15 17 87 100 100 100 100 100
14 17 18 12 11 10 8 8 6 5 4 5 5 4 4 3 3 3 4 3 3 3 3 3 4 5 6 9 17 20 24 22 17 19 19 17 16 15 17 16 18 22 94 100 100 100 100
16 18 17 15 12 10 9 8 6 5 5 6 5 5 4 4 4 4 4 5 4 3 5 5 5 6 7 11 15 20 24 22 18 18 18 18 16 15 17 17 18 20 38 96 100 100 100
15 17 17 15 11 10 9 8 8 6 6 6 6 6 5 5 4 4 4 5 8 6 5 7 8 9 11 18 20 26 22 20 19 22 21 20 17 17 13 16 14 19 28 41 97 100 100
15 15 16 16 13 10 9 9 9 7 6 6 7 7 6 6 6 6 6 7 12 14 9 7 9 10 16 25 31 26 22 20 23 24 23 20 18 17 13 16 18 21 32 47 76 100 100
17 17 19 16 15 11 10 9 9 8 7 7 7 8 7 6 6 6 8 10 15 20 21 17 14 12 19 26 24 26 27 23 24 23 29 24 22 19 18 18 23 23 28 43 72 81 100
16 20 19 18 16 11 11 9 9 9 8 8 8 8 7 6 7 6 8 8 17 18 23 24 27 21 23 20 22 25 26 26 26 25 26 28 31 25 25 23 27 33 31 35 65 100 100
19 22 18 16 15 16 11 10 9 10 8 8 9 8 8 7 7 8 8 9 14 23 26 25 24 28 27 25 27 27 28 29 29 30 30 30 30 35 32 30 28 26 39 45 48 100 89
20 24 19 17 17 20 10 10 9 9 9 7 8 9 8 8 8 8 9 9 12 22 29 31 25 26 28 27 28 27 28 30 30 34 34 34 32 39 41 44 37 29 34 44 70 71 85
22 19 18 24 19 18 14 11 9 9 9 7 8 9 9 8 8 8 9 11 11 20 34 37 35 33 29 31 37 35 35 33 35 38 40 39 34 41 49 53 58 66 72 66 67 80 77
15 15 16 19 22 18 14 11 9 9 8 7 8 8 9 9 7 8 10 11 12 15 27 41 48 48 45 44 42 40 40 44 40 42 48 48 46 52 50 61 61 68 89 94 82 91 94
10 10 14 20 17 20 12 8 8 8 8 7 7 7 8 9 8 8 8 11 13 14 26 44 51 61 59 55 58 59 55 43 52 52 58 66 69 65 67 62 70 72 85 94 96 87 93
11 9 13 17 17 20 12 7 7 7 7 6 6 6 7 8 8 8 8 9 12 14 17 29 52 65 73 66 66 66 65 70 67 50 52 70 74 74 71 65 68 78 88 94 90 90 95
10 11 15 14 12 13 11 7 7 6 6 6 5 5 6 7 8 8 8 8 12 15 16 18 34 60 73 73 65 65 67 65 69 73 71 62 63 67 72 77 87 79 84 88 94 92 94
9 10 11 14 12 12 12 7 6 6 6 6 5 5 6 7 8 7 8 10 10 13 17 18 20 34 66 78 81 73 69 64 66 71 76 78 73 79 77 81 83 85 80 85 92 94 94
9 12 12 12 12 9 10 7 5 6 5 5 5 5 5 6 7 7 7 9 12 13 14 18 19 20 45 69 77 84 79 75 70 72 71 72 84 90 87 90 98 100 93 98 97 95 90
10 15 12 12 12 10 10 8 6 5 5 5 5 5 5 5 6 7 7 8 9 12 14 17 19 21 24 64 75 89 95 88 85 86 81 76 76 77 85 91 98 97 99 100 100 97 97
16 14 12 8 10 9 9 7 6 5 4 4 5 5 5 5 5 6 6 7 7 8 13 14 18 21 25 35 73 88 99 97 90 98 100 92 92 92 92 93 94 88 91 90 87 94 94
17 10 11 8 8 9 9 7 6 5 4 4 5 5 4 5 5 6 6 6 7 8 9 14 15 19 25 31 59 85 100 99 100 100 97 99 96 96 95 96 97 96 99 100 98 100 100

GFSGBSN_250_rhum_060.txt.gz
RH
32 30 27 31 21 17 10 7 5 5 4 3 3 3 3 3 3 2 2 2 2 2 2 2 2 2 4 6 7 7 9 9 9 11 12 18 17 22 77 94 83 89 100 92 56 57 100
30 30 26 28 25 17 9 6 5 5 4 3 3 3 3 2 2 2 2 1 2 2 2 2 1 2 3 5 5 5 7 8 9 11 11 15 28 14 43 86 82 90 100 96 70 80 84
42 27 26 29 29 16 9 6 5 5 4 3 3 3 3 2 2 2 2 1 1 1 1 1 1 2 2 4 5 5 6 8 8 9 11 11 12 14 15 67 98 94 68 78 78 100 97
36 31 30 36 23 14 9 6 5 5 4 3 3 3 3 2 2 2 2 1 1 1 1 1 1 1 2 3 5 5 6 7 9 9 11 10 10 11 13 28 82 94 78 72 65 100 99
34 29 33 34 23 16 10 6 5 5 4 3 3 3 3 2 2 2 2 1 1 1 1 1 2 2 2 2 4 6 6 7 9 9 10 10 9 10 11 15 51 87 82 76 83 100 100
31 32 40 36 27 18 12 8 5 4 4 3 3 3 3 3 3 2 2 2 2 1 1 1 2 2 1 2 3 6 6 6 9 10 9 8 9 9 9 11 18 77 98 99 93 92 100
37 46 48 40 29 24 13 8 6 4 4 3 3 3 3 2 3 2 2 2 2 1 1 1 2 2 2 2 3 4 8 8 10 10 9 9 8 8 10 14 19 47 100 100 92 92 97
39 39 52 43 36 26 19 9 6 5 4 3 3 3 3 3 2 2 2 2 2 1 1 1 1 2 2 2 3 5 8 8 9 10 10 8 9 10 9 10 12 16 88 100 97 78 91
43 43 50 36 29 25 18 10 7 5 4 3 3 3 3 3 2 3 3 3 2 1 2 2 2 2 2 2 3 4 6 10 13 12 13 11 11 10 9 9 10 13 48 100 100 100 93
45 39 50 43 26 24 22 11 8 6 5 4 4 4 3 4 3 4 3 3 3 2 2 2 2 2 2 3 3 4 6 7 6 6 7 11 10 12 11 10 10 11 18 86 100 100 99
38 33 40 47 31 33 24 17 10 7 5 4 4 4 4 4 4 4 4 4 4 2 2 2 3 3 3 4 4 4 6 7 8 10 10 11 12 13 12 11 11 10 13 34 100 100 98
54 42 44 44 37 38 28 18 13 10 7 4 4 4 4 4 4 4 5 5 4 4 3 3 3 4 5 6 7 8 7 9 11 14 15 15 14 14 13 12 11 10 12 17 93 100 100
65 46 45 40 47 38 29 24 18 13 10 5 4 4 5 4 4 4 5 5 5 6 4 4 4 5 6 6 7 8 9 9 10 12 12 14 15 16 15 12 12 12 11 13 45 99 100
71 43 39 38 46 50 36 22 19 13 13 7 5 5 6 5 5 4 5 5 5 6 6 4 6 6 6 8 8 8 10 12 13 13 15 18 18 17 16 13 13 13 12 12 14 82 100
64 42 38 33 49 43 40 28 23 17 13 9 6 6 6 5 5 5 5 6 6 6 8 8 7 8 8 9 11 12 10 11 11 15 16 18 18 18 16 15 14 13 15 14 13 17 100
56 42 37 43 49 38 33 26 29 18 13 11 7 6 6 6 5 5 5 8 7 7 9 10 10 8 12 15 14 16 19 18 16 15 16 17 19 19 18 16 15 14 14 14 13 14 21
50 37 34 39 42 32 38 34 28 21 12 13 8 7 6 6 6 5 5 6 8 8 10 13 14 17 19 22 23 24 26 29 26 26 26 22 21 20 19 17 16 15 15 14 16 14 15
37 34 34 40 36 38 33 37 34 28 14 12 8 8 7 6 6 6 5 5 8 9 10 14 16 21 22 22 24 26 26 28 32 32 29 26 23 22 21 21 20 18 18 15 15 16 16
42 37 38 42 35 36 35 32 28 28 17 14 8 7 7 7 6 6 6 6 6 8 9 13 15 17 21 25 24 22 26 28 30 31 31 30 29 27 28 25 23 23 20 18 16 17 16
34 41 38 32 29 46 32 40 28 25 16 11 11 6 7 7 6 5 6 6 6 8 9 10 16 20 17 20 26 28 23 25 28 30 30 31 29 31 29 31 32 25 22 23 22 20 19
28 35 38 28 24 37 34 37 33 36 18 10 10 7 7 7 6 6 6 6 6 7 9 11 13 25 30 22 20 21 29 30 30 32 31 33 34 33 34 34 44 47 42 37 36 27 25
34 40 36 28 23 24 26 35 37 30 17 12 9 7 6 6 6 6 5 6 6 6 8 10 12 16 29 38 36 31 34 32 33 32 31 33 36 38 41 41 39 45 50 54 49 52 40
47 38 31 23 23 24 36 36 46 29 14 10 8 7 6 6 6 6 5 6 6 7 8 9 11 13 19 33 41 48 45 44 42 36 39 34 30 35 39 34 35 44 47 55 65 61 63
44 35 26 19 20 28 33 33 28 26 20 10 7 7 6 6 5 5 5 6 7 7 8 9 10 13 14 23 39 44 52 56 57 60 50 42 47 42 33 39 46 38 40 42 54 64 67
38 28 22 17 19 24 30 44 32 25 27 10 7 6 6 6 5 5 5 5 7 7 8 10 11 12 14 18 28 44 49 52 61 68 64 65 61 52 55 58 46 47 44 42 45 54 46
29 29 21 19 22 23 30 36 38 30 20 9 7 6 6 5 5 5 5 5 6 7 8 9 11 12 14 16 20 34 58 58 59 60 63 71 76 73 68 71 74 59 54 53 51 58 64
24 26 22 18 27 26 31 27 26 26 16 9 7 6 6 5 5 5 5 5 6 7 8 9 10 12 13 17 20 23 34 66 63 60 60 61 71 73 70 77 80 63 68 67 70 73 68
23 23 20 21 23 24 24 21 23 22 18 11 7 6 6 5 5 5 5 5 6 7 7 9 10 11 12 14 18 20 24 34 59 70 63 62 64 66 73 66 77 71 84 88 72 58 64
20 21 24 24 25 20 20 22 19 24 19 14 7 6 6 6 6 5 5 5 5 6 7 8 10 11 12 13 17 21 23 26 39 74 73 69 70 68 66 75 73 65 72 83 93 84 81

GFSGBSN_250_rhum_063.txt.gz
RH
43 45 33 27 38 36 20 10 6 4 4 4 4 3 3 2 2 2 2 2 2 2 2 2 2 2 3 5 6 5 6 9 8 10 12 13 17 15 17 53 83 100 98 52 57 80 78
47 48 29 30 35 41 26 14 8 5 4 4 3 3 3 2 2 2 2 2 1 2 1 1 2 2 2 5 4 4 6 9 9 10 12 13 22 18 22 31 56 100 85 65 49 71 82
50 48 34 36 31 40 30 17 9 5 4 3 3 3 3 3 2 2 2 2 1 1 1 1 1 1 2 3 5 5 6 8 9 10 12 14 26 27 22 24 42 100 69 58 58 70 91
45 51 34 40 34 40 37 23 12 6 4 4 3 2 2 2 2 2 2 2 1 1 1 1 1 1 2 2 4 5 5 7 10 11 11 14 24 25 24 18 30 95 73 59 54 60 92
56 56 37 31 38 38 42 30 16 8 5 4 3 2 2 2 2 2 2 2 2 1 1 1 1 1 2 2 3 4 4 6 10 11 12 14 16 66 37 37 17 21 65 69 71 65 95
58 51 38 45 42 41 40 32 19 11 5 4 3 2 2 2 2 2 2 2 2 2 1 1 1 1 2 2 2 4 5 5 8 12 12 13 12 38 49 30 45 28 35 80 99 78 82
46 51 45 44 43 40 48 37 20 11 6 4 3 2 2 2 2 2 2 2 2 2 1 1 1 2 2 2 2 3 4 5 7 11 12 11 11 16 100 100 59 40 22 30 99 99 85
43 55 44 65 56 44 48 38 23 12 8 5 4 3 2 2 3 2 2 2 2 2 2 2 1 2 2 2 2 3 5 5 7 11 12 12 13 16 41 88 73 45 30 22 48 96 67
50 55 50 61 63 43 45 38 23 14 8 6 4 3 3 3 3 3 2 3 3 2 2 2 2 2 2 2 2 3 7 7 8 9 12 13 14 14 14 25 54 56 51 51 21 65 86
56 59 52 57 58 48 48 36 26 14 9 7 4 3 4 4 4 3 3 3 3 3 3 2 2 2 2 2 2 4 6 11 10 11 10 13 14 13 14 14 24 74 98 38 21 24 67
56 57 61 60 53 47 48 34 22 18 11 8 5 3 4 4 5 4 3 3 4 3 4 3 3 3 3 3 4 4 5 7 10 9 10 14 15 15 14 14 14 16 23 22 39 38 27
46 54 61 59 52 47 42 37 31 27 15 9 6 4 3 4 5 4 4 4 4 4 4 4 3 4 4 4 4 5 6 6 7 7 9 13 13 16 14 13 12 12 11 17 27 29 22
48 59 63 65 56 54 36 36 36 36 25 12 7 4 4 4 5 5 4 4 4 5 4 5 3 4 5 5 5 5 6 7 8 9 10 10 11 14 14 14 13 13 13 14 12 12 20
52 69 65 71 54 53 35 34 36 30 35 15 9 5 4 4 5 5 5 4 4 5 6 6 6 4 5 8 7 6 6 8 8 9 9 9 11 13 12 12 14 14 14 13 13 11 21
60 75 61 68 50 48 41 34 36 37 30 21 11 6 5 4 4 5 6 5 4 4 6 8 9 6 6 9 12 9 9 9 9 9 14 16 15 15 15 15 14 15 15 15 14 13 13
60 69 62 63 41 50 40 33 34 44 37 28 14 7 5 4 4 5 6 5 5 5 6 8 10 11 7 7 11 17 16 14 14 14 14 14 15 18 21 20 18 18 18 17 16 16 14
63 64 60 57 44 48 39 33 37 45 34 43 22 7 6 5 4 5 6 6 5 5 5 6 7 12 11 10 12 15 18 20 21 22 24 26 24 20 18 18 19 18 18 19 18 18 17
58 63 59 48 51 51 37 29 36 43 57 47 26 11 7 6 5 4 5 6 5 6 6 6 7 10 13 14 15 17 21 22 24 24 29 26 26 26 26 24 22 20 18 18 18 20 18
55 64 60 45 46 55 36 27 32 45 50 63 65 20 9 6 5 5 5 5 6 6 6 7 8 10 13 14 15 17 19 21 25 26 26 28 30 30 31 30 28 24 20 17 17 17 17
61 62 57 41 40 47 37 26 28 35 55 59 63 26 12 7 6 5 5 5 5 6 6 7 9 11 16 17 17 18 20 22 23 24 25 26 28 28 26 26 26 25 22 20 17 17 17
57 64 50 35 44 43 38 26 26 35 39 50 81 42 15 9 6 5 5 5 5 5 6 6 8 11 14 23 22 19 20 24 24 25 25 26 27 28 30 30 27 28 28 26 24 19 18
57 50 38 37 47 43 32 22 24 40 39 57 66 58 22 10 6 6 5 5 5 6 6 7 7 8 10 12 24 29 24 23 23 25 26 24 24 24 29 31 39 41 44 43 32 28 21
53 45 34 36 42 39 27 20 20 35 42 54 53 49 40 14 6 6 5 5 5 6 6 6 7 9 12 14 19 30 36 32 27 26 24 26 26 26 24 24 28 40 38 44 36 37 38
49 37 35 45 43 34 27 22 18 24 30 49 49 46 28 13 8 7 6 5 5 5 6 7 7 8 11 13 17 25 42 47 52 45 37 30 27 29 27 29 30 36 42 48 49 47 48
41 41 46 46 38 36 26 26 24 25 26 41 42 33 24 13 9 7 6 5 5 5 6 6 7 8 10 12 14 18 25 40 45 48 54 53 42 37 35 34 38 32 32 34 44 51 55
43 41 50 45 39 34 28 26 21 24 27 28 38 20 18 13 8 6 6 5 5 5 6 7 7 8 9 10 12 17 22 30 42 52 54 56 56 54 46 50 51 31 37 37 36 38 48
45 48 50 48 35 30 24 20 18 18 26 27 33 26 18 13 11 6 5 5 5 6 6 8 8 8 8 10 11 14 18 23 31 44 63 64 61 59 60 59 49 35 57 51 47 42 41
44 48 44 41 30 30 21 20 21 21 25 24 28 24 20 14 8 7 5 5 5 6 6 8 8 8 9 10 13 14 16 20 23 32 57 67 67 65 64 63 60 46 53 56 58 53 52
50 45 40 37 30 30 18 19 16 19 20 29 32 30 18 10 6 6 5 5 5 5 6 7 8 9 10 10 12 13 14 19 22 24 36 62 67 72 72 66 73 66 62 66 76 74 74

GFSGBSN_250_rhum_066.txt.gz
RH
26 26 37 38 35 34 24 16 13 8 5 5 4 3 2 2 2 2 2 2 2 2 2 2 2 2 2 4 4 4 5 6 7 8 8 9 10 11 14 16 20 75 100 100 100 100 100
26 26 30 39 38 35 40 22 14 9 6 5 4 3 2 2 2 2 2 2 2 1 1 1 1 2 2 3 3 5 5 5 6 8 8 10 12 11 14 16 17 67 100 100 89 100 100
27 25 30 36 41 34 41 29 16 13 8 6 5 3 2 2 2 2 2 2 2 1 1 1 1 1 2 2 4 4 4 5 6 8 8 12 11 12 13 15 19 63 93 100 98 100 100
30 29 28 33 38 44 36 47 17 16 10 6 6 4 2 2 2 2 2 2 2 2 1 1 1 1 1 2 3 4 5 6 6 8 9 10 12 12 13 15 18 36 56 84 89 100 96
36 30 28 32 37 38 32 49 37 21 12 8 7 5 2 2 2 2 2 2 2 2 1 1 1 1 1 2 3 3 5 5 6 9 11 10 12 12 13 16 18 23 32 59 87 89 100
41 31 28 31 37 36 40 44 49 22 14 9 7 6 3 2 2 2 2 2 2 2 1 1 1 1 2 2 2 3 5 5 6 10 12 12 11 12 13 17 28 36 41 59 100 88 98
49 37 29 28 37 39 43 42 53 27 17 11 8 5 3 2 2 2 2 2 2 2 2 2 2 2 2 2 2 3 4 5 6 10 13 12 10 12 17 20 48 65 61 92 100 92 94
49 47 29 25 42 53 45 50 51 34 21 13 10 7 4 2 3 3 3 2 2 2 2 2 2 2 2 2 2 3 4 5 6 11 14 10 13 14 14 20 61 65 78 78 90 76 51
51 47 35 24 42 55 47 45 53 36 23 14 10 8 4 3 3 3 4 3 2 3 2 2 2 2 2 2 2 3 3 3 6 11 10 10 15 14 16 17 37 64 65 56 64 61 52
57 44 42 26 38 55 51 49 55 39 28 17 14 9 5 3 3 3 4 4 3 3 3 3 2 2 2 2 2 2 3 4 6 11 11 12 16 15 16 16 26 56 46 31 27 26 25
76 42 50 32 38 54 51 47 54 41 37 20 17 9 7 4 3 3 4 5 4 3 4 4 3 3 2 2 3 2 3 4 9 14 12 12 17 17 16 16 18 77 55 56 43 38 42
79 52 47 35 37 53 50 49 48 39 39 30 20 16 9 4 4 3 4 4 4 4 4 4 4 3 3 3 3 3 4 5 9 12 11 11 16 19 17 16 16 48 81 81 60 35 34
90 66 44 39 34 50 54 53 46 43 36 44 27 19 11 5 4 3 4 4 5 4 4 4 5 5 4 4 4 4 5 5 8 8 9 9 12 18 20 18 16 16 54 76 38 24 27
86 76 48 40 35 48 54 51 50 45 37 45 38 24 13 8 4 4 4 4 5 5 4 4 6 7 5 5 6 6 7 7 8 10 11 11 13 16 18 19 18 18 18 26 25 39 80
82 69 52 36 34 49 54 51 42 40 31 39 36 32 16 10 6 5 4 4 4 5 5 5 5 8 8 5 6 7 9 12 11 10 11 13 17 15 17 19 19 18 17 17 17 24 82
88 66 53 38 30 48 57 56 44 38 30 40 43 39 21 11 7 5 5 4 5 5 5 5 6 8 10 8 7 9 10 16 20 20 17 16 17 14 13 15 18 18 17 18 18 20 65
96 68 53 37 34 45 65 56 46 44 31 34 46 34 37 15 8 7 7 5 5 5 5 5 6 6 11 11 9 9 10 13 14 17 18 19 19 18 20 19 17 15 17 18 21 22 20
84 78 53 38 33 47 68 54 50 45 34 31 43 46 42 23 11 7 7 7 5 6 5 6 6 7 9 13 14 11 11 10 12 15 16 18 21 26 32 30 28 26 23 20 22 24 25
84 73 60 39 35 52 63 52 54 45 34 30 38 43 52 35 34 7 8 6 6 6 6 5 6 7 9 14 15 16 15 13 13 14 16 17 19 18 21 24 26 24 27 24 23 23 22
81 74 59 38 43 65 62 52 55 48 40 34 40 43 52 29 37 10 8 7 6 5 6 6 6 6 7 11 16 17 17 17 17 19 23 24 25 23 25 23 23 23 21 20 20 19 18
76 60 50 40 52 65 62 52 48 47 38 34 36 43 41 38 35 12 6 6 6 5 6 6 6 7 7 9 14 22 20 19 20 20 21 24 26 26 27 25 24 24 22 20 18 17 17
69 56 44 41 53 64 55 50 45 38 35 42 29 33 44 45 34 21 6 6 6 6 5 6 6 7 8 10 10 20 26 22 21 22 23 24 27 28 32 30 31 30 26 22 20 20 18
69 42 40 40 56 60 48 43 46 37 37 42 34 32 38 54 37 28 12 8 6 5 6 6 6 7 7 9 10 15 25 30 29 25 26 26 25 26 28 27 28 32 29 25 25 25 24
61 36 35 49 59 60 43 39 42 37 42 41 30 30 42 50 41 37 16 8 7 6 5 5 6 6 7 8 10 12 19 28 38 39 29 25 26 28 28 31 30 32 35 35 33 35 46
45 29 37 51 62 47 39 33 36 38 36 41 33 28 33 47 40 37 16 9 6 6 6 5 6 6 7 8 9 11 13 16 34 45 50 46 35 27 26 28 34 30 38 43 36 37 46
33 34 50 59 58 39 38 41 39 38 32 37 34 24 30 33 42 47 20 13 9 6 6 6 6 6 7 8 10 11 12 16 20 26 48 61 64 58 41 30 27 27 31 34 39 48 50
36 47 48 59 46 36 41 48 43 41 37 35 33 24 24 28 39 58 19 12 9 6 6 6 6 6 7 9 11 12 13 15 20 25 29 51 64 69 69 56 43 29 36 34 34 36 40
50 52 56 50 43 41 46 53 54 44 35 29 27 21 23 28 50 44 23 16 10 6 6 6 7 7 7 8 9 11 13 15 17 20 25 28 42 68 71 69 71 64 60 50 50 45 45
66 56 53 46 45 40 47 52 54 38 39 28 22 22 21 25 36 41 31 15 11 5 6 6 7 8 8 9 10 11 12 14 15 17 23 27 26 36 61 68 70 76 75 72 61 58 59

GFSGBSN_250_rhum_072.txt.gz
RH
80 80 69 52 53 60 51 36 31 26 24 22 13 9 8 6 4 3 2 2 2 2 2 2 2 1 1 1 2 2 4 4 4 5 6 7 7 10 10 13 15 14 13 13 15 16 20
86 83 72 62 56 55 55 33 40 31 27 21 20 10 7 5 4 3 2 3 2 2 2 2 2 2 2 2 2 2 3 4 4 5 6 8 7 9 10 12 14 15 15 14 13 19 23
96 91 86 70 56 56 55 45 42 29 21 20 29 15 10 6 6 4 2 2 2 2 2 2 2 2 2 1 2 2 2 3 5 5 6 8 8 8 9 11 12 14 16 14 13 18 23
92 96 93 77 71 48 56 54 49 27 28 23 26 21 10 6 6 4 2 2 2 2 2 2 2 2 2 2 2 2 2 3 5 6 6 7 8 9 9 9 10 13 17 15 15 17 19
91 99 98 79 71 58 60 56 47 28 29 23 25 26 23 9 6 4 3 2 2 2 2 2 2 2 2 2 2 2 2 3 5 6 5 7 8 9 9 10 9 12 17 16 19 16 20
85 100 100 82 75 71 69 58 45 34 32 26 27 34 32 16 8 4 3 2 2 2 2 2 2 2 2 2 2 2 2 4 4 7 6 7 7 9 10 10 12 16 18 20 21 18 21
82 99 100 87 82 74 76 70 55 34 33 26 25 37 37 25 9 4 4 3 3 2 2 2 2 2 2 2 2 2 2 2 4 5 8 8 7 8 13 15 16 19 20 21 22 28 18
88 100 100 85 93 79 77 69 58 41 33 32 22 45 45 31 12 5 4 3 3 2 2 2 2 2 2 2 2 2 2 2 3 5 9 8 8 9 11 12 16 18 20 19 20 32 22
100 95 100 87 88 84 81 74 62 49 42 28 22 45 42 36 20 7 4 3 3 2 3 2 2 2 2 2 2 2 2 2 4 6 7 8 9 9 11 12 14 20 20 21 22 22 28
100 98 100 93 85 87 83 82 67 55 45 37 23 48 45 43 25 10 5 4 4 3 3 2 3 3 2 2 2 2 2 3 4 5 10 10 9 11 11 14 16 19 19 19 21 21 32
100 100 100 95 84 88 93 80 74 59 52 42 27 51 49 46 32 17 6 5 5 3 3 3 3 3 2 2 2 2 3 3 5 8 12 10 11 13 11 15 17 20 19 18 19 22 23
100 100 100 91 84 91 99 82 77 62 59 45 33 55 45 48 33 33 7 6 5 4 3 3 3 3 3 3 2 2 3 4 6 8 14 12 13 12 12 12 16 18 19 19 19 21 22
100 100 100 94 84 91 98 88 82 67 70 46 28 53 51 48 36 38 15 5 6 7 4 3 3 3 3 3 3 2 3 5 6 8 12 13 13 12 13 13 14 18 19 20 21 21 25
100 100 100 97 100 88 99 87 86 67 74 53 32 53 55 47 38 36 36 6 6 10 5 3 3 3 4 4 4 3 4 4 6 7 11 13 10 11 13 14 17 20 21 20 23 23 25
100 100 99 100 99 92 100 94 85 69 76 61 35 53 52 44 46 42 44 13 8 8 12 4 4 3 4 4 6 4 5 6 7 8 10 12 12 16 16 14 17 19 20 22 24 23 23
100 100 100 100 90 98 93 96 91 78 79 65 43 54 50 45 49 44 44 25 10 9 12 7 4 4 4 5 5 6 5 6 10 11 14 14 15 18 20 17 20 20 22 22 23 25 23
100 100 100 99 89 99 86 100 98 90 81 67 46 52 52 46 46 51 52 39 13 12 13 8 5 4 4 5 7 8 8 7 9 12 17 19 21 22 25 24 22 25 24 23 25 27 26
100 100 100 99 92 90 96 100 94 91 81 74 48 51 48 45 46 51 54 63 11 10 11 10 5 4 5 6 6 9 9 10 9 10 14 18 25 28 30 25 23 24 24 23 22 27 28
97 98 100 96 96 86 99 100 92 92 82 77 52 47 42 41 50 48 48 57 28 13 11 11 6 5 5 5 7 8 11 10 12 9 10 13 20 26 30 32 34 33 37 31 30 30 31
100 100 100 94 99 86 98 100 96 93 87 79 58 50 45 36 45 52 46 54 50 13 11 9 6 5 5 6 6 7 9 11 12 14 11 11 11 14 18 24 30 33 32 34 31 30 35
100 100 100 98 92 83 99 97 92 97 87 74 63 47 44 42 49 52 45 65 66 15 11 9 6 5 5 6 6 7 8 14 14 16 17 15 15 13 11 13 17 23 25 22 23 30 26
100 100 100 100 91 90 96 93 96 96 87 70 53 50 41 43 47 50 44 56 77 34 10 11 5 4 4 6 7 7 8 9 16 18 19 20 18 17 16 15 12 13 15 20 22 21 25
100 100 100 100 99 91 92 87 100 95 78 61 49 48 45 50 50 57 43 53 60 67 14 12 7 5 4 5 7 8 8 10 13 20 23 22 24 24 22 22 19 20 16 15 15 17 19
100 100 100 100 99 86 89 92 94 88 74 56 52 50 61 56 50 57 41 44 51 64 54 22 9 5 5 5 6 8 9 10 11 16 21 26 27 25 25 28 29 25 21 20 21 21 23
100 100 100 100 99 96 94 88 96 86 67 55 59 59 69 54 51 54 43 43 51 53 61 46 23 6 5 6 6 7 9 10 12 14 22 29 36 37 28 29 29 27 28 27 28 25 25
100 100 100 100 100 94 78 90 93 72 64 66 70 65 64 56 48 57 48 40 46 57 69 58 37 12 5 6 7 8 9 11 12 12 17 24 30 37 45 45 36 29 29 32 33 31 34
100 100 100 100 94 79 88 93 87 72 75 75 69 66 64 56 46 46 46 41 42 54 71 51 36 17 8 5 7 8 10 11 14 13 16 18 21 28 38 55 52 50 49 37 36 42 41
100 100 100 95 86 93 92 93 91 83 84 79 72 73 67 56 51 46 45 42 42 45 69 57 34 25 10 6 7 8 11 13 14 15 15 18 22 25 37 39 54 69 67 67 58 43 36
100 100 100 90 97 98 94 93 91 91 83 76 71 81 66 52 52 43 48 45 43 38 53 57 50 29 17 13 7 8 10 12 16 19 18 18 19 21 24 28 38 57 68 76 83 78 60

GFSGBSN_250_rhum_078.txt.gz
RH
70 72 59 57 55 59 74 79 65 60 59 51 42 34 37 26 15 10 7 5 6 6 3 2 2 2 2 2 2 2 2 3 3 3 4 5 6 7 8 11 12 10 11 12 14 16 24
61 67 58 60 61 67 78 82 68 65 68 60 51 41 39 28 24 12 10 5 6 5 4 2 2 2 2 2 2 2 2 2 3 4 4 5 6 7 8 13 13 11 12 12 16 16 18
62 67 62 63 67 70 83 86 86 72 74 60 50 55 40 39 35 14 11 6 6 5 3 3 2 2 2 2 2 2 2 2 3 4 4 4 6 7 8 14 14 12 12 13 14 17 17
78 70 65 63 62 75 84 89 88 80 77 68 52 57 41 43 30 19 15 7 5 6 3 2 2 2 2 2 2 2 2 2 3 3 4 5 6 8 8 11 16 16 13 12 13 17 18
88 84 70 67 65 73 83 97 88 80 81 70 57 65 41 42 30 24 20 8 5 6 3 2 2 2 2 2 2 2 2 2 2 2 6 6 5 7 10 11 14 17 16 14 13 14 20
89 83 68 75 68 74 80 90 87 84 77 68 68 65 42 45 40 28 22 11 5 5 2 2 2 2 2 2 2 1 2 2 2 2 6 6 6 6 10 10 12 17 18 14 15 14 18
100 87 73 76 72 68 83 89 79 85 81 73 62 65 51 45 37 30 20 18 5 5 3 2 2 2 2 2 2 1 2 2 2 2 6 7 6 7 10 12 11 13 20 22 17 18 16
100 98 85 83 71 74 87 85 83 84 76 70 70 64 61 45 47 36 28 23 12 6 3 2 2 2 2 2 2 1 2 2 2 3 5 9 8 8 9 11 12 14 17 20 21 17 16
100 100 98 92 75 70 89 82 86 89 76 68 74 64 58 44 60 40 43 27 13 5 4 3 2 2 2 2 2 2 2 2 2 4 6 9 10 10 10 12 13 13 14 17 21 20 16
100 100 100 100 83 76 88 84 86 93 71 69 72 61 62 48 57 44 45 28 16 4 5 3 2 2 2 2 2 2 2 2 2 6 7 10 12 11 11 12 13 15 14 15 14 16 18
92 93 96 98 87 76 80 79 86 90 81 76 76 62 66 53 54 49 49 31 20 10 4 4 3 2 2 3 2 2 2 2 2 7 7 8 11 13 12 12 14 17 15 14 14 13 14
90 86 97 98 91 80 91 77 91 92 85 80 77 63 70 60 57 53 47 32 23 13 4 4 3 2 2 3 3 2 2 2 3 6 7 9 10 14 12 13 14 16 18 16 15 14 14
89 82 98 92 83 80 96 78 98 95 82 82 77 66 81 66 59 47 49 35 26 20 5 4 3 3 3 3 3 3 3 3 3 4 5 5 9 18 15 15 15 18 17 16 16 16 17
69 88 92 94 89 84 96 89 97 96 81 85 79 68 76 68 58 56 51 35 30 22 7 4 4 4 3 3 4 4 4 4 3 4 5 7 10 15 19 17 16 17 18 17 19 21 19
57 87 84 100 89 93 87 94 99 90 83 88 78 76 70 69 67 55 53 35 31 29 12 4 4 5 5 4 4 5 4 4 4 4 6 8 12 18 20 18 16 15 16 17 19 21 19
59 86 95 97 89 93 100 94 100 91 79 95 80 82 75 73 72 51 54 36 35 34 29 7 4 4 5 6 4 4 6 5 5 6 6 8 12 17 20 19 18 16 15 16 17 19 18
69 97 99 100 92 100 91 99 100 98 84 94 79 81 77 80 77 52 59 38 36 43 38 17 4 4 6 6 5 6 5 6 6 6 8 10 11 15 20 23 22 18 16 17 19 20 20
78 100 96 100 91 99 100 100 100 99 94 93 83 82 87 82 75 53 58 40 35 51 53 38 8 4 5 7 6 5 7 7 8 8 8 10 15 20 20 21 22 22 19 18 18 18 17
99 100 100 100 100 100 100 100 100 100 91 87 86 82 97 75 83 60 62 39 44 51 55 51 27 6 4 6 7 6 6 8 9 9 8 10 12 18 24 28 28 30 26 22 21 20 21
98 100 100 100 100 100 100 100 100 100 88 86 82 93 94 82 82 61 60 36 41 53 60 57 50 19 8 6 8 8 6 6 8 10 11 10 10 13 17 20 27 28 29 29 30 31 28
100 100 100 100 100 100 100 100 100 98 92 85 89 98 83 89 86 64 61 39 37 55 57 58 51 45 16 12 9 8 8 7 7 9 12 12 11 12 15 19 25 26 26 24 26 27 28
100 100 100 100 100 100 100 100 100 93 91 88 100 87 89 80 96 69 60 37 38 52 56 63 62 58 35 18 14 12 8 8 8 8 9 12 15 13 13 18 20 26 27 27 26 24 30
73 100 100 100 100 100 100 100 99 82 77 97 100 83 82 83 95 65 57 38 39 47 52 66 69 69 56 28 18 12 11 9 8 9 10 9 10 16 16 15 16 19 20 23 26 26 26
84 100 100 100 100 100 100 100 95 85 86 100 100 85 82 84 91 66 52 37 43 50 50 56 71 70 63 54 31 14 14 12 9 9 10 11 10 10 15 18 17 16 16 16 18 23 29
75 100 100 100 100 100 100 99 92 85 96 100 100 86 84 97 86 67 52 42 44 50 48 53 67 71 60 63 42 29 16 13 10 9 10 11 12 13 12 20 21 19 18 21 20 20 19
64 90 100 100 100 100 100 100 96 100 100 100 96 92 86 84 92 64 56 43 48 51 45 54 65 70 57 63 52 37 18 13 12 10 11 12 12 15 15 17 18 19 26 25 24 25 26
50 70 100 100 100 100 100 100 100 100 99 100 93 100 87 94 86 70 59 45 53 47 46 47 60 70 72 68 58 42 24 18 17 12 11 12 13 15 17 18 19 22 30 33 39 32 27
46 55 92 100 100 100 100 100 100 100 100 100 89 98 90 98 67 75 60 54 50 47 50 56 54 63 69 67 64 52 26 22 20 15 12 12 12 14 18 23 18 24 32 34 38 40 46
49 47 76 100 100 100 100 100 100 100 100 100 94 95 98 90 64 77 60 55 47 47 47 55 51 58 58 65 60 59 38 25 20 21 16 13 12 12 13 17 24 23 28 33 35 35 38

GFSGBSN_250_rhum_081.txt.gz
RH
44 40 51 70 83 77 74 68 75 72 68 67 82 50 54 44 39 42 26 15 6 6 5 4 4 2 2 2 2 2 2 2 2 2 3 3 4 5 6 10 14 16 13 12 11 8 12
45 43 47 82 92 84 73 71 76 76 67 75 79 52 53 48 42 51 29 16 7 6 4 4 4 2 2 2 2 2 2 2 2 3 3 3 4 5 6 9 12 20 14 11 10 12 13
49 45 50 86 98 93 82 74 77 78 68 80 77 53 48 48 49 54 34 16 8 6 4 4 3 2 2 2 2 1 2 2 2 2 4 4 4 4 6 8 14 16 15 13 12 12 13
53 46 74 91 100 98 91 87 84 79 78 80 79 57 51 51 57 50 38 26 9 7 6 4 2 2 2 2 2 2 2 2 2 3 4 4 4 5 6 8 11 17 17 14 12 13 14
56 50 92 86 100 93 95 99 94 87 86 77 74 66 61 49 70 54 39 30 12 8 7 4 2 2 2 2 2 2 2 2 2 2 3 5 6 5 6 8 11 14 16 16 14 12 15
60 60 100 98 100 100 100 100 100 98 92 86 66 72 61 56 67 53 42 39 21 8 7 4 3 2 2 2 2 2 2 2 2 2 3 5 5 5 6 8 10 12 14 15 15 14 15
63 69 98 100 99 100 100 100 100 100 94 87 70 78 61 58 73 62 43 41 30 9 6 3 3 2 2 2 2 1 2 2 2 2 3 5 6 7 7 9 12 13 19 19 18 14 15
69 74 97 100 100 100 100 100 100 100 94 95 72 81 67 64 68 58 42 46 34 12 6 4 4 2 2 2 1 1 2 2 2 2 4 5 7 8 7 8 10 13 13 20 20 21 18
63 81 100 100 100 99 100 100 100 100 93 97 79 90 73 67 71 57 46 44 34 15 6 4 3 2 2 2 2 1 2 2 2 3 4 5 6 8 8 8 12 14 14 18 24 23 18
65 88 100 100 100 100 100 100 100 100 92 100 87 90 73 70 75 61 48 45 42 20 7 4 3 2 2 2 2 2 2 2 2 3 4 5 7 12 10 10 12 14 15 20 28 24 20
75 92 100 100 100 100 100 100 100 100 100 100 83 82 68 76 75 64 51 48 42 25 9 4 3 3 2 2 2 2 2 2 2 4 6 7 9 15 12 11 14 16 17 23 23 26 22
83 93 100 100 100 100 100 100 100 100 100 100 91 86 71 84 80 68 54 56 51 27 13 5 2 3 2 2 2 2 2 2 2 3 5 7 12 16 13 12 13 16 16 16 17 20 23
74 85 88 97 92 93 81 96 100 100 100 100 89 86 75 82 86 71 55 60 48 32 16 5 3 3 3 2 2 3 3 3 3 4 5 7 10 16 15 13 13 15 17 17 16 19 24
53 87 80 80 80 87 83 88 100 100 100 100 92 93 83 82 81 70 55 64 46 33 20 6 4 3 4 3 3 4 4 4 4 4 5 5 9 14 15 14 16 16 16 16 17 18 17
52 65 62 79 68 70 73 76 100 100 100 100 100 95 92 81 85 69 53 65 49 34 26 11 5 4 4 5 3 4 5 5 4 6 7 12 15 16 17 16 16 16 14 19 19 20 20
54 66 63 68 53 66 72 79 100 100 100 100 100 95 98 86 75 74 56 64 49 40 36 18 7 4 3 6 6 4 6 6 6 6 8 10 14 20 22 21 18 17 18 20 19 19 17
49 61 65 61 57 68 77 76 100 100 100 100 100 99 92 96 73 78 62 68 49 42 46 32 10 6 5 5 8 7 5 8 8 8 8 8 12 16 22 25 24 20 20 19 19 20 18
48 59 53 65 66 86 73 92 100 100 100 100 99 99 85 99 73 79 65 67 51 44 49 42 21 8 6 6 9 11 7 6 9 9 9 10 12 15 16 20 24 24 21 20 19 18 17
65 65 63 74 87 92 80 100 100 100 100 100 90 96 84 92 77 80 70 66 50 40 51 50 34 11 8 7 9 10 10 7 7 10 10 11 13 16 19 22 23 25 24 22 18 18 19
60 60 80 84 93 99 100 100 100 100 100 100 94 94 91 74 81 90 77 69 51 39 50 53 43 31 10 8 10 10 10 9 8 8 11 12 13 15 15 18 20 24 26 26 25 23 24
48 53 59 74 96 100 100 100 100 100 100 99 100 84 90 70 92 92 77 70 52 38 49 48 43 50 27 10 11 11 12 15 11 9 9 12 16 15 17 18 20 20 22 27 30 28 26
42 40 42 73 92 100 100 100 100 100 100 100 89 95 79 70 96 95 73 70 57 42 43 47 47 53 60 27 20 13 12 13 13 11 10 11 12 16 16 16 22 22 20 22 25 26 24
42 40 46 88 100 100 100 100 100 100 100 98 94 100 77 79 100 94 78 75 61 44 39 44 46 46 59 47 32 19 15 12 13 13 11 10 12 13 15 18 16 24 22 23 25 28 25
45 36 54 97 100 100 100 100 100 100 100 100 100 98 80 87 98 97 76 78 64 47 39 36 45 46 58 70 57 40 26 16 14 13 13 12 11 12 14 20 24 20 17 23 29 30 31
40 41 57 88 100 100 100 100 100 100 100 98 100 88 91 86 93 98 80 76 65 48 35 38 45 44 53 63 69 61 37 23 16 13 13 12 11 13 15 16 23 29 25 24 21 19 22
41 47 70 98 100 100 100 100 100 100 99 94 100 100 84 82 98 96 80 75 69 54 37 39 40 45 50 58 62 74 51 37 24 16 17 15 12 11 12 16 18 18 20 33 31 27 26
45 52 70 84 100 100 100 100 100 94 94 95 100 96 71 92 98 87 74 74 71 60 43 36 34 49 46 56 54 65 64 47 41 32 20 18 14 11 12 13 16 17 18 21 24 40 27
49 57 66 79 100 100 100 100 100 100 98 97 98 81 90 96 99 88 75 75 72 65 50 37 41 46 50 46 48 50 59 60 35 25 27 17 17 13 12 13 13 14 21 24 28 34 34
56 61 54 74 84 100 100 100 100 100 100 92 99 87 98 100 100 91 70 70 70 62 51 44 48 51 50 47 50 49 55 56 47 38 28 27 20 18 11 12 14 16 18 22 27 33 37

GFSGBSN_250_rhum_084.txt.gz
RH
35 38 41 43 48 62 59 76 75 89 99 87 88 96 69 71 61 40 46 39 27 13 5 6 3 3 3 2 2 2 1 2 2 2 2 3 3 4 4 8 9 12 17 16 21 14 14
42 40 42 50 56 65 57 88 91 87 100 91 92 97 80 79 74 48 49 48 29 12 6 4 3 3 2 2 2 2 1 2 2 2 2 3 3 4 5 6 8 13 14 22 20 15 17
46 49 46 53 56 66 61 85 100 95 100 100 96 92 91 92 73 51 54 45 31 13 7 4 3 3 2 2 2 2 1 2 2 2 3 3 4 4 5 6 7 10 13 19 23 16 21
50 54 59 60 54 71 67 83 100 98 100 100 100 86 97 100 77 51 52 41 29 13 7 4 3 3 2 2 2 2 1 1 2 2 2 3 3 4 6 6 8 8 16 24 23 24 20
56 52 72 67 68 58 72 88 100 100 100 100 100 88 96 94 75 55 51 40 26 12 7 4 3 2 2 2 2 2 1 1 2 2 2 3 4 4 5 6 8 10 16 27 28 28 20
61 58 74 77 70 63 77 80 100 100 100 99 100 94 100 94 76 57 54 38 26 14 7 4 3 3 2 2 2 2 1 1 1 2 2 3 5 4 4 6 6 9 15 26 34 29 20
74 64 79 76 75 71 81 89 100 100 100 98 100 100 100 92 79 57 55 42 34 16 7 5 3 3 2 2 2 2 1 1 1 2 2 3 5 6 6 9 9 16 21 29 36 33 24
79 75 77 80 78 82 76 92 100 100 100 100 100 100 100 91 82 61 59 48 35 18 7 6 4 3 2 2 2 1 1 1 2 2 2 3 4 7 7 8 8 11 16 23 33 38 24
76 79 82 82 80 78 80 92 100 100 100 100 100 100 100 92 82 63 61 49 39 25 8 6 4 3 2 2 2 2 1 1 2 2 3 3 4 8 9 8 6 9 14 13 17 18 16
90 84 78 83 72 94 84 85 100 100 100 100 100 100 100 94 84 68 63 53 46 37 8 9 5 3 2 2 2 2 1 1 2 3 3 4 5 8 11 9 9 10 13 14 16 17 17
100 87 84 98 68 79 92 86 100 100 100 100 100 100 100 92 82 67 65 54 49 42 8 10 6 3 2 2 2 2 1 2 2 2 3 4 5 7 12 10 8 10 11 12 15 17 16
100 86 86 87 71 91 75 86 100 100 100 100 100 100 100 96 78 73 66 57 47 44 11 9 6 4 3 2 2 2 2 2 2 3 3 4 6 9 14 13 10 10 11 12 13 13 16
100 91 100 84 64 96 90 86 98 94 100 100 100 100 100 100 72 78 71 58 46 45 21 12 7 4 3 3 2 2 2 2 2 4 4 5 8 14 19 16 12 11 13 17 18 16 18
100 98 100 73 74 88 91 91 98 100 100 100 100 100 100 97 73 78 69 55 52 58 40 13 9 5 4 3 3 2 4 3 3 4 4 6 7 11 16 17 14 12 14 16 16 17 18
92 100 95 64 71 84 100 91 94 99 100 100 100 100 100 90 76 74 78 56 64 59 45 17 10 7 4 4 4 4 4 5 4 5 8 6 8 10 15 18 15 12 12 16 18 19 19
97 100 75 57 80 92 98 91 93 100 100 100 100 100 100 84 81 75 70 54 64 57 46 26 12 8 6 5 6 7 5 6 6 7 8 12 11 12 15 16 16 14 16 16 16 17 17
99 100 76 59 66 81 100 98 100 99 100 100 100 100 100 86 79 79 64 55 64 58 49 36 16 9 8 6 7 10 9 7 9 9 8 8 9 13 18 22 20 17 15 15 16 16 18
100 100 91 54 78 100 100 100 100 100 100 100 100 100 100 86 82 79 63 58 67 57 47 38 24 12 8 8 6 9 12 10 8 11 11 10 11 13 16 20 21 21 18 17 18 17 18
89 100 71 68 100 100 100 99 100 100 100 100 100 100 100 90 89 74 64 64 70 56 46 38 30 23 12 10 8 9 10 12 11 9 12 13 12 13 16 21 24 26 23 21 20 22 21
83 94 65 71 85 93 96 93 100 100 100 100 100 100 100 92 90 76 61 68 69 58 47 41 34 32 22 18 14 14 12 12 12 12 11 13 14 15 15 17 21 24 28 26 23 23 21
100 100 75 67 80 95 90 91 100 100 100 100 100 100 98 94 85 81 62 70 70 57 45 43 36 33 37 26 19 17 16 14 14 13 12 11 13 18 19 18 19 17 22 30 35 31 30
95 64 79 76 77 80 96 91 100 100 100 100 100 100 95 95 87 79 66 67 71 62 48 40 39 37 41 51 45 27 25 20 19 16 14 15 11 11 15 20 21 24 25 22 29 28 31
100 93 88 94 77 91 85 95 100 100 100 100 100 99 99 95 88 81 71 63 70 62 47 41 41 36 39 45 58 49 39 26 20 19 17 14 14 13 12 12 20 25 22 24 27 28 23
81 98 100 87 78 71 78 100 100 100 100 100 100 100 100 95 84 86 81 65 70 61 50 46 38 40 40 44 56 63 61 46 35 24 18 19 18 14 13 13 14 17 21 22 21 25 27
96 97 86 91 68 76 100 100 100 100 100 100 100 100 100 100 87 85 82 72 72 68 56 51 40 39 38 40 44 59 70 63 60 40 29 21 16 16 15 12 13 14 15 18 27 27 29
87 99 99 70 58 85 100 100 100 100 100 100 100 100 100 99 95 89 81 80 76 70 60 56 46 39 36 35 38 51 63 69 59 56 47 37 29 24 19 15 12 12 13 17 20 32 36
90 100 76 63 76 100 100 100 100 100 100 100 100 100 97 89 98 90 88 89 87 64 62 58 50 38 35 35 37 46 55 61 66 58 48 33 25 22 18 21 15 10 12 13 15 26 29
100 90 59 61 76 100 100 100 100 100 100 100 100 100 85 93 99 99 95 96 87 60 64 60 53 41 34 33 34 38 48 57 57 69 58 36 25 17 15 16 18 14 10 11 14 18 24
79 63 50 71 88 100 100 100 100 100 100 100 100 97 90 100 100 94 95 100 78 68 66 70 64 52 41 40 36 35 41 48 54 66 66 69 46 41 27 20 17 16 12 9 10 13 16

GFSGBSN_250_rhum_087.txt.gz
RH
89 58 63 72 34 43 38 42 43 53 66 76 81 96 97 81 72 68 51 47 39 30 16 9 5 5 3 2 1 2 1 1 2 2 2 2 2 2 3 4 5 5 10 16 16 17 20
64 55 36 39 34 34 40 44 52 54 68 80 85 94 90 81 80 74 54 48 40 33 16 8 6 4 2 2 1 1 1 1 1 2 2 2 2 2 3 4 5 7 11 18 11 14 19
64 58 44 40 41 35 37 44 57 62 66 79 95 92 89 87 78 78 60 49 42 31 14 7 6 4 2 2 2 1 1 1 1 1 2 2 2 2 3 4 5 8 12 18 13 19 20
62 53 58 52 47 40 41 52 62 67 70 84 100 99 93 90 86 83 63 51 39 33 15 7 6 3 2 2 2 1 1 1 1 1 2 2 2 2 3 4 5 8 12 15 18 14 17
69 67 71 65 57 55 55 64 70 66 81 87 100 100 94 98 88 82 63 55 42 38 14 7 6 3 2 2 2 1 1 1 1 1 2 2 3 4 3 4 5 8 11 14 21 16 22
56 72 82 95 80 78 70 82 71 68 91 90 100 96 84 100 98 81 68 54 50 40 15 9 6 2 2 2 2 1 1 1 1 1 2 2 3 4 4 4 5 8 11 14 27 21 24
37 38 51 100 100 93 79 94 77 73 97 99 100 100 89 100 100 80 74 57 57 48 18 10 6 3 2 2 2 1 1 1 1 1 2 2 3 4 5 6 7 13 20 18 27 37 43
20 20 50 78 98 100 80 92 81 82 98 100 100 96 99 100 100 82 74 60 59 56 17 10 6 3 2 2 2 2 1 1 1 2 2 3 4 4 5 7 8 11 14 21 31 52 54
8 17 32 40 71 100 100 100 88 91 100 100 100 96 100 100 100 86 72 65 64 59 20 11 6 3 2 2 2 2 1 1 1 2 2 3 4 6 6 7 7 9 13 17 24 34 38
9 16 29 51 74 100 100 100 82 100 100 100 100 100 100 100 99 87 71 58 63 55 20 11 6 4 2 2 2 2 1 1 1 2 2 3 4 6 8 8 7 9 13 17 22 30 39
8 15 26 68 77 93 100 100 90 100 100 100 100 100 100 100 100 94 69 64 63 53 20 10 6 4 3 2 2 2 1 1 2 2 3 3 4 6 10 9 8 10 11 15 22 27 25
8 11 23 61 65 84 100 100 98 100 100 100 100 100 100 100 100 91 67 68 66 50 30 11 6 4 3 2 2 2 2 1 2 3 3 4 5 8 12 12 10 10 16 13 18 17 18
8 13 21 40 85 100 100 100 100 100 100 100 100 100 100 100 100 90 74 71 65 51 40 10 8 5 4 2 2 2 2 2 2 3 3 6 6 6 10 13 13 13 11 13 9 12 18
9 14 32 47 100 100 100 100 92 100 100 100 100 100 100 100 100 92 79 76 67 54 47 12 9 7 4 3 3 4 3 3 3 4 4 5 8 12 16 15 15 12 11 10 11 11 16
10 16 19 79 100 100 100 100 94 98 100 100 100 100 100 100 99 90 87 76 65 54 44 16 8 10 7 3 3 4 5 5 4 4 6 6 7 9 14 15 15 14 13 12 12 15 16
9 10 22 96 100 100 100 100 98 100 100 100 100 100 100 100 100 95 88 75 58 56 41 24 11 8 7 5 4 4 6 6 6 6 6 7 8 9 12 15 16 16 15 15 15 16 17
8 10 51 100 100 91 100 96 100 100 100 100 100 100 100 100 100 92 92 76 54 57 42 37 22 11 8 7 6 6 6 8 8 8 8 8 9 9 12 15 18 17 16 15 14 16 18
8 19 96 100 97 77 100 84 100 100 100 100 100 100 100 100 99 87 97 73 56 59 42 43 30 19 13 9 8 11 9 8 9 9 8 10 9 11 12 15 17 18 17 16 16 17 17
10 65 100 100 97 100 100 93 100 100 100 100 100 100 100 100 95 93 92 73 59 58 46 40 37 27 20 14 13 12 12 12 12 11 11 10 10 11 11 13 14 20 22 19 17 15 16
29 100 100 100 100 100 100 100 98 100 100 100 100 100 100 99 92 100 88 72 61 59 49 39 38 33 27 25 18 16 15 15 17 18 14 12 12 11 14 15 16 17 20 22 22 21 19
84 100 100 100 100 100 100 86 90 100 100 100 100 100 100 92 96 99 84 73 66 66 56 43 39 35 33 38 32 32 23 20 19 17 20 20 14 13 11 13 17 17 19 21 26 22 23
100 100 100 98 100 98 100 95 100 100 100 100 100 100 100 93 96 94 87 70 64 70 63 46 41 36 34 38 42 54 42 31 31 29 25 16 18 19 14 12 13 17 19 19 21 20 25
100 100 100 100 94 100 100 86 100 100 100 100 100 100 100 100 92 97 82 71 68 70 72 54 44 38 34 39 48 51 57 48 39 36 32 22 21 20 22 18 14 12 12 17 21 21 24
100 100 100 100 100 100 91 100 100 100 100 100 100 100 100 100 97 94 81 75 75 73 72 56 46 39 34 36 41 49 58 58 58 50 40 27 20 20 17 21 21 17 13 13 15 19 19
99 100 100 100 100 100 100 100 100 100 100 100 100 100 100 99 98 92 84 76 83 82 72 58 50 48 41 36 33 42 46 49 50 50 47 45 45 32 29 19 17 19 20 16 14 15 22
100 77 87 100 100 95 98 97 93 100 100 100 100 100 100 100 93 97 88 75 88 85 79 62 51 45 44 39 39 34 41 50 53 56 58 51 56 45 30 26 22 16 16 14 13 16 14
75 90 100 100 100 100 93 93 100 100 100 100 100 100 100 100 94 97 80 74 91 91 78 60 53 49 47 41 39 35 35 42 50 54 61 65 66 55 36 33 22 14 12 12 14 13 14
100 86 100 100 100 100 96 80 100 100 100 100 100 100 100 100 97 96 78 79 91 92 86 63 52 51 47 49 47 42 36 35 43 51 60 59 74 69 49 42 35 22 18 12 11 14 13
100 100 100 100 100 100 82 78 100 100 100 100 100 100 100 88 100 91 82 82 89 95 78 62 53 49 51 49 49 43 40 41 38 43 54 60 58 68 64 63 45 39 24 16 12 10 11

GFSGBSN_250_rhum_090.txt.gz
RH
34 26 39 46 55 48 44 43 39 39 55 60 67 64 60 65 75 63 61 45 41 31 20 10 7 7 4 4 2 2 1 1 1 1 2 1 2 2 2 3 4 4 5 7 11 19 22
33 39 33 38 39 51 39 49 51 53 55 60 79 75 76 68 76 66 66 50 44 33 18 9 7 6 4 4 2 2 1 1 1 1 2 2 2 2 2 3 3 5 6 7 13 17 21
40 48 48 59 47 42 39 51 62 72 77 61 84 83 93 72 82 71 67 58 49 33 19 9 8 6 4 3 2 1 1 1 1 1 1 2 2 2 2 3 4 5 6 7 9 14 21
19 27 38 49 61 62 59 61 66 84 79 76 92 94 99 84 81 71 72 71 52 34 20 9 9 7 4 2 2 1 1 1 1 1 1 1 2 2 2 3 4 5 6 8 12 27 18
11 13 20 32 44 45 44 55 75 67 57 85 100 100 99 90 78 87 79 76 57 40 16 9 9 8 4 2 1 1 1 1 1 1 1 1 2 2 3 3 4 5 6 6 13 13 15
11 10 10 14 17 18 18 26 53 54 60 98 100 100 100 96 87 93 85 75 59 45 16 10 11 7 3 2 1 1 1 1 1 1 1 1 2 3 4 4 4 5 5 6 6 12 11
11 8 8 8 10 12 12 17 36 49 57 100 100 100 100 100 95 99 90 73 68 48 15 11 10 6 3 2 1 1 1 1 1 1 1 2 3 4 4 4 4 6 7 6 10 15 11
9 9 7 7 9 9 16 18 44 35 59 100 100 100 100 100 100 100 89 83 76 50 14 9 10 7 3 2 2 1 1 1 1 1 1 2 2 3 4 5 5 6 8 9 11 15 19
7 8 7 7 7 10 21 21 30 39 89 100 100 100 100 100 100 100 98 94 77 49 18 11 11 8 2 2 2 2 1 1 1 1 2 2 3 4 6 6 6 7 9 9 13 21 29
6 6 7 6 8 11 21 17 35 68 100 100 100 100 100 100 100 100 100 100 75 59 24 15 11 7 3 2 2 2 1 1 1 2 2 2 3 5 9 8 7 8 9 11 16 21 30
5 6 6 6 6 9 19 16 45 90 100 100 100 100 100 100 100 100 100 100 79 64 37 16 13 6 3 2 2 2 2 1 2 2 2 3 3 5 7 7 8 9 10 11 16 26 37
3 5 6 6 6 11 13 28 64 100 100 100 100 100 100 100 100 100 100 99 77 73 46 17 13 6 3 2 2 2 2 2 2 2 3 3 5 6 10 9 9 9 10 12 17 31 32
3 3 4 5 7 10 13 48 83 100 100 100 100 100 100 100 100 100 100 93 77 80 50 15 12 7 4 3 2 2 2 2 2 3 3 4 6 7 12 9 9 8 11 15 17 24 33
3 3 4 4 8 10 21 60 100 100 100 100 100 100 100 100 100 100 100 88 77 72 51 23 11 7 5 3 2 3 3 3 3 3 4 5 7 9 13 12 11 10 11 13 15 16 22
4 3 3 3 7 12 31 57 100 100 100 100 100 100 100 100 100 100 97 86 78 64 57 34 13 8 7 4 3 3 4 4 4 4 4 5 5 7 10 14 14 12 13 15 15 15 18
4 3 3 3 7 16 50 76 100 100 100 100 100 100 100 100 100 100 91 82 78 56 55 34 17 10 7 5 4 4 4 5 6 6 5 6 6 6 7 12 13 14 13 12 13 14 19
4 3 3 4 6 39 62 100 100 100 100 100 100 100 100 100 100 100 92 82 74 55 50 39 20 16 11 7 6 6 7 7 6 7 6 6 7 9 9 12 17 14 14 13 12 11 13
4 4 4 4 14 46 80 100 100 100 100 100 100 100 100 100 100 99 90 83 70 55 52 40 25 19 13 9 8 6 6 6 7 9 10 9 9 9 10 11 14 16 17 16 14 12 14
5 4 5 8 40 75 100 100 100 100 100 100 100 100 100 100 100 95 89 84 69 57 51 41 35 27 21 18 16 15 14 9 8 8 10 9 11 10 11 12 13 14 17 19 18 16 15
4 4 6 19 45 90 100 100 100 100 100 100 100 100 100 100 100 93 92 82 69 60 51 45 37 29 27 27 26 25 22 20 18 13 11 9 10 11 11 11 14 14 16 18 20 22 20
5 6 18 54 84 86 100 100 100 100 100 100 100 100 100 100 97 98 95 81 69 63 53 51 38 33 30 32 34 36 30 28 24 20 23 22 15 11 11 12 11 12 15 16 18 19 21
6 6 24 68 70 100 100 100 100 100 100 100 100 100 100 100 93 100 96 83 67 69 50 54 44 34 29 31 38 41 38 44 38 35 32 34 30 20 15 14 14 13 14 13 14 17 21
7 14 41 48 78 100 100 100 100 100 100 100 100 100 100 100 95 100 98 81 68 72 55 56 46 33 32 35 36 45 46 49 48 46 42 43 35 31 26 19 21 15 14 13 13 14 16
10 43 45 49 97 100 100 100 100 100 100 100 100 100 100 99 89 100 100 85 69 76 65 59 52 42 38 36 37 42 43 49 48 56 55 51 44 42 41 42 32 26 16 14 13 12 14
16 33 35 71 100 100 100 100 100 100 100 100 100 100 100 98 95 100 100 90 75 84 75 63 57 45 40 38 37 40 39 44 46 52 57 58 65 60 48 32 22 25 28 17 15 13 13
17 33 48 87 100 100 100 100 100 100 100 100 100 100 99 94 94 100 100 95 80 88 85 75 58 50 42 46 41 39 41 42 44 50 47 50 60 64 68 55 54 31 23 18 21 17 15
26 43 82 100 100 100 100 100 100 100 100 100 100 100 99 93 92 100 100 96 86 92 92 77 59 54 47 50 50 49 45 42 46 51 48 50 57 61 58 56 55 52 37 37 28 22 13
32 75 99 100 100 100 100 100 100 100 100 100 100 100 100 94 90 99 96 95 90 93 95 82 65 57 53 52 57 57 59 52 46 48 46 49 53 55 56 59 59 47 52 32 31 29 21
38 89 100 100 86 100 100 100 100 100 98 95 100 99 95 83 87 93 98 83 84 92 95 85 73 63 54 52 54 60 65 62 56 54 49 48 50 55 60 63 72 76 73 64 43 25 22

GFSGBSN_250_rhum_093.txt.gz
RH
29 29 30 36 38 39 58 58 55 51 44 40 35 35 61 81 81 66 77 79 81 78 62 53 13 10 8 9 5 3 2 2 2 2 1 2 2 2 2 2 2 2 4 6 7 8 12
11 13 25 29 40 31 29 35 48 45 49 32 30 40 57 60 77 93 68 76 84 69 60 44 10 9 9 7 4 2 2 1 1 1 1 1 1 1 1 2 2 3 4 7 9 10 10
11 9 10 12 16 18 26 23 22 23 21 28 28 39 53 70 80 96 77 67 80 61 65 26 10 9 9 5 3 2 1 1 1 1 1 1 1 2 2 2 2 3 4 6 7 9 11
10 12 10 11 11 10 11 12 13 14 19 20 25 32 49 69 69 92 72 85 78 67 69 16 10 11 8 4 3 2 1 1 1 1 1 1 1 1 2 2 2 3 4 6 11 11 9
17 18 16 13 13 12 10 10 10 10 14 16 30 30 50 64 89 96 88 88 76 71 51 12 9 12 7 4 2 1 1 1 1 1 1 1 1 1 2 2 2 2 5 9 10 12 10
19 16 18 16 13 12 13 10 10 12 14 18 27 41 47 64 100 90 76 93 90 72 35 10 12 14 6 3 2 1 1 1 1 1 1 1 1 2 2 2 2 3 5 7 10 12 9
23 20 13 14 10 12 14 11 10 11 14 16 25 38 51 100 100 89 82 96 94 76 20 9 14 11 4 2 2 1 1 1 1 1 1 1 1 2 2 3 4 5 8 11 12 13 9
17 14 15 7 10 9 12 11 8 8 12 17 25 48 100 100 100 100 100 100 94 55 19 10 17 11 5 2 2 1 1 1 1 1 1 1 2 2 3 4 4 5 9 14 18 28 14
7 7 6 7 8 8 11 9 8 9 12 13 38 94 100 100 100 100 100 100 86 52 15 12 19 11 6 2 2 1 1 1 1 1 1 2 2 2 4 6 5 6 9 13 16 22 17
2 2 3 4 6 8 9 8 9 10 8 19 81 100 100 100 100 100 100 100 77 61 24 12 17 11 5 2 2 2 2 1 1 1 2 2 2 2 3 5 5 6 8 10 12 12 13
2 1 2 3 5 7 7 8 9 9 9 50 95 100 100 100 100 100 100 100 73 81 31 13 15 12 5 3 2 2 2 2 2 2 2 3 3 4 6 6 6 6 7 10 11 15 18
1 1 1 3 4 4 5 8 10 7 21 78 100 100 100 100 100 100 100 98 75 72 38 20 15 12 5 3 2 2 2 2 2 2 3 3 3 4 6 6 7 7 7 9 8 10 9
1 1 1 2 4 4 4 8 8 10 31 100 100 100 100 100 100 100 100 92 88 80 51 29 17 11 5 3 2 2 2 2 2 3 3 4 4 5 7 9 9 8 8 8 9 9 12
1 1 1 2 4 4 4 8 9 19 78 100 100 100 100 100 100 100 96 97 81 86 66 37 18 11 7 4 3 3 3 3 3 4 3 3 5 7 8 8 9 10 9 10 8 9 10
1 1 2 2 4 4 5 8 10 55 94 100 100 100 100 100 100 100 100 93 75 86 70 40 22 11 8 5 3 3 4 4 4 3 4 5 4 5 8 10 9 8 10 9 9 10 10
1 2 2 3 3 4 5 12 19 96 100 100 100 100 100 100 100 100 94 81 81 82 63 43 25 15 10 7 4 4 5 4 5 5 5 5 7 7 7 9 10 11 11 11 11 11 12
2 2 3 2 3 4 6 10 69 100 100 100 100 100 100 100 100 100 97 73 79 75 61 41 25 19 13 9 6 5 6 5 6 7 7 6 5 8 10 11 12 11 12 13 13 13 14
2 3 4 4 4 4 9 42 91 100 100 100 100 100 100 100 100 97 94 77 78 65 59 43 30 23 16 12 10 9 8 8 9 8 8 9 9 7 8 12 14 16 14 11 10 12 13
2 3 4 4 4 8 37 82 100 100 100 100 100 100 100 100 100 95 97 85 75 63 57 47 33 24 20 17 16 15 13 11 10 10 10 10 10 10 10 10 11 15 19 19 16 14 14
4 5 5 5 6 31 88 100 100 100 100 100 100 100 100 100 100 96 97 84 73 62 54 46 33 28 25 25 22 23 21 21 20 16 15 14 13 12 13 13 12 12 12 15 17 18 17
4 5 7 6 21 74 99 100 100 100 100 100 100 100 100 100 100 96 97 82 71 63 54 45 38 31 28 27 33 37 34 30 30 27 26 27 27 21 18 14 14 14 14 14 15 18 21
5 8 7 13 69 100 100 100 100 100 100 100 100 100 100 100 95 100 96 83 69 63 52 49 42 34 30 29 34 40 43 46 43 40 37 33 32 32 33 34 31 22 15 12 13 14 16
4 7 8 21 82 97 100 100 100 100 100 100 100 100 100 100 99 100 97 82 69 64 51 51 48 40 35 32 34 39 45 50 51 52 48 49 48 42 47 38 33 37 37 26 17 10 12
6 6 8 35 67 100 100 100 100 100 100 100 100 100 100 100 100 100 97 80 71 63 55 55 54 47 41 46 46 42 42 46 49 52 53 50 48 51 53 51 43 37 41 35 28 27 21
6 5 9 48 82 100 100 100 100 100 100 100 100 100 100 100 100 100 97 82 75 70 64 58 56 52 48 47 50 51 51 48 48 50 51 54 54 58 58 57 64 54 46 43 35 42 30
7 6 16 57 83 100 100 100 92 100 100 100 100 100 100 100 100 100 96 87 79 72 78 60 58 58 56 49 43 51 52 51 53 53 51 57 56 60 52 68 61 52 59 54 42 34 34
7 7 30 69 86 100 93 100 100 100 100 100 100 100 100 100 100 100 94 95 83 76 84 70 62 63 58 55 46 41 50 47 53 46 50 56 58 58 55 61 67 70 69 74 65 48 30
8 13 57 71 88 78 88 100 100 100 98 96 100 100 100 100 100 100 91 96 84 82 87 87 77 65 62 57 51 48 39 44 44 48 52 52 59 61 61 55 67 79 83 81 83 65 48
8 29 73 78 74 91 100 100 100 100 100 98 96 100 100 96 100 100 95 93 85 88 84 87 81 71 62 63 59 55 45 41 45 46 51 56 65 63 59 58 70 77 83 96 88 87 76

GFSGBSN_250_rhum_096.txt.gz
RH
23 19 16 14 15 13 13 17 17 16 23 25 28 30 35 42 49 50 57 58 54 51 39 31 23 17 14 7 11 10 6 3 3 2 2 1 1 1 1 1 1 2 2 2 3 4 9
30 31 32 21 16 13 15 14 12 13 14 14 21 23 34 33 41 33 39 40 38 31 37 28 19 14 10 9 11 8 3 2 2 1 1 1 1 1 1 1 1 2 2 2 2 3 5
37 32 34 26 19 22 19 14 14 13 13 12 12 14 23 25 28 29 29 31 33 32 44 25 15 10 8 10 9 4 3 2 1 1 1 1 1 1 1 1 1 2 2 2 3 4 10
29 29 26 28 28 22 19 17 14 16 14 14 14 12 15 16 22 18 21 35 43 44 40 21 15 8 11 11 6 3 2 2 1 1 1 1 1 1 1 1 1 2 2 2 3 5 11
32 25 24 25 27 20 18 18 12 12 17 17 15 14 12 13 14 20 37 62 55 65 39 18 13 8 11 9 4 2 2 1 1 1 1 1 1 1 1 1 1 1 2 3 4 5 9
27 26 23 16 13 16 12 14 11 12 13 13 12 12 10 10 18 37 75 67 79 89 32 19 10 9 13 5 3 2 1 1 1 1 1 1 1 1 1 1 2 2 3 3 4 6 13
29 25 17 10 6 6 9 9 10 12 12 13 12 13 9 11 26 81 93 86 100 56 32 15 9 10 10 4 2 2 1 1 1 1 1 1 1 1 1 2 2 3 3 4 6 9 20
19 12 6 4 4 4 6 6 8 10 11 14 14 11 11 22 79 86 99 100 99 64 27 13 10 13 6 3 2 2 1 1 1 1 1 1 1 1 2 2 3 4 4 5 8 13 21
8 3 2 2 2 2 3 5 6 9 9 13 13 11 15 46 100 100 100 100 100 62 27 10 14 12 6 3 2 2 1 1 1 1 1 1 2 2 2 3 4 4 4 5 13 18 26
2 2 2 1 1 2 2 3 5 7 10 12 11 14 31 99 100 100 100 100 100 58 15 15 16 11 7 3 2 2 2 2 1 1 2 2 2 2 3 3 4 4 5 7 14 16 27
2 2 1 1 1 1 2 2 4 7 8 11 16 25 68 100 100 100 100 100 100 48 14 15 18 12 7 4 3 2 2 2 1 2 2 2 2 3 4 5 5 5 6 7 10 18 27
2 1 1 1 1 1 1 2 5 6 6 13 15 54 100 100 100 100 100 100 95 47 19 14 16 14 7 4 3 2 2 2 2 2 2 3 3 3 4 6 6 6 7 9 14 19 26
1 1 1 1 1 1 2 3 4 6 7 12 30 93 100 100 100 100 100 100 83 73 18 17 18 13 7 4 3 2 2 2 2 3 3 3 3 4 6 6 6 7 8 9 11 15 16
2 1 1 1 1 1 2 3 5 6 8 20 60 100 94 100 100 100 100 96 94 61 33 20 20 13 8 5 3 3 3 2 3 3 3 5 4 5 7 7 7 8 8 8 9 12 12
2 1 1 1 1 2 2 4 6 6 13 52 100 100 100 100 100 100 100 100 85 50 50 29 19 14 9 6 3 3 3 3 4 4 4 4 7 7 8 8 8 9 10 9 10 10 10
2 1 1 2 2 2 3 4 7 10 26 64 100 100 100 100 100 100 100 98 80 66 56 37 23 16 9 6 6 4 4 4 4 5 6 5 6 9 10 10 9 9 11 12 11 11 10
2 2 2 2 3 3 5 6 9 24 50 79 95 100 100 100 100 100 100 97 84 77 54 39 24 17 12 9 6 6 6 6 6 6 8 8 7 7 9 12 12 11 11 12 13 13 13
2 2 3 4 5 7 8 8 11 29 82 100 100 100 100 100 100 100 100 94 88 73 54 34 25 19 15 12 12 9 10 10 8 8 7 8 9 10 9 10 10 13 14 11 14 15 14
4 3 4 6 8 8 15 18 28 55 100 100 100 100 100 100 100 100 99 91 87 64 46 34 27 22 20 17 16 19 16 14 14 16 15 12 10 11 12 13 14 14 15 16 18 17 13
6 4 4 8 9 10 16 33 59 100 100 100 100 100 100 100 100 98 98 95 82 63 47 35 27 26 26 25 28 29 29 25 20 19 18 20 18 18 16 14 14 16 18 19 20 23 23
6 5 6 8 13 32 48 44 95 100 99 100 100 100 100 100 97 95 97 95 75 60 46 35 30 29 31 32 38 38 39 37 36 32 28 27 23 22 26 23 22 26 23 18 14 15 15
6 8 9 11 21 53 57 98 100 100 100 100 100 98 100 100 100 98 93 91 72 59 50 43 36 33 30 34 39 44 45 49 54 51 46 40 44 42 42 32 27 25 27 30 31 26 22
8 9 9 20 45 68 84 100 100 100 100 100 100 100 100 100 95 92 89 88 71 60 53 49 43 39 36 35 36 39 45 52 51 51 54 54 56 54 59 65 59 41 32 25 33 34 32
8 7 9 24 38 61 84 100 100 94 100 99 100 100 100 100 100 99 92 88 75 68 55 49 48 45 40 36 34 39 40 44 53 58 54 58 62 60 66 65 67 69 60 46 38 35 37
11 8 6 11 24 48 71 99 100 99 95 99 100 100 100 100 100 93 96 91 80 71 57 51 49 51 47 47 39 36 40 44 45 49 55 54 60 64 67 76 80 76 75 73 49 38 37
12 10 8 10 22 48 78 100 95 97 92 99 100 100 100 100 100 100 100 97 85 72 66 56 55 56 57 52 50 45 40 39 41 44 48 50 52 59 58 68 79 80 74 68 58 80 49
16 11 15 21 40 60 84 85 89 89 78 100 100 100 100 100 100 100 100 100 91 80 73 59 58 60 63 62 58 58 58 49 43 40 43 46 48 57 58 65 72 69 74 67 68 79 70
26 18 33 46 65 70 82 88 87 98 76 98 100 100 100 100 100 100 100 100 98 89 77 69 61 60 61 65 66 66 62 63 56 46 47 47 48 48 50 67 72 71 72 71 77 87 88
39 54 76 78 88 85 92 85 86 94 87 84 100 100 100 100 100 100 100 100 100 93 86 79 66 62 66 70 68 67 62 65 61 60 53 52 51 52 54 55 64 68 67 72 87 80 78

GFSGBSN_250_rhum_099.txt.gz
RH
62 62 69 62 47 32 25 22 21 18 16 15 14 14 16 19 18 21 24 23 18 23 27 27 26 21 17 12 10 7 6 6 10 9 5 3 2 2 2 1 1 1 1 1 1 1 1
79 74 79 72 58 36 35 32 26 20 21 16 14 13 13 16 11 13 13 14 15 21 23 24 24 18 11 10 8 5 5 9 8 5 4 2 2 1 1 1 1 1 1 1 1 1 1
98 88 78 75 73 40 28 33 32 25 22 19 14 12 12 11 10 10 8 9 11 19 18 24 17 15 12 6 5 5 8 8 5 3 2 2 1 1 1 1 1 1 1 1 1 1 1
99 99 91 67 39 33 27 18 22 24 20 14 13 12 11 11 13 9 9 10 12 17 18 19 12 7 6 5 6 7 7 4 3 2 2 1 1 1 1 1 1 1 1 1 2 2 2
99 93 72 43 26 16 11 10 9 13 14 11 12 11 12 12 11 8 9 11 16 17 19 13 8 5 4 8 8 7 4 3 2 2 1 1 1 1 1 1 1 1 1 2 2 2 3
82 70 38 25 13 8 5 5 5 7 10 9 11 11 15 12 10 10 12 16 16 18 16 8 6 5 12 8 8 6 4 2 2 1 1 1 1 1 1 1 1 1 2 2 2 2 4
73 47 21 10 6 4 3 3 3 4 6 7 11 11 11 10 11 12 15 15 18 23 12 11 8 13 10 9 6 4 2 2 1 1 1 1 1 1 1 1 1 1 2 2 2 3 4
65 24 8 4 2 2 2 2 2 2 5 6 11 12 12 14 13 22 17 24 49 26 24 15 17 17 12 8 5 2 2 1 1 1 1 1 1 1 1 1 1 1 2 2 2 3 5
35 10 3 2 2 2 2 1 1 2 4 6 10 13 14 12 19 16 50 77 60 43 34 23 23 17 10 6 3 2 2 1 1 1 1 1 1 1 1 1 2 2 2 3 3 5 6
9 3 2 2 1 1 1 1 1 2 5 7 10 12 14 19 18 53 100 86 68 48 31 30 22 12 6 4 2 2 2 1 1 1 1 1 2 2 2 2 2 3 3 4 4 7 10
3 2 2 2 1 1 1 1 2 2 4 7 11 16 19 25 35 100 100 93 74 47 33 26 17 9 5 3 2 2 2 2 2 1 2 2 2 2 2 2 4 4 5 5 5 9 14
2 2 2 2 1 1 1 1 2 3 5 7 15 18 18 30 75 98 100 98 81 40 30 25 13 7 4 3 3 2 2 2 2 2 2 2 2 3 3 4 5 5 5 5 6 11 15
2 2 2 1 1 1 1 2 2 4 5 9 11 11 29 75 79 100 100 100 50 36 29 18 13 8 5 4 2 2 2 2 2 2 2 3 3 5 5 6 6 6 5 6 8 13 17
2 2 1 1 1 1 2 2 2 5 6 8 9 30 75 88 100 100 100 74 51 31 23 18 12 8 6 4 2 2 2 2 2 2 3 3 5 6 6 7 6 7 7 7 10 8 12
2 2 1 1 1 2 2 3 5 7 8 6 23 63 98 100 100 100 100 86 52 34 23 16 11 8 6 5 3 3 2 3 3 3 3 4 6 7 7 6 7 8 10 11 11 8 10
2 2 1 2 2 2 2 6 8 8 6 16 60 85 100 100 100 99 97 74 61 37 27 16 12 9 6 5 5 5 4 4 4 4 4 5 7 8 8 8 7 8 10 12 11 11 15
2 2 2 2 3 3 4 7 8 8 10 40 85 82 100 100 100 99 89 74 64 42 28 18 14 10 8 6 6 6 6 6 6 5 6 6 7 9 9 10 10 11 12 13 12 13 14
3 2 3 4 5 6 7 8 11 13 35 59 80 100 100 100 99 95 95 77 57 42 27 21 16 13 11 9 9 10 11 10 9 8 8 8 7 8 9 12 14 13 14 16 18 16 16
4 4 4 6 6 7 8 9 12 38 58 78 89 100 100 100 97 100 93 71 56 40 29 25 19 16 14 14 13 13 13 15 16 16 14 12 13 12 11 11 14 17 20 22 21 19 17
5 6 6 8 9 9 10 16 48 67 62 95 100 100 100 94 97 99 88 65 48 36 33 30 26 21 20 21 22 21 19 18 18 17 19 21 20 20 18 15 17 18 18 17 18 22 24
7 7 7 8 8 12 14 37 72 74 89 100 100 100 100 91 93 96 80 56 46 39 37 34 30 27 27 27 28 30 32 31 29 29 22 21 26 30 29 31 31 26 29 32 42 31 25
8 8 9 9 11 14 33 74 80 82 92 98 100 100 100 100 99 95 80 62 49 45 42 39 34 32 33 35 32 38 40 42 43 44 49 45 30 33 33 29 29 30 31 31 30 30 31
11 9 9 9 9 18 29 44 84 80 90 90 94 98 96 89 98 98 88 68 56 51 48 43 40 40 37 36 38 37 41 45 47 50 51 61 61 59 67 56 52 43 35 32 30 35 35
20 13 11 8 9 14 41 59 78 79 99 94 89 100 100 100 100 98 92 81 68 55 52 50 46 45 42 42 39 38 40 42 47 46 47 54 60 64 66 72 72 74 62 50 38 34 35
38 24 18 17 14 22 53 75 80 99 100 84 100 100 100 100 100 100 94 91 75 62 52 50 51 51 47 51 52 47 44 41 44 48 51 51 55 60 65 69 74 82 70 66 57 54 43
58 38 34 34 35 42 65 78 90 91 99 100 100 100 100 100 100 100 100 95 86 75 56 54 55 54 53 55 56 56 53 56 55 53 53 59 60 59 63 69 63 74 72 74 72 60 65
66 57 56 56 61 55 71 78 90 83 100 100 100 99 100 100 100 100 100 100 92 84 78 61 57 58 57 52 57 61 58 57 60 56 54 61 65 64 69 63 64 71 59 66 62 66 70
79 98 81 78 94 83 91 86 90 69 97 100 100 100 100 100 100 100 100 100 96 95 83 81 63 62 64 60 58 60 63 62 59 58 55 56 58 63 66 74 71 67 70 68 69 75 66
48 100 97 94 100 96 100 100 90 71 87 100 100 100 100 100 100 100 100 100 99 99 93 91 82 71 66 67 64 61 65 62 60 58 58 58 60 66 66 66 70 71 61 67 66 68 67

GFSGBSN_250_rhum_102.txt.gz
RH
100 100 100 92 100 99 79 72 70 49 24 19 21 18 17 15 12 10 10 8 8 9 10 10 14 14 11 14 18 11 7 5 5 5 4 5 5 4 4 4 2 2 2 2 2 2 3
97 97 100 100 100 88 87 80 49 52 46 25 17 16 16 15 12 11 9 8 8 8 8 7 10 8 8 12 8 6 5 4 4 5 4 4 4 3 3 2 2 1 1 2 2 2 2
100 100 100 98 88 92 91 70 65 30 23 24 17 14 15 11 12 10 9 10 9 9 8 8 7 6 6 4 4 4 4 4 5 4 3 3 3 2 2 1 1 1 1 1 1 1 1
100 100 100 97 86 78 63 46 35 22 12 11 12 11 13 12 10 8 11 9 8 10 10 7 6 6 4 4 4 3 4 4 3 3 3 3 2 1 1 1 1 1 1 1 1 1 1
100 100 100 92 74 52 32 14 8 6 6 6 8 10 13 13 8 11 11 10 11 9 9 8 7 5 4 5 5 5 4 3 3 3 2 2 1 1 1 1 1 1 1 1 1 1 1
99 100 82 45 25 13 7 4 3 3 3 3 5 7 10 13 13 14 11 11 11 10 11 8 6 6 6 6 6 4 3 3 2 2 1 1 1 1 1 1 1 1 1 1 1 1 1
60 43 22 9 4 3 2 2 2 2 2 2 3 6 8 11 14 15 13 13 14 15 8 8 8 8 12 9 6 3 3 2 2 2 1 1 1 1 1 1 1 1 1 1 1 1 1
25 10 5 3 2 2 2 2 2 1 2 2 3 5 9 12 14 15 15 19 16 10 9 10 9 22 13 6 4 3 3 2 2 1 1 1 1 1 1 1 1 1 1 1 1 1 2
7 5 4 2 2 2 1 1 1 1 1 2 3 6 9 13 13 18 18 14 10 10 10 18 28 12 8 6 4 3 2 2 1 1 1 1 1 1 1 1 1 1 1 1 2 2 3
4 3 2 2 2 2 1 1 1 1 2 2 3 7 11 10 16 23 17 14 10 11 26 28 20 13 7 6 3 2 2 1 1 2 1 1 1 1 1 1 1 1 1 2 2 3 3
3 2 2 2 2 1 1 1 1 2 2 2 4 8 9 18 29 14 20 15 13 35 31 22 13 8 5 3 2 2 2 2 2 2 1 1 1 2 1 2 2 2 2 3 4 4 4
2 2 2 2 1 1 1 1 1 2 2 3 6 9 16 20 14 27 23 19 43 36 27 13 9 6 4 3 2 2 2 2 2 2 1 2 2 2 2 2 3 3 3 4 4 5 6
2 2 2 1 1 1 1 1 2 2 2 5 7 11 15 16 32 24 26 57 53 26 15 11 7 5 4 3 2 2 2 2 2 2 2 2 2 3 3 4 4 5 4 5 5 6 6
2 2 2 1 1 1 1 1 2 2 5 6 9 10 16 32 31 30 66 60 26 18 15 11 8 5 4 3 2 2 2 2 2 2 2 3 3 4 4 4 5 6 6 5 6 5 4
2 2 1 1 1 1 1 2 4 5 7 8 10 19 33 42 42 62 60 31 21 19 15 10 7 6 4 3 3 3 2 2 2 2 3 3 4 4 5 6 6 6 6 6 6 6 8
2 2 2 2 2 2 2 5 8 8 11 9 14 32 52 46 64 62 38 26 21 17 11 8 7 7 6 5 4 4 3 3 3 3 3 4 5 5 5 6 8 9 10 10 12 10 10
3 2 2 2 2 3 4 10 11 18 13 20 41 60 63 65 67 48 32 25 21 16 11 9 8 8 8 7 7 7 6 5 5 4 4 5 6 6 6 7 8 9 10 10 14 19 16
5 4 4 5 4 6 9 14 20 13 29 44 61 72 69 77 60 43 30 26 23 17 14 13 11 10 9 9 9 8 9 9 8 6 6 6 6 6 7 9 10 10 10 10 14 17 29
7 8 8 9 11 14 18 21 16 30 46 69 73 84 80 68 57 43 31 29 25 21 21 18 15 13 12 12 13 13 11 12 12 11 11 10 10 10 8 9 10 11 12 14 22 18 36
15 9 10 11 18 22 22 23 28 46 62 70 81 87 84 69 54 40 35 33 28 26 26 23 21 19 17 18 16 14 15 17 16 16 15 16 16 15 13 13 15 15 16 15 15 25 54
30 18 12 16 14 19 23 33 49 55 67 73 92 90 78 57 48 40 40 37 33 31 30 28 26 24 25 26 25 24 20 19 20 23 21 22 20 21 24 24 27 24 28 30 34 30 28
65 36 17 21 17 21 26 47 69 83 87 87 92 88 76 60 52 45 44 41 40 37 34 34 31 29 32 35 34 37 38 37 37 34 34 34 33 33 41 41 39 40 41 44 47 46 54
73 60 32 20 14 19 29 51 72 95 93 96 95 91 84 71 60 52 51 47 43 40 40 43 39 37 37 38 40 42 46 45 50 52 57 56 54 50 45 40 44 45 49 52 49 50 54
80 88 50 34 26 29 42 58 80 91 100 100 100 100 91 80 69 65 58 51 48 45 43 46 49 46 43 45 48 50 51 53 55 52 55 58 64 59 60 61 56 55 52 52 45 44 44
75 100 63 52 42 57 44 58 67 92 100 100 100 100 98 95 88 82 71 63 51 48 48 48 53 52 49 49 51 51 54 55 55 59 63 63 66 63 66 57 56 61 56 57 60 63 56
46 95 79 72 72 55 64 61 73 92 100 100 99 100 100 100 99 93 87 78 67 61 55 52 51 55 54 52 55 54 52 54 56 59 60 60 66 69 66 62 63 66 65 66 57 68 75
28 83 100 96 86 71 79 68 84 93 100 100 100 100 100 100 100 100 100 98 94 91 74 60 56 58 59 56 59 58 56 56 58 61 62 63 66 63 71 71 71 63 66 67 76 69 63
62 28 86 100 100 90 81 82 95 100 97 100 100 100 100 99 100 100 100 100 98 93 97 75 71 68 64 61 65 68 64 62 62 60 63 62 62 64 72 72 79 78 69 66 68 66 74
78 67 38 100 92 98 90 87 92 100 98 100 100 100 100 100 100 100 100 100 97 96 93 100 97 86 79 73 70 67 65 64 64 62 61 63 64 64 68 71 85 82 86 79 71 64 59

GFSGBSN_250_rhum_108.txt.gz
RH
100 100 100 100 100 100 100 100 100 100 100 96 82 61 73 46 50 62 46 32 24 18 17 15 9 7 6 6 6 5 4 4 4 4 6 8 7 8 9 7 6 6 5 5 5 6 7
100 100 100 100 100 100 100 94 89 94 84 58 45 45 59 54 42 50 46 29 25 17 16 14 10 7 7 6 6 5 5 4 4 4 4 5 5 5 5 4 4 4 4 4 4 6 5
80 48 29 28 18 20 19 20 18 21 21 20 19 24 49 51 39 34 26 24 19 15 18 14 10 7 6 6 5 5 4 4 4 4 3 4 3 4 4 4 3 3 3 3 3 3 3
17 15 16 11 9 7 8 7 8 10 11 12 10 12 22 25 24 20 16 13 15 15 15 15 10 8 8 6 6 6 5 4 4 4 3 3 2 2 2 2 2 2 2 2 2 2 3
14 10 7 5 4 5 5 6 6 7 8 9 6 6 8 8 10 11 8 11 14 15 15 12 8 10 7 6 6 6 4 4 3 3 2 2 2 2 2 2 2 2 2 2 2 2 2
7 6 4 3 3 4 4 4 4 5 5 6 5 4 3 4 5 8 7 9 13 13 12 8 9 8 7 7 7 6 5 3 2 2 2 2 2 2 2 2 2 2 2 2 2 2 2
3 2 2 2 2 2 2 2 2 3 3 4 3 2 2 3 3 4 5 7 9 9 8 8 7 9 9 7 6 5 4 4 2 2 2 2 2 2 2 2 2 2 2 2 1 1 1
2 2 2 2 2 2 2 2 2 2 2 2 2 2 2 2 3 4 4 5 6 6 7 8 10 8 8 8 6 5 5 4 3 3 3 2 2 2 2 2 2 2 2 1 1 1 1
2 1 1 1 1 1 1 2 2 2 2 1 2 2 2 2 2 3 4 6 7 8 8 10 11 11 8 9 10 9 6 4 4 2 2 2 2 2 1 1 1 1 1 1 1 1 1
1 1 1 1 1 1 1 1 1 1 1 1 1 2 2 2 3 5 6 7 8 9 10 11 9 11 19 16 9 6 4 2 2 2 2 1 1 1 1 1 1 1 1 1 1 1 1
2 2 2 1 1 1 1 1 1 1 1 1 1 2 3 4 6 6 8 9 9 10 14 23 24 19 11 7 5 3 2 2 2 1 1 1 1 1 1 1 1 1 1 1 1 1 1
5 2 2 2 2 2 2 2 2 2 2 3 4 5 7 9 8 9 10 12 21 31 32 19 11 7 5 4 3 2 2 2 2 2 1 1 1 1 1 2 2 1 1 1 1 1 1
11 8 6 4 4 4 5 5 5 5 6 8 8 8 8 8 17 22 31 37 26 15 10 7 6 4 3 3 2 2 2 2 2 2 2 2 2 2 2 2 2 2 2 2 2 2 2
23 13 10 7 8 9 9 8 10 15 16 16 18 23 26 26 23 17 13 10 8 7 6 5 4 3 3 2 2 3 2 2 2 2 2 3 3 3 2 2 3 2 3 2 2 3 3
81 24 14 13 15 26 34 35 41 39 30 26 22 18 15 12 10 9 8 8 7 5 5 4 4 4 3 3 3 2 2 3 3 3 3 4 3 3 4 4 4 4 4 4 4 4 4
98 70 27 20 34 50 50 34 25 22 20 17 16 15 15 14 13 13 11 9 8 7 7 6 5 4 3 3 3 3 3 3 3 4 4 4 4 3 4 4 4 6 10 11 16 16 9
94 90 86 32 39 36 25 20 20 20 21 24 22 23 21 19 17 14 13 12 11 9 8 6 6 5 4 3 3 3 3 4 4 4 4 5 5 4 6 6 8 14 23 31 42 44 46
96 92 78 70 43 31 22 20 21 25 28 26 29 25 22 22 20 16 15 12 10 10 10 9 8 7 6 6 4 4 4 4 4 4 4 5 6 7 7 11 18 31 60 81 65 75 60
68 90 100 85 53 33 25 22 22 23 24 25 25 26 24 23 22 21 18 17 15 14 14 13 13 11 9 8 7 6 6 5 5 5 5 6 6 8 10 14 19 20 48 55 74 78 63
52 92 100 100 85 49 30 25 24 25 24 26 25 26 28 27 25 23 22 19 19 17 17 17 17 16 16 17 13 14 12 9 8 8 9 9 9 12 13 14 14 17 26 32 34 36 42
80 59 89 99 100 92 47 32 27 27 28 28 31 33 33 32 31 30 28 25 24 22 21 22 19 18 18 18 18 18 18 17 14 14 17 19 24 24 18 22 27 30 31 32 31 28 24
70 91 78 97 88 100 100 67 38 35 37 37 36 37 40 40 38 39 39 36 32 32 29 28 27 26 25 22 20 20 19 17 14 15 19 24 27 28 25 26 30 32 34 34 36 36 28
62 76 92 81 93 81 95 100 86 57 48 50 49 45 46 47 45 42 44 45 44 42 41 40 39 38 37 39 33 32 31 29 25 28 33 33 31 28 29 33 31 31 31 33 33 34 31
45 73 100 99 93 77 80 93 100 94 73 66 61 54 51 55 55 51 48 51 54 51 49 48 50 48 47 47 46 46 44 45 41 43 50 51 46 42 42 44 40 38 36 35 37 36 34
63 55 75 95 79 90 84 94 87 100 98 82 82 74 61 60 60 62 60 61 58 59 56 55 58 59 58 57 57 57 60 58 56 55 58 58 58 51 51 55 56 58 58 54 52 50 47
90 64 54 74 99 93 60 44 92 82 100 100 80 81 88 77 77 81 72 64 68 67 67 68 64 64 62 62 62 63 65 68 70 70 71 64 61 61 58 56 55 51 46 45 47 47 47
100 91 72 65 57 94 96 76 39 65 76 99 100 88 85 89 81 81 84 82 75 78 81 80 78 75 72 70 69 67 63 62 64 66 66 67 68 68 63 61 58 59 58 57 53 52 52
89 94 84 84 70 50 77 83 82 56 75 68 100 100 96 92 98 91 89 82 85 85 86 88 91 85 80 82 83 83 78 71 69 70 69 66 63 62 63 63 64 62 62 59 54 51 52
52 65 95 85 79 68 71 86 86 99 53 84 83 97 100 100 96 99 92 97 96 90 93 97 93 95 88 85 87 90 91 83 79 79 82 86 84 79 74 71 71 71 73 73 66 65 62

GFSGBSN_250_rhum_111.txt.gz
RH
16 24 18 18 20 22 30 32 38 29 35 39 32 41 52 66 76 68 58 49 50 43 38 30 20 17 14 12 10 8 7 6 5 5 5 5 5 5 5 5 6 6 7 8 12 11 9
8 7 8 9 8 7 10 8 12 15 17 18 22 25 35 48 47 48 50 46 50 42 43 30 18 17 13 11 8 8 6 5 6 5 4 4 4 4 4 4 5 5 5 6 7 6 7
4 4 3 4 4 5 5 6 9 11 12 11 16 16 18 18 30 44 40 36 37 32 37 28 20 19 14 10 9 8 6 6 6 4 4 4 3 3 3 3 3 3 5 4 4 5 6
2 2 2 2 2 2 2 3 4 5 5 6 9 14 16 13 15 22 30 26 26 26 26 21 20 17 14 11 10 8 6 5 4 4 4 3 3 3 2 2 2 2 3 4 3 3 3
2 2 2 2 2 2 2 2 2 3 4 4 6 8 9 10 10 12 16 16 16 19 16 14 18 15 15 13 9 7 6 5 5 4 4 3 2 2 2 2 2 2 2 2 2 2 3
2 2 2 1 1 1 2 2 2 2 3 4 5 5 6 8 9 10 10 11 10 13 12 12 17 18 16 11 7 7 6 5 4 3 3 3 2 2 2 2 2 2 2 2 2 2 2
3 2 1 1 1 1 1 2 2 2 2 3 3 5 6 8 7 7 8 9 11 10 14 18 17 15 9 7 8 8 6 4 3 3 3 2 2 2 2 2 2 2 1 2 2 2 2
9 2 1 1 1 1 1 1 2 2 2 2 3 4 4 5 6 5 5 4 6 6 7 8 9 8 8 8 7 5 4 3 3 3 3 2 2 2 2 2 1 2 2 2 2 2 2
12 4 1 1 1 1 1 1 2 2 2 2 2 2 2 3 4 4 3 4 4 6 7 8 8 7 7 6 6 4 4 4 3 3 4 3 3 3 2 2 2 2 2 2 2 2 2
33 9 3 1 1 1 1 1 1 1 1 1 2 2 2 2 2 3 4 5 6 6 7 8 7 6 6 6 6 6 5 5 5 4 3 3 2 2 2 2 2 1 1 1 1 1 1
48 26 9 3 2 2 2 2 2 2 2 2 2 2 3 3 4 5 6 6 7 8 9 8 7 7 9 10 12 8 5 4 3 2 2 2 2 2 2 1 1 1 1 1 1 1 1
32 27 17 11 5 4 4 4 4 4 4 4 5 6 6 8 9 9 8 7 8 10 13 13 13 12 8 8 6 4 3 3 2 2 2 1 1 2 2 1 1 1 1 2 1 1 1
44 28 20 16 12 11 9 7 8 8 8 9 7 8 10 11 12 16 18 18 15 11 9 6 6 6 5 4 4 3 2 2 2 2 2 2 3 2 2 2 2 2 2 2 2 1 1
99 36 25 18 13 11 10 10 10 10 10 11 10 11 11 10 10 9 8 8 7 6 6 5 4 4 4 4 3 2 3 3 3 2 2 3 3 3 3 3 2 3 3 3 2 2 2
100 94 35 25 16 13 10 9 9 10 10 9 9 8 8 8 7 7 6 6 5 5 4 4 3 3 3 3 3 4 3 3 3 3 3 4 3 3 3 4 4 3 4 3 4 3 4
76 100 70 35 26 18 13 11 10 10 10 13 12 10 10 10 9 8 7 6 6 5 4 4 3 3 3 4 4 4 4 4 4 4 4 5 5 5 4 5 8 8 5 6 7 6 7
43 75 100 84 39 28 21 18 16 16 17 18 16 17 17 16 14 11 12 10 8 7 6 4 4 4 4 4 4 4 4 4 5 5 6 6 5 5 8 6 8 11 9 9 13 13 8
46 42 82 100 100 52 32 26 22 22 21 22 19 22 20 18 20 16 15 13 10 9 8 6 6 5 5 4 4 5 5 6 6 6 6 5 5 6 9 18 15 16 23 22 26 24 20
60 46 47 76 93 100 87 53 38 31 27 25 22 23 22 22 21 22 19 17 15 13 10 9 8 7 6 6 7 6 6 6 7 8 9 10 10 15 19 21 23 28 27 26 34 35 40
67 52 54 62 72 72 97 99 69 48 40 33 33 30 28 27 25 23 24 22 20 19 17 16 15 15 14 11 9 7 7 9 9 10 11 12 13 16 17 16 14 18 20 20 22 22 26
61 68 64 65 61 81 85 88 94 82 58 46 40 36 34 33 33 33 30 28 30 26 24 24 24 23 22 20 17 14 16 16 18 23 24 25 25 25 24 26 24 32 36 28 18 22 24
72 61 68 63 55 61 78 83 80 83 91 64 58 50 44 43 39 38 36 35 36 34 33 34 32 29 28 26 27 25 24 24 24 27 28 29 32 28 28 34 35 42 44 44 41 39 33
39 66 80 83 73 53 55 64 85 78 91 100 78 69 59 52 49 46 43 43 45 44 44 42 41 38 34 36 33 30 27 27 34 35 36 34 35 35 35 37 37 38 39 38 40 38 37
27 30 48 74 79 89 56 86 71 73 80 74 95 96 83 75 58 54 53 50 52 53 53 54 51 50 52 48 47 46 46 44 43 46 42 45 47 49 44 46 45 45 42 44 42 40 41
39 32 42 60 77 75 66 67 71 54 62 76 73 71 91 96 96 67 60 59 64 62 59 58 60 60 58 57 55 54 56 59 58 54 54 53 51 48 51 49 46 44 42 42 42 41 41
58 43 41 48 76 75 65 79 74 76 58 51 72 89 67 72 87 90 73 65 64 66 68 64 60 60 64 63 59 58 58 58 58 58 61 61 62 62 58 56 54 52 51 48 44 42 39
71 60 32 33 44 86 77 74 64 59 84 68 48 66 95 92 66 78 95 88 71 73 75 76 72 69 68 69 70 65 60 62 66 64 62 61 58 55 55 59 61 62 62 58 53 51 44
87 73 52 40 56 53 73 80 81 66 85 82 76 52 59 96 100 79 70 85 97 91 90 84 81 75 75 72 74 73 70 69 69 68 74 74 70 66 65 65 64 60 59 60 54 55 54
70 64 63 50 44 47 59 53 94 65 87 90 85 63 53 66 87 100 84 69 74 91 92 96 98 92 84 81 78 75 68 69 68 71 71 72 75 74 69 66 67 66 65 64 64 66 59

GFSGBSN_250_rhum_114.txt.gz
RH
18 6 2 2 2 2 2 2 4 6 8 9 13 32 65 65 69 79 76 72 91 68 67 62 47 47 37 36 17 11 11 9 8 7 7 8 9 9 9 8 7 8 8 11 13 15 13
12 5 2 2 1 1 1 2 2 2 4 6 9 14 27 43 51 61 53 64 54 63 56 49 39 41 38 30 18 11 10 9 8 8 7 6 5 5 6 7 7 8 8 6 7 8 8
15 4 2 1 1 1 1 2 2 2 2 4 6 14 15 25 30 37 37 44 50 51 63 44 39 38 36 29 18 12 9 8 8 7 6 5 4 4 4 5 5 5 5 6 5 5 6
18 6 2 1 1 1 1 1 2 2 2 2 4 6 17 17 25 32 40 37 42 58 41 57 50 34 27 24 21 15 10 8 7 7 6 5 4 4 4 4 3 3 4 4 4 4 4
22 7 3 1 1 1 1 2 2 2 2 3 3 4 8 13 19 23 29 29 25 29 28 34 32 24 19 17 16 15 12 9 7 6 5 5 5 4 4 3 3 2 2 2 2 2 2
21 10 4 2 1 1 1 2 2 2 2 3 3 3 4 7 10 15 19 18 20 19 15 16 18 18 14 13 17 16 12 9 5 5 5 5 4 4 3 2 2 2 2 1 1 1 1
18 18 6 3 1 1 1 2 2 2 2 3 3 4 4 6 8 12 13 15 14 14 16 14 11 12 13 18 23 14 7 5 6 6 6 4 3 3 3 2 2 2 2 2 1 1 1
18 16 16 4 3 1 1 1 1 2 2 3 4 4 5 6 7 8 11 12 13 11 10 11 14 15 18 17 8 5 7 7 7 6 4 4 3 3 2 2 2 2 2 2 1 1 1
20 18 14 12 6 3 1 1 1 2 2 3 4 5 5 6 8 9 11 10 8 7 9 9 8 7 7 7 7 8 8 7 6 4 4 3 3 3 3 2 2 2 2 2 2 2 2
34 20 16 11 14 7 5 2 2 2 2 2 2 3 4 5 6 6 5 5 6 6 6 7 7 8 8 10 9 9 7 6 6 5 4 4 4 4 4 3 3 2 2 2 2 2 2
45 36 19 14 10 12 11 6 4 3 2 3 3 3 3 3 4 4 4 5 6 7 8 8 10 9 9 8 7 8 11 7 6 8 7 5 4 3 3 2 2 2 2 2 2 1 1
38 54 43 22 14 10 9 11 13 8 5 6 7 7 7 8 8 8 8 8 8 8 8 8 7 10 12 11 12 9 6 5 4 3 3 2 2 2 2 2 2 2 2 1 1 1 1
41 45 57 49 27 16 12 10 9 8 9 11 12 13 12 12 11 12 12 11 11 10 12 13 14 11 8 6 4 3 3 3 3 3 3 2 2 2 2 2 2 2 2 2 2 1 1
38 39 45 55 48 31 23 20 14 11 8 6 6 6 6 6 7 8 7 7 7 6 6 5 4 4 3 3 4 4 4 3 4 4 5 5 4 3 3 3 3 2 2 2 2 2 2
40 46 51 50 54 48 34 26 24 21 17 14 10 8 8 7 6 6 5 5 4 4 4 4 4 3 4 5 4 4 4 5 6 7 6 6 4 4 4 3 3 3 3 3 3 2 2
61 36 43 54 57 52 49 39 29 25 22 18 15 11 10 10 8 7 5 5 5 5 5 5 4 4 5 4 5 6 6 7 6 7 9 6 5 4 3 5 4 4 4 3 3 3 4
95 61 41 50 60 64 58 51 45 36 30 25 20 16 12 12 10 8 7 6 5 5 6 6 6 4 6 7 8 7 6 8 8 9 9 8 8 6 9 7 8 6 7 5 8 7 6
70 93 49 41 54 56 54 63 53 51 47 40 34 25 20 18 13 11 11 10 7 6 6 5 7 8 8 8 7 7 9 10 11 10 10 11 11 12 14 14 14 15 13 11 13 16 12
32 57 76 60 41 58 65 58 54 52 49 51 49 40 30 29 22 18 14 12 12 13 15 13 11 11 10 10 10 12 12 13 12 14 14 12 11 13 14 15 18 16 16 16 19 17 16
33 28 42 70 64 55 53 65 61 56 56 46 51 54 46 41 35 31 27 25 25 27 26 24 21 19 15 15 14 14 16 16 17 17 18 18 17 15 16 19 18 18 20 22 26 30 24
53 32 30 38 60 48 58 45 67 61 67 56 49 50 57 47 43 44 40 34 31 31 31 28 25 22 21 24 25 26 29 32 32 33 32 28 27 28 28 30 31 28 25 28 31 37 33
63 41 31 31 32 42 60 65 46 54 67 67 64 63 54 54 58 48 46 42 36 38 36 33 29 28 31 33 31 28 34 36 37 38 36 34 33 34 36 39 40 43 40 35 36 36 34
62 48 41 42 35 31 49 71 58 61 47 48 70 64 62 62 56 62 56 49 45 41 42 39 36 35 37 38 36 40 48 49 49 44 44 46 47 50 50 46 47 43 47 48 43 43 45
63 53 59 48 57 35 32 47 62 46 60 56 58 64 67 64 73 60 60 64 57 49 45 43 42 41 38 38 40 45 48 51 50 48 52 55 53 55 55 52 48 46 44 41 41 39 38
72 62 71 56 62 60 39 33 39 54 61 65 68 64 66 75 70 80 64 62 67 71 64 56 50 48 47 46 48 50 51 49 49 50 51 54 54 56 59 60 59 58 54 52 48 47 46
100 65 68 56 70 58 61 43 41 49 58 56 53 69 62 88 98 78 82 69 62 65 75 79 68 62 59 56 52 49 51 52 54 54 53 52 54 58 61 66 71 71 70 70 68 66 63
100 99 60 59 91 62 66 58 53 44 42 61 64 61 80 63 61 94 97 93 81 63 63 73 84 85 79 74 72 69 64 61 61 59 58 57 56 55 53 54 56 60 62 64 66 68 64
83 85 98 65 79 76 69 75 72 59 39 46 56 60 65 70 67 53 88 94 99 90 74 65 68 74 80 82 78 75 73 73 74 70 72 68 65 64 65 65 65 59 59 56 54 52 48
100 85 100 100 76 87 88 67 78 72 58 42 47 58 66 54 65 76 54 76 92 97 98 80 71 70 65 75 84 83 82 83 78 75 73 70 68 65 63 61 62 62 63 63 57 52 55

GFSGBSN_250_rhum_117.txt.gz
RH
12 8 3 1 1 1 1 1 1 2 2 2 3 10 17 22 32 61 90 100 100 99 64 100 89 68 58 60 44 32 25 22 17 12 9 12 18 18 23 18 12 10 10 11 11 13 16
12 8 2 1 1 1 1 1 1 2 2 2 2 4 11 16 26 41 76 93 100 95 100 88 93 94 63 64 52 58 34 25 19 14 10 8 7 7 7 8 10 12 10 10 9 10 9
13 9 3 1 1 2 2 1 1 1 2 2 2 4 8 13 22 29 52 78 96 79 80 87 93 98 55 49 50 48 34 26 16 13 10 9 8 7 6 5 5 6 6 6 7 7 7
16 11 5 2 1 2 2 2 2 2 2 2 2 3 8 13 20 29 36 54 79 85 74 73 63 64 46 49 42 37 27 21 19 16 13 10 8 7 6 6 5 4 4 4 4 4 5
17 11 11 5 2 2 2 2 2 2 2 2 3 3 5 10 12 23 28 45 55 84 74 71 68 66 60 51 42 34 28 18 17 16 12 9 7 6 7 6 5 5 4 3 3 2 3
18 16 12 9 4 2 2 1 2 2 3 3 3 3 5 6 12 17 29 37 60 67 68 72 61 53 40 33 32 30 27 21 13 12 12 9 7 7 6 6 5 4 3 2 2 1 2
20 20 15 11 8 4 2 2 2 3 3 3 3 3 4 6 8 14 19 28 27 38 37 28 32 32 26 21 23 27 20 12 11 12 11 9 8 7 5 4 3 2 2 2 2 2 2
24 24 18 13 11 12 5 2 2 3 3 4 4 4 4 5 6 8 13 17 20 22 27 25 28 31 23 24 19 16 18 14 10 9 9 8 5 3 3 3 3 2 2 2 2 2 2
30 28 22 15 12 11 12 9 3 2 3 3 4 5 6 7 8 10 11 14 24 30 33 35 32 18 13 12 12 9 8 10 11 9 6 4 4 3 3 3 3 2 2 2 2 2 2
37 32 29 27 14 13 12 11 12 8 3 3 3 4 5 6 8 11 13 15 19 19 15 12 11 11 10 8 10 12 12 9 7 6 6 5 4 4 4 4 4 3 3 2 2 2 1
36 41 36 30 32 17 18 14 9 11 13 7 5 4 4 4 5 6 7 7 8 9 10 11 11 12 12 11 11 10 10 9 10 9 9 8 7 6 5 5 5 4 3 3 3 2 2
46 32 45 39 34 32 22 20 16 10 8 12 13 11 8 7 7 7 8 10 10 10 11 12 11 10 11 9 11 14 16 12 11 8 8 7 6 5 4 4 3 3 2 2 2 1 1
54 44 33 42 43 37 32 28 20 17 12 8 6 6 10 15 13 11 11 12 12 13 13 9 12 16 15 16 12 7 7 6 5 4 4 4 3 3 3 3 2 2 2 2 2 2 1
38 56 39 35 37 51 40 35 32 22 18 14 9 6 5 5 5 5 6 6 7 8 7 7 6 6 6 5 7 7 6 4 4 4 4 4 3 3 4 4 3 3 3 2 2 2 2
30 49 44 38 37 39 50 42 38 35 33 21 16 10 7 6 6 6 6 6 6 6 5 5 5 6 6 7 6 6 5 5 7 9 9 10 9 9 8 8 8 6 5 4 3 3 2
35 35 59 49 43 36 41 45 46 38 38 42 34 19 12 8 6 6 5 6 6 6 7 7 7 7 6 7 8 8 8 11 12 15 16 17 16 14 12 11 12 10 8 6 4 4 3
24 34 35 37 48 44 41 37 41 47 42 41 45 44 26 14 9 7 6 6 6 5 5 5 6 7 8 12 13 15 15 23 24 22 20 17 14 13 12 11 10 10 12 9 8 6 5
33 26 34 29 33 40 52 47 41 37 42 47 43 45 42 31 21 14 13 10 8 7 7 9 13 16 18 20 26 28 27 20 19 19 16 14 14 15 16 14 16 20 29 20 16 9 8
52 40 38 32 34 33 36 45 67 49 44 47 53 50 51 48 38 31 24 22 23 18 13 12 13 14 15 19 18 20 25 25 24 20 16 16 16 18 20 21 21 19 23 34 28 23 21
78 55 48 36 39 33 31 40 44 52 52 43 45 52 56 52 53 48 40 30 26 25 23 26 27 26 27 28 28 30 29 26 27 29 32 31 31 28 28 28 29 30 31 28 28 29 26
87 69 54 53 52 46 35 30 34 53 66 54 46 44 51 61 55 52 52 49 42 32 28 26 30 30 30 33 35 34 35 37 39 42 43 42 43 42 37 39 43 44 40 39 42 40 36
92 90 72 72 62 64 46 52 37 33 40 66 52 46 41 53 69 62 52 53 54 48 44 39 39 39 37 36 39 43 43 45 47 48 49 54 53 48 46 44 43 48 49 48 43 40 39
100 86 100 69 67 72 54 53 44 40 33 50 60 58 58 48 41 62 67 58 52 49 52 50 47 45 43 40 38 42 46 48 51 53 55 58 58 60 63 60 58 52 53 54 57 54 53
92 96 89 100 85 81 70 49 46 52 37 37 45 55 57 64 69 47 47 68 71 62 50 48 57 58 50 44 42 42 40 40 42 42 47 53 54 54 59 58 59 64 61 60 53 58 59
100 100 93 100 100 92 66 60 40 30 37 33 35 36 43 51 67 75 77 54 54 67 74 68 58 57 66 69 60 54 54 53 52 52 52 51 51 51 53 55 56 56 62 64 61 60 59
100 99 100 100 100 100 98 70 84 49 45 34 32 35 36 43 53 78 79 87 74 61 62 66 67 61 58 64 73 73 71 69 67 63 60 60 59 60 62 63 63 61 59 62 62 63 68
100 100 100 100 100 100 100 85 82 70 75 56 43 26 34 50 41 50 55 66 85 84 69 67 70 69 62 64 66 67 65 65 69 70 71 70 70 70 67 67 67 67 67 70 66 64 64
100 84 88 95 100 100 100 100 86 90 91 70 59 39 27 39 46 41 52 59 62 70 83 81 78 68 68 69 63 61 65 67 63 63 65 66 64 61 61 61 59 59 59 63 64 66 68
98 82 100 100 98 100 100 100 88 84 74 89 83 68 74 39 42 38 36 49 58 69 62 57 77 91 84 74 71 72 76 69 58 62 66 66 67 63 62 58 56 53 53 50 51 53 53

GFSGBSN_250_rhum_120.txt.gz
RH
6 8 2 1 1 2 2 2 2 2 2 2 4 7 22 46 48 52 45 81 99 100 73 82 100 100 100 100 100 100 74 84 50 25 19 19 22 14 12 19 23 26 22 19 23 22 17
13 7 4 2 2 2 2 2 1 2 2 2 2 3 8 38 54 66 51 57 91 89 87 98 78 100 100 100 100 100 92 72 49 24 16 15 13 12 13 19 18 17 17 15 15 12 11
19 8 7 2 2 2 2 2 2 2 2 2 2 2 3 29 53 60 60 50 45 68 99 100 98 94 92 94 84 65 88 69 46 36 24 21 18 14 10 10 9 8 8 9 8 8 8
21 15 7 9 2 3 3 3 2 2 2 2 2 2 3 4 5 40 53 48 54 69 64 100 100 99 94 93 80 82 66 52 45 34 24 20 18 14 12 10 9 9 7 6 5 5 5
19 19 10 7 8 2 4 4 3 3 2 2 2 2 3 3 6 21 41 49 52 48 41 55 100 100 92 89 75 62 50 32 32 31 25 22 18 16 10 10 10 8 6 5 4 3 3
20 20 16 10 6 7 4 3 4 3 3 3 2 2 2 3 4 14 38 42 42 36 29 38 53 76 77 64 61 54 40 40 43 38 30 24 18 14 11 9 8 7 5 4 4 3 3
30 26 24 17 10 7 8 5 3 3 4 3 3 3 3 3 4 7 24 36 29 16 19 34 48 42 40 51 62 64 64 47 36 27 25 25 17 9 7 7 6 5 4 4 3 3 3
27 31 28 28 19 11 8 9 8 3 4 4 4 5 4 4 5 7 10 12 15 21 29 31 40 49 54 61 52 40 36 27 24 22 20 17 11 8 7 5 4 4 3 3 2 2 2
29 33 33 29 29 21 12 8 7 11 5 4 5 5 6 8 9 11 12 14 19 27 35 42 48 48 39 32 34 34 27 22 14 12 13 9 7 6 6 5 4 4 3 3 3 3 2
28 36 32 34 32 29 23 14 8 6 12 10 4 4 6 7 10 15 19 24 28 34 37 36 34 38 46 50 42 37 22 17 15 12 9 9 7 6 5 4 4 4 3 3 3 3 2
31 30 33 28 30 33 30 24 19 10 8 7 14 8 5 4 6 7 8 11 17 18 16 23 26 34 25 22 20 17 16 13 11 9 8 7 7 6 7 7 6 5 4 4 4 3 3
32 32 30 28 25 28 31 31 24 21 16 8 8 13 17 14 8 6 6 7 8 9 12 12 14 16 16 15 16 12 13 15 13 13 10 10 9 7 7 6 4 4 4 3 3 2 2
31 30 32 34 30 28 28 32 31 24 23 18 9 8 8 8 10 17 18 16 13 11 12 12 13 15 16 20 20 17 13 10 10 9 7 8 6 5 4 4 4 4 4 3 2 2 2
40 38 31 33 34 34 32 29 34 31 23 25 20 13 8 7 7 8 9 10 14 17 19 17 20 17 13 8 8 11 12 10 7 6 5 6 6 4 6 6 6 6 4 4 3 3 2
67 45 40 32 36 31 30 31 30 34 34 23 25 21 17 10 7 6 6 6 6 7 7 7 7 7 9 11 10 8 9 11 12 12 10 12 10 10 11 11 11 9 8 6 4 4 3
93 67 55 43 30 30 37 31 31 31 39 38 30 30 26 17 16 9 6 6 6 8 9 10 13 17 18 14 15 17 18 20 21 21 20 21 22 23 18 20 22 20 14 11 7 7 4
88 93 55 62 53 36 27 36 28 36 32 41 45 38 36 35 24 18 14 9 7 6 10 17 19 16 14 16 16 17 19 19 22 22 24 33 30 29 30 27 25 26 26 21 19 13 13
62 100 98 76 76 57 33 28 38 35 39 32 42 47 43 46 43 33 27 22 19 14 13 15 23 31 33 33 34 30 26 22 21 23 30 33 40 32 32 25 22 22 26 25 16 22 17
80 81 100 97 73 72 53 43 29 30 36 41 32 38 48 49 54 51 47 42 37 32 27 22 23 26 31 35 41 42 37 35 33 33 33 34 39 42 41 39 33 26 21 24 28 24 31
100 62 92 100 97 75 72 42 39 32 27 35 43 32 30 46 53 56 57 53 50 50 42 37 34 32 35 38 42 41 41 39 35 36 38 40 44 49 50 48 48 44 37 31 25 25 33
100 82 88 97 100 98 90 67 53 57 33 28 36 41 36 37 40 52 60 60 52 54 55 51 48 45 40 39 38 40 41 39 37 37 40 44 47 49 49 48 49 51 50 44 43 38 35
99 99 99 62 100 100 91 80 63 59 60 38 25 30 31 41 29 31 42 49 67 65 56 55 55 50 46 44 43 44 43 42 40 42 44 43 42 46 47 48 48 47 52 49 45 42 41
69 75 75 98 61 100 100 100 96 84 70 54 36 30 31 30 51 40 30 34 45 47 57 63 62 60 59 56 54 51 51 51 50 51 53 53 52 53 54 54 50 51 49 50 53 50 46
72 65 50 68 56 74 93 100 100 99 93 84 57 49 44 28 31 38 54 35 29 34 45 48 57 64 60 58 57 55 54 57 60 60 59 61 62 61 59 58 57 60 62 65 64 60 58
86 67 68 88 58 100 78 100 96 91 96 98 67 63 54 45 35 32 35 51 52 32 33 38 45 48 55 60 63 67 65 61 58 58 58 58 60 66 70 70 68 61 63 65 68 77 72
95 83 75 61 40 75 87 100 100 93 92 93 100 81 80 69 52 45 30 33 48 67 51 38 39 52 52 52 59 60 61 64 65 65 65 67 68 66 65 64 66 66 65 64 70 68 69
100 99 95 82 94 100 74 90 98 100 100 98 96 89 94 61 53 71 47 42 27 48 51 59 45 40 48 62 65 60 59 58 61 63 60 57 58 61 61 62 63 58 57 57 60 59 62
100 100 100 100 100 100 94 99 88 100 99 100 99 100 77 88 80 79 63 43 36 28 43 56 61 55 41 36 51 70 80 69 63 60 58 61 64 65 64 65 65 64 64 62 60 59 56
99 82 100 100 100 100 100 100 100 100 100 100 100 100 96 77 86 87 74 52 52 44 29 39 53 61 66 51 36 32 52 81 85 80 65 66 70 71 73 73 66 66 62 61 64 68 66

GFSGBSN_250_rhum_123.txt.gz
RH
14 6 6 2 3 3 2 2 2 1 2 2 2 4 8 16 22 26 31 48 95 100 100 99 100 100 100 96 92 91 69 63 40 28 22 31 44 49 44 38 36 33 37 34 39 32 34
20 8 6 4 3 3 3 2 2 2 2 2 2 2 2 10 22 26 34 53 84 100 100 82 88 100 89 100 99 100 100 82 59 47 34 22 16 19 26 32 36 32 30 31 29 25 25
22 15 6 6 3 4 4 3 2 2 2 2 2 2 2 4 23 27 39 62 70 100 96 66 78 88 68 76 74 86 100 99 100 91 63 49 28 17 11 11 13 17 18 22 19 14 14
23 26 12 6 6 3 4 4 3 2 2 2 2 2 3 4 23 32 45 56 86 87 79 86 65 63 85 87 82 71 68 49 78 99 79 42 27 18 19 15 13 12 12 12 10 8 9
19 27 21 10 6 7 3 4 4 3 2 2 2 2 2 3 16 38 51 60 75 85 58 63 83 89 83 84 80 79 73 62 57 58 55 50 44 38 27 19 14 14 13 12 10 7 6
19 20 30 18 8 5 8 3 4 5 4 3 2 2 2 3 5 26 42 74 74 73 71 75 72 61 78 82 70 60 65 74 65 65 63 62 53 40 29 28 21 20 14 10 9 6 5
23 19 24 30 17 8 5 8 3 4 5 4 4 4 3 3 3 12 29 52 80 77 71 64 68 71 74 79 64 58 52 49 47 42 43 42 40 42 43 23 16 11 7 5 4 4 4
31 25 21 30 30 16 8 5 7 6 4 5 5 6 5 4 3 4 23 48 68 65 68 72 64 60 50 46 40 31 40 43 43 43 43 38 36 24 14 10 9 6 5 4 4 4 4
39 27 25 21 30 27 15 10 6 6 8 5 7 6 6 7 5 6 8 21 28 36 53 52 51 41 34 27 27 46 58 54 48 46 40 32 17 12 9 8 8 6 5 5 4 4 4
39 35 30 26 23 32 28 17 12 7 7 9 8 9 8 7 10 10 11 14 17 22 29 36 27 29 37 50 54 59 61 54 36 20 17 12 8 9 9 9 7 6 5 4 4 4 3
59 47 34 27 25 23 31 30 20 13 9 8 7 14 11 10 8 10 13 16 19 23 30 42 42 39 46 54 51 49 28 16 11 12 11 11 11 11 12 10 8 8 7 5 5 4 3
28 56 48 38 28 25 23 29 33 22 13 10 9 6 9 15 10 9 10 12 16 21 26 21 23 31 45 40 24 14 15 15 16 16 20 18 18 14 10 9 8 6 5 4 3 3 3
37 42 56 40 42 30 25 23 26 34 25 15 11 10 8 7 10 14 14 11 10 10 10 14 16 16 15 17 22 29 35 24 18 14 10 9 9 8 8 7 6 5 5 4 4 4 3
66 47 44 36 55 40 26 30 26 25 35 28 20 12 11 10 8 8 8 10 13 20 24 22 26 27 34 25 19 15 11 14 17 16 12 13 11 8 8 9 7 6 5 4 5 4 3
31 60 52 46 47 51 42 29 32 26 26 36 32 26 19 13 13 12 12 11 11 12 13 16 19 18 15 17 24 26 16 11 12 12 12 12 16 16 17 14 14 14 14 10 14 8 6
73 31 55 50 67 54 58 50 36 32 25 25 33 37 28 23 20 15 13 12 13 13 13 13 16 18 16 12 11 13 14 16 17 19 20 23 30 38 32 25 30 33 26 24 20 15 15
75 69 34 38 30 74 50 61 42 38 34 27 29 28 41 43 35 28 28 25 22 21 19 14 12 12 10 10 13 15 17 21 24 27 29 30 29 27 27 24 23 33 27 31 24 21 34
85 66 49 37 31 52 50 47 59 50 45 33 31 31 29 34 52 47 41 39 38 39 40 37 33 30 33 33 34 35 31 36 40 43 48 48 47 38 29 30 27 29 26 28 25 29 40
80 68 59 54 48 41 72 66 61 58 57 43 31 34 30 28 30 44 52 51 48 42 42 42 43 42 36 37 38 39 40 41 41 41 43 47 47 43 36 34 34 39 33 34 34 33 35
76 82 66 57 78 45 58 59 84 58 46 62 31 28 41 36 32 29 32 42 49 52 52 48 46 44 44 43 42 44 46 48 49 50 46 43 42 40 40 38 35 34 38 37 30 26 35
98 79 86 75 67 73 37 66 89 90 63 66 62 47 29 35 38 36 28 29 31 39 47 55 57 51 50 51 50 49 51 54 56 58 59 60 59 53 48 50 50 48 45 38 38 38 42
100 100 88 72 78 70 74 53 71 93 90 87 73 61 50 42 29 36 38 43 30 28 28 38 44 51 55 54 52 50 51 52 54 54 54 55 57 62 65 67 67 61 62 61 56 50 44
100 100 100 95 82 81 78 80 73 76 96 99 81 76 54 50 39 32 37 36 37 38 27 27 28 34 43 45 49 52 54 53 51 50 49 50 53 56 58 59 62 65 73 72 65 65 62
91 100 100 100 76 90 92 76 78 96 93 78 100 86 73 75 71 47 32 36 37 35 43 39 28 30 27 28 37 45 48 47 49 54 57 58 54 51 52 54 57 58 57 64 79 84 78
100 100 100 100 83 87 100 100 100 96 99 73 64 94 92 70 72 72 59 42 39 34 33 37 50 39 27 30 28 31 40 49 54 54 55 59 64 66 61 59 58 56 54 52 55 59 72
100 93 100 100 96 71 99 100 88 100 98 82 65 83 77 74 73 69 69 65 53 45 38 35 39 50 48 37 30 31 33 37 45 57 64 62 63 67 64 62 60 60 58 57 56 58 57
99 100 100 100 100 97 57 99 100 100 98 88 57 86 78 83 62 68 86 82 87 57 42 33 44 49 44 54 51 34 33 34 35 44 62 74 72 75 74 75 69 69 66 63 63 64 61
70 97 98 100 100 100 100 92 100 100 100 91 74 91 83 97 97 72 81 75 90 84 77 49 33 38 66 47 69 57 45 34 32 33 40 53 91 82 77 74 74 77 81 74 75 80 78
100 86 88 99 100 100 100 100 100 100 100 93 93 100 96 100 89 98 97 97 83 90 98 80 56 43 42 51 50 77 75 55 39 34 33 38 92 86 70 57 77 68 70 76 75 82 91

GFSGBSN_250_rhum_126.txt.gz
RH
22 8 6 3 4 2 2 2 2 2 2 2 2 4 6 12 22 20 20 30 30 54 81 72 72 84 100 100 99 75 79 62 52 49 51 55 56 56 47 45 43 36 30 30 34 31 27
22 16 6 5 4 4 2 2 2 2 2 2 2 2 3 11 16 18 20 27 32 34 49 54 83 70 74 99 100 100 97 88 67 53 46 44 42 46 48 45 42 41 31 27 27 25 26
20 21 10 6 4 4 3 2 2 2 2 2 2 2 2 9 16 20 21 28 30 34 39 47 60 92 86 73 98 100 100 99 76 66 48 38 32 30 30 30 35 31 32 36 26 22 25
18 20 19 7 6 5 4 3 2 2 2 2 2 2 2 5 16 19 26 31 30 35 38 52 70 89 100 96 76 84 99 100 91 83 71 48 38 24 24 19 18 20 21 22 22 19 16
21 16 20 15 5 6 4 4 4 2 2 2 2 2 3 5 24 23 26 31 31 38 44 52 61 64 74 79 82 76 62 68 74 71 65 55 54 28 21 14 13 12 12 11 10 9 8
30 22 18 21 12 5 8 6 6 4 3 2 2 2 2 7 24 24 25 31 31 43 51 46 56 75 95 98 94 76 77 77 70 47 45 52 44 36 28 27 25 20 15 13 11 10 10
34 30 19 20 25 11 6 8 5 6 5 3 2 3 2 4 17 27 26 25 34 39 39 46 61 95 100 100 100 99 82 68 66 51 48 43 34 26 28 24 22 18 22 23 10 8 7
27 33 29 17 25 24 10 6 9 7 7 6 4 3 3 4 8 18 26 32 35 42 46 51 72 87 91 79 78 80 73 62 53 50 43 49 50 45 43 40 44 32 21 16 8 6 6
15 24 36 24 20 24 26 10 8 8 8 6 8 6 5 4 5 13 22 27 31 35 45 47 50 60 58 63 65 66 53 44 54 52 58 56 67 60 47 41 20 17 11 9 8 6 5
24 20 33 36 20 20 24 28 11 9 8 9 6 8 9 8 9 12 18 24 29 36 41 44 54 53 57 58 58 54 52 55 66 74 77 71 40 26 15 13 13 12 9 7 7 6 5
31 27 16 30 33 20 22 26 31 14 10 9 11 10 8 11 10 13 18 23 29 36 42 42 41 46 48 49 51 61 73 63 64 48 32 25 16 14 12 12 11 10 9 8 7 7 6
34 34 26 26 28 29 21 20 24 33 19 12 10 8 13 10 10 15 16 20 23 39 48 49 47 52 64 82 91 87 71 70 47 20 17 15 16 16 16 17 12 10 8 7 6 6 5
50 37 32 24 31 37 38 24 20 22 31 25 17 12 10 9 14 13 13 17 20 27 31 36 50 68 70 74 58 49 29 19 19 19 16 13 11 11 11 16 16 15 11 10 11 8 6
46 43 35 32 26 36 42 40 25 19 23 33 32 25 22 12 11 10 10 18 20 20 20 21 21 24 26 26 25 23 21 12 16 14 12 16 17 20 19 16 12 9 10 10 10 8 8
71 62 34 38 35 29 45 45 38 27 19 23 25 34 34 27 23 20 16 12 14 13 14 16 21 21 21 29 35 34 41 35 31 28 29 26 21 18 20 20 19 17 19 21 19 17 16
73 63 53 35 50 37 30 36 39 39 30 19 24 27 27 39 37 31 31 27 24 22 21 20 22 24 30 31 25 18 21 23 21 18 16 15 16 20 23 21 24 20 23 25 29 28 31
90 79 69 50 38 55 59 35 42 40 36 28 23 25 24 25 29 45 41 39 39 36 32 28 28 26 24 22 28 27 27 29 32 34 33 29 26 24 28 23 21 20 23 31 33 38 39
100 88 88 76 54 39 64 76 45 40 33 33 28 28 31 27 23 28 32 49 46 45 47 47 47 48 46 44 39 35 38 42 44 45 43 40 37 38 38 35 35 34 31 28 27 39 38
99 97 92 89 64 73 76 62 72 44 43 39 36 32 33 34 29 29 30 29 32 47 51 50 52 51 51 51 50 51 52 54 56 50 51 53 53 54 52 48 43 43 46 40 40 37 34
100 93 78 94 91 87 89 94 93 68 55 51 40 42 37 26 33 33 25 28 26 27 30 39 49 52 54 54 55 57 58 58 58 59 61 59 62 65 65 62 61 57 52 45 44 42 41
100 100 84 97 100 88 89 96 99 86 63 55 46 40 44 37 24 29 42 36 33 31 30 30 30 32 42 48 52 58 57 55 54 56 54 54 54 57 62 66 66 64 64 64 59 52 51
100 100 100 84 94 100 100 94 89 96 88 76 60 52 50 52 54 48 32 35 48 43 32 34 29 32 32 28 31 45 47 49 53 55 55 55 56 54 52 49 47 50 49 58 65 70 68
100 100 100 100 61 100 97 97 63 94 100 95 83 74 53 50 55 67 66 50 43 46 46 40 43 44 36 35 32 31 31 42 46 47 47 46 46 50 50 51 50 48 46 45 44 48 56
73 96 87 100 100 51 100 100 98 90 98 100 83 96 92 77 61 61 68 70 55 52 45 45 40 40 45 46 40 36 33 33 33 40 47 49 50 49 48 51 55 56 52 54 58 57 51
88 83 75 98 100 81 58 80 83 94 100 100 88 76 85 86 79 73 63 59 64 60 59 59 51 53 52 56 50 50 38 30 32 34 34 42 48 51 50 52 54 56 57 55 54 56 59
100 95 100 94 79 99 92 100 89 92 100 80 100 82 99 77 73 59 60 61 56 59 55 60 62 64 65 63 64 57 52 48 37 30 32 33 31 37 52 58 58 58 61 61 59 57 58
100 100 98 100 90 100 96 96 100 100 96 89 100 87 72 96 93 86 64 69 47 50 63 58 64 61 71 62 65 66 56 52 52 42 32 29 29 33 37 46 46 54 54 55 57 58 57
100 100 100 100 100 100 100 100 100 100 100 82 100 100 80 82 95 84 79 70 64 50 58 67 69 58 72 72 53 50 60 59 57 54 52 38 32 28 32 39 47 40 35 58 67 74 79
100 100 100 100 95 100 100 100 100 100 100 97 100 100 95 72 84 75 70 63 59 69 67 61 82 78 63 73 64 58 51 58 60 51 62 57 48 43 33 28 31 36 39 37 35 32 39

GFSGBSN_250_rhum_129.txt.gz
RH
14 6 7 4 3 2 2 2 2 2 2 2 2 5 11 17 25 31 44 66 30 37 55 77 86 78 76 72 87 84 73 66 66 64 63 68 78 76 61 54 56 55 49 49 47 43 49
18 11 7 6 4 2 2 2 2 2 2 2 2 3 11 18 20 33 62 56 45 36 33 60 82 80 72 78 79 100 86 76 57 54 50 44 42 41 51 68 63 54 56 51 41 39 38
17 18 9 7 5 3 2 2 2 2 2 2 2 2 9 16 19 34 48 46 39 36 37 43 46 83 96 100 88 84 91 85 92 79 58 38 29 37 44 46 51 48 49 41 37 33 29
20 19 18 8 7 5 2 2 2 2 2 2 2 2 6 15 16 28 38 45 32 22 40 42 46 60 73 91 95 77 70 85 87 95 67 55 50 34 30 26 25 26 29 32 34 30 29
19 19 22 15 8 7 5 2 2 2 2 2 2 2 5 12 16 22 36 24 23 19 30 40 44 56 73 90 89 89 82 72 71 79 100 100 99 75 44 32 21 18 18 17 18 22 20
15 19 19 23 12 8 8 5 2 2 2 2 2 2 4 11 19 23 30 28 26 24 33 33 37 49 53 59 78 86 92 96 94 95 75 73 72 62 44 34 29 26 24 18 20 16 14
21 17 19 23 25 14 8 8 6 2 2 2 2 2 4 10 21 22 25 29 29 27 32 28 31 36 37 46 56 79 87 88 88 90 87 74 65 53 45 37 34 35 33 31 27 24 19
20 24 17 19 19 26 18 9 10 7 3 3 4 4 6 11 19 17 21 25 31 29 27 28 30 33 40 43 62 74 82 89 86 75 73 71 65 55 46 48 53 57 69 71 44 22 13
18 26 31 20 20 22 26 22 10 10 7 6 6 13 13 14 14 18 20 24 26 28 28 29 31 38 47 53 66 84 83 79 77 78 74 77 74 70 73 75 71 62 52 22 13 12 13
30 18 25 26 20 19 20 26 26 13 10 8 12 9 17 19 17 19 21 23 25 28 29 32 37 42 51 61 70 71 63 51 56 61 77 79 85 88 73 73 46 26 25 21 14 10 8
45 26 19 30 22 20 19 21 25 28 20 11 9 10 15 14 23 28 25 25 27 32 34 41 48 54 48 47 50 50 60 65 65 71 78 85 66 56 50 35 28 21 16 12 12 13 10
54 48 32 27 36 23 20 18 20 23 32 26 15 10 10 10 15 17 30 43 49 47 52 56 63 58 59 59 65 54 61 59 55 60 62 57 35 25 21 24 23 20 22 15 11 11 10
59 67 56 32 34 33 28 21 19 23 22 29 34 25 16 13 13 12 12 14 16 21 25 35 38 47 53 55 53 49 46 45 43 39 34 32 23 22 20 16 17 17 17 22 20 17 14
75 62 64 62 26 36 32 31 25 19 24 25 24 33 35 27 24 18 16 16 18 18 18 18 21 22 23 26 31 32 25 23 20 19 18 18 15 18 23 29 26 22 25 20 19 14 27
78 83 77 82 58 29 32 37 37 32 18 20 24 24 22 34 37 32 28 26 26 24 24 27 27 24 20 24 32 39 40 42 44 42 43 38 35 37 36 33 28 16 28 27 29 26 43
100 85 80 99 80 50 28 35 43 47 35 21 25 21 25 28 30 40 45 44 49 50 47 40 41 40 38 37 34 33 37 36 37 31 28 26 29 29 28 26 26 25 30 33 34 49 60
93 100 72 100 100 71 44 40 36 52 44 35 27 32 23 28 29 30 32 34 46 52 53 56 55 52 49 48 49 48 51 53 51 46 43 39 39 39 42 41 35 29 32 35 34 41 51
93 100 76 60 100 86 81 33 52 38 50 38 39 30 34 22 24 29 32 32 34 35 37 45 52 51 52 50 47 50 57 57 57 57 57 57 54 50 45 41 42 47 51 48 43 42 45
91 100 100 75 98 100 85 92 64 56 40 43 48 38 25 26 28 26 29 34 34 34 35 36 35 38 44 50 53 54 53 51 52 54 54 56 56 57 56 54 53 49 46 45 45 45 46
87 100 90 94 80 95 99 48 100 99 74 51 49 53 37 23 24 22 27 26 29 33 31 31 32 33 33 34 41 48 51 54 54 54 52 51 52 51 52 54 53 56 56 54 51 46 45
99 100 100 72 100 77 100 92 55 100 98 68 48 52 44 44 36 26 24 26 27 32 31 29 30 33 32 33 35 35 34 37 42 49 49 48 49 49 50 51 52 52 50 50 56 58 56
100 100 89 78 98 100 77 88 74 79 98 79 76 66 45 39 42 58 37 32 31 29 27 30 37 33 30 33 32 31 32 33 32 32 37 45 52 50 47 47 47 50 52 50 48 45 48
100 100 100 96 100 100 60 95 88 87 97 73 85 78 62 51 51 41 47 46 42 40 36 35 29 26 29 31 32 31 31 31 31 31 30 30 35 47 53 52 49 48 48 44 45 46 47
100 100 100 100 97 100 81 72 100 96 81 100 100 73 78 62 54 56 48 46 51 52 45 40 40 39 34 28 29 28 31 30 29 30 30 30 35 38 45 51 49 52 52 54 54 54 50
92 100 92 100 95 100 100 100 97 100 80 100 100 99 88 82 72 58 63 67 66 64 61 53 48 47 51 46 37 37 30 37 30 34 38 32 32 28 29 30 36 42 50 58 58 58 59
100 100 89 100 100 100 100 100 94 75 97 83 100 99 99 96 86 75 63 59 62 71 79 62 57 53 50 64 66 59 49 44 32 27 33 38 39 40 46 33 29 30 34 32 35 36 41
100 100 100 100 97 100 100 100 100 77 84 77 86 100 100 96 94 98 75 59 55 58 74 84 74 65 63 55 66 78 75 69 59 43 42 38 34 30 36 41 41 41 36 33 35 36 34
100 100 100 100 100 100 100 100 100 85 100 92 88 76 89 100 100 100 84 87 88 82 81 73 70 74 69 70 68 70 88 90 78 70 46 56 45 41 32 32 46 51 46 41 42 37 36
100 100 100 100 100 100 100 100 100 100 100 97 100 90 98 100 93 100 99 100 100 94 89 96 85 76 80 73 84 87 82 83 89 78 72 53 54 57 43 40 42 42 53 48 51 52 53